GFSCGP_sfc_temp_000.txt.gz
Temp
55 49 46 48 55 51 49 45 44 50 57 55 53 53 58 58 56 54 54 55 56 58 57 60 59 58 59 59 60 61 64 64 63 61 60 60 64 62 61 62 64 64 64 64
49 46 53 56 53 52 50 46 45 52 57 54 51 53 56 55 55 54 56 55 57 56 58 59 59 57 57 57 58 60 61 62 62 62 62 63 62 61 62 63 63 64 64 64
49 53 57 56 51 51 47 45 45 48 53 53 48 48 49 54 54 56 55 56 57 57 57 57 56 55 55 55 55 59 60 61 61 63 62 62 62 61 61 61 61 63 64 65
50 54 55 54 52 51 44 53 54 51 46 41 48 38 43 49 52 52 51 54 55 56 56 56 56 55 54 55 56 58 59 60 62 60 60 59 58 58 59 59 60 62 63 63
50 53 52 52 52 54 51 56 51 49 43 39 42 40 44 50 49 52 52 53 54 54 55 55 55 56 55 55 55 56 58 60 59 58 58 56 56 56 57 57 58 59 60 62
51 58 55 54 56 56 57 51 48 43 41 35 42 43 42 46 52 50 50 52 55 54 54 54 55 56 56 55 55 56 58 57 58 58 57 56 55 55 56 55 56 57 58 59
47 51 53 57 51 52 50 43 35 34 33 34 41 40 47 52 53 58 53 53 53 54 54 54 53 54 55 55 55 57 57 56 56 56 56 55 55 54 54 54 54 54 56 56
39 42 50 55 52 48 46 45 36 32 31 37 43 39 48 51 54 56 56 54 54 53 53 54 54 54 54 55 55 55 55 55 55 55 55 55 55 54 54 54 54 54 54 55
43 40 49 52 53 53 46 42 47 41 36 36 40 45 49 51 50 52 52 53 53 53 53 54 53 54 55 54 53 53 54 53 53 53 54 53 53 53 53 53 53 53 55 60
46 38 46 49 52 50 47 51 41 39 33 31 36 38 43 44 47 50 50 51 52 53 53 53 54 54 53 52 52 52 52 52 52 52 52 53 52 52 52 53 52 54 55 56
49 44 40 47 45 45 45 43 43 42 39 34 31 38 48 49 50 51 52 53 53 52 52 52 53 52 52 51 51 50 51 51 51 51 51 50 50 50 50 51 52 52 53 54
49 43 36 41 47 49 46 47 45 39 37 36 35 39 51 48 52 53 53 54 51 52 52 52 50 50 49 49 48 48 49 49 49 50 49 49 49 50 50 50 51 52 51 53
52 43 35 37 42 45 44 47 46 44 41 37 35 40 51 49 50 50 51 51 52 51 51 50 49 47 47 47 47 47 47 47 48 48 47 47 47 47 47 48 49 50 50 50
53 45 42 40 41 45 42 45 46 44 37 38 38 40 46 50 51 52 53 54 50 51 51 48 46 45 45 46 46 45 45 46 46 46 46 45 45 45 46 46 47 48 48 48
51 44 43 44 47 46 46 46 45 43 41 41 41 44 47 51 51 53 53 49 49 49 49 46 44 43 43 43 43 44 44 45 45 44 44 43 44 44 44 44 45 46 46 46
50 43 45 42 47 46 43 46 46 45 45 45 44 47 53 54 49 46 44 48 48 48 47 46 45 44 42 40 42 43 43 43 43 42 42 43 43 43 42 43 43 43 43 44
47 44 42 37 42 43 40 43 43 42 44 46 41 48 50 50 50 47 46 48 48 46 45 44 43 42 42 42 42 41 41 42 41 40 41 41 41 41 41 41 41 41 41 42
43 40 38 35 37 30 41 47 49 46 47 47 48 49 48 47 46 45 46 47 46 46 44 43 42 42 41 41 41 40 41 39 39 38 39 40 40 39 40 39 39 39 40 40
44 39 34 33 31 39 42 45 46 44 42 46 46 46 46 47 44 43 45 45 44 43 42 42 41 42 41 40 39 39 37 37 37 37 37 38 38 38 38 37 37 38 38 38
42 41 38 27 27 30 40 46 49 47 36 46 46 46 45 44 39 42 43 44 43 43 43 42 44 43 41 38 37 36 35 34 35 36 37 37 37 37 36 36 36 37 37 38
34 34 32 31 29 34 44 48 48 35 36 43 45 45 45 42 44 43 44 42 43 43 45 44 41 39 38 36 36 34 33 32 35 36 36 36 36 35 36 36 36 36 35 36
34 30 30 30 28 27 45 45 40 43 43 44 45 44 44 43 43 43 42 43 43 42 41 42 37 40 40 39 35 32 31 34 34 34 34 34 34 36 37 34 34 34 34 33
35 39 36 36 35 45 44 46 46 48 46 44 43 46 45 45 43 44 42 42 43 42 41 42 40 40 40 35 33 31 32 33 33 32 32 33 34 34 34 32 32 32 33 32
38 42 39 41 41 42 45 44 45 46 46 47 46 45 44 44 44 42 41 40 42 41 40 40 39 38 35 34 34 32 32 33 32 30 31 32 31 33 33 33 33 32 31 31
40 40 39 38 42 43 42 44 44 45 44 42 42 43 44 42 39 37 37 38 40 39 39 39 37 33 32 32 31 32 33 31 29 29 30 32 32 32 32 32 32 32 33 34
38 39 36 35 42 42 41 42 44 42 42 43 42 41 37 36 37 37 37 37 37 38 37 33 32 30 30 30 30 31 31 30 29 30 31 31 31 31 31 30 31 36 37 38

GFSCGP_sfc_temp_003.txt.gz
Temp
55 48 46 48 50 53 48 45 43 47 53 50 49 51 57 56 54 52 52 53 54 56 55 57 57 56 57 58 58 58 60 59 60 59 58 58 59 60 60 60 62 62 62 62
48 46 54 54 54 51 49 43 43 50 53 50 48 50 54 54 53 52 53 52 53 54 54 55 55 54 54 54 55 57 58 58 59 59 59 60 60 60 60 61 62 62 62 62
48 51 56 55 50 49 46 43 43 46 51 50 47 46 49 51 51 54 53 54 55 54 53 53 53 52 52 53 53 57 57 59 59 59 60 60 60 60 59 59 59 61 61 62
50 55 52 51 48 53 45 52 49 48 44 39 45 36 44 48 49 51 49 51 53 53 52 54 54 53 52 53 54 55 57 58 60 58 58 56 55 55 55 55 56 58 59 60
46 50 50 49 51 53 47 53 49 47 43 37 40 38 44 46 47 50 50 50 50 52 53 53 53 54 53 53 53 54 57 57 56 56 54 54 53 53 53 53 55 55 57 57
51 57 57 55 55 54 54 49 46 41 39 33 40 41 42 43 51 47 48 50 51 52 51 52 53 54 53 53 53 53 56 55 55 56 55 53 52 52 53 53 53 53 54 55
48 48 55 55 52 51 48 43 34 32 32 32 38 37 49 49 51 55 52 50 51 51 51 51 52 52 52 51 52 55 53 53 53 54 53 52 51 51 50 50 51 51 53 54
39 39 49 53 51 46 44 45 35 30 30 33 39 36 47 49 50 55 55 52 51 51 50 51 51 51 51 51 51 51 51 51 52 51 51 50 50 50 50 50 50 50 50 52
39 40 48 50 51 53 44 41 45 39 34 32 37 43 48 48 47 50 50 50 50 50 50 51 51 50 49 49 49 49 50 50 50 50 50 49 49 49 48 48 48 49 50 55
46 37 45 48 51 49 47 50 40 37 31 29 34 35 42 43 44 46 48 49 50 50 50 50 50 49 48 48 48 49 49 48 48 48 48 48 47 47 47 47 47 48 50 50
46 43 38 45 43 43 43 41 41 41 37 32 29 37 46 48 48 49 49 51 50 49 50 49 48 48 48 47 47 47 47 47 47 47 47 45 46 46 45 46 47 47 48 48
46 43 36 38 44 47 43 44 43 37 34 33 32 38 47 47 50 50 51 51 49 50 49 48 47 47 46 45 45 45 46 45 45 46 45 45 44 45 45 45 45 46 46 47
50 40 34 36 41 42 41 44 43 41 39 34 33 38 50 46 50 50 51 52 51 49 47 46 46 45 44 44 44 43 44 44 45 44 43 43 43 42 42 43 44 44 44 44
53 43 39 38 39 42 39 43 43 43 35 36 36 39 44 48 49 49 50 49 48 48 49 46 44 43 43 43 43 43 43 43 43 43 42 41 41 40 40 41 41 42 43 42
50 43 42 41 44 43 43 43 43 41 41 40 39 41 44 46 49 50 52 49 49 49 46 45 43 42 41 41 41 41 42 42 42 41 40 39 39 39 39 39 40 41 41 41
47 40 41 37 42 43 40 42 43 42 42 41 42 43 49 49 48 48 46 45 47 46 45 44 43 41 41 38 40 41 40 40 40 39 38 39 39 38 38 38 39 39 39 39
46 42 40 34 38 39 37 42 42 42 43 45 41 47 48 47 47 44 44 46 47 46 44 43 42 41 40 39 40 38 38 40 39 38 38 38 38 37 37 37 37 36 36 37
42 40 38 35 37 30 42 46 48 45 45 48 47 48 48 46 45 45 45 46 46 45 43 42 41 39 39 39 39 40 41 38 36 36 36 36 36 36 36 35 35 34 36 35
45 42 36 36 34 37 40 45 44 44 41 46 46 46 45 45 43 43 45 44 42 42 41 40 40 39 38 38 42 40 36 34 34 34 34 35 35 34 34 33 33 34 34 34
43 42 40 29 29 32 41 46 49 48 35 44 45 43 42 42 37 40 41 41 41 42 42 40 40 39 41 41 37 35 34 32 32 33 33 34 34 33 32 32 32 34 33 34
36 36 34 34 32 37 45 47 48 36 37 42 43 43 41 40 43 44 42 41 41 41 40 40 41 39 37 39 36 35 35 31 32 33 33 33 33 32 32 32 32 32 32 32
35 31 32 32 30 31 44 45 41 42 42 44 44 44 43 43 42 41 41 40 40 39 38 39 37 38 40 40 38 35 30 32 32 32 31 31 30 32 35 30 31 31 30 30
35 39 36 37 36 43 42 44 44 46 44 44 42 44 45 44 42 42 40 40 39 38 38 38 37 38 39 38 36 30 31 31 31 29 29 29 30 30 31 29 30 29 30 29
37 40 38 39 38 40 43 44 45 44 45 44 44 43 43 41 42 40 39 38 37 37 36 37 39 38 36 33 31 30 30 30 29 27 27 28 27 31 31 30 31 30 29 28
38 40 38 38 38 40 41 42 43 44 41 41 41 41 41 39 37 36 37 37 36 38 39 38 37 33 31 30 29 29 30 29 28 27 28 28 28 28 29 30 30 30 31 32
38 38 37 36 41 41 40 42 42 41 40 40 39 38 36 36 37 36 36 39 39 38 38 34 31 30 29 28 28 29 30 29 27 28 29 28 29 28 29 28 29 35 35 37

GFSCGP_sfc_temp_006.txt.gz
Temp
53 48 44 47 53 47 47 43 43 46 51 47 47 47 53 55 54 51 50 51 51 53 52 54 54 53 55 55 55 55 58 56 57 58 57 57 58 59 59 60 61 60 60 60
49 44 53 51 52 51 49 47 42 48 50 47 47 48 53 52 54 51 51 51 51 51 52 53 53 52 52 52 54 57 57 57 56 58 58 59 58 59 59 59 60 60 60 60
46 50 57 53 48 49 48 46 42 44 48 48 45 44 46 49 49 51 51 51 51 52 52 51 51 50 51 51 52 55 55 57 57 57 58 58 58 57 55 56 57 57 58 59
48 53 53 52 47 49 42 49 51 47 43 37 44 35 42 46 47 48 48 49 50 50 49 52 53 52 51 52 53 53 55 55 56 54 56 53 52 51 51 52 52 54 55 55
46 47 47 48 51 51 46 53 51 49 40 35 37 36 41 42 45 47 47 48 49 49 50 51 52 52 52 52 51 51 54 54 53 54 52 52 51 50 50 51 51 51 53 54
47 54 52 51 53 54 54 50 48 44 39 32 38 40 38 42 45 44 45 48 49 49 49 50 51 51 50 50 50 50 53 52 52 52 51 50 49 49 50 49 50 51 51 52
44 47 52 55 49 52 50 47 35 34 31 31 35 34 42 46 49 52 50 49 49 48 48 49 49 49 49 49 49 52 51 49 50 50 50 49 48 47 46 47 47 48 49 50
39 36 46 52 49 45 46 43 34 29 29 32 36 34 44 45 47 50 54 51 49 48 48 49 49 48 48 48 48 48 48 48 48 48 47 47 47 47 47 46 46 47 47 48
38 38 46 51 51 53 42 41 44 37 31 31 35 41 48 47 46 45 49 49 47 47 48 48 47 47 46 47 47 47 47 47 47 46 46 45 45 45 44 44 44 45 46 50
44 36 46 47 54 51 47 49 39 36 30 28 32 34 40 45 43 43 45 47 47 48 48 47 47 46 46 46 46 46 46 45 45 45 44 45 43 43 43 43 42 43 44 45
45 41 41 46 43 44 43 40 39 40 35 31 28 36 43 45 46 46 46 47 47 47 48 47 46 45 45 45 45 44 44 44 44 44 43 43 43 42 42 41 41 42 42 42
47 40 36 42 42 46 43 43 42 36 32 31 31 36 45 44 45 47 47 48 48 49 48 46 45 44 44 44 43 43 43 43 43 43 42 41 41 40 39 39 40 41 40 42
48 39 33 37 40 41 40 41 41 39 37 31 32 37 48 44 46 48 49 50 50 48 45 44 43 43 43 43 43 42 42 41 42 41 40 39 39 38 37 37 39 40 40 40
53 42 39 36 37 42 37 40 40 41 34 33 35 38 42 43 47 48 48 48 48 46 46 43 43 42 42 42 41 40 40 40 41 40 39 38 37 37 37 37 38 38 38 37
51 42 40 40 42 42 42 42 41 40 41 39 40 40 43 45 47 46 46 47 46 45 45 44 43 41 40 39 39 39 39 39 39 38 37 37 37 37 36 36 36 37 37 37
49 41 41 37 41 40 39 41 41 40 40 38 40 41 45 44 44 44 42 45 46 46 45 43 42 40 39 37 38 39 38 38 39 37 36 37 36 36 35 35 35 35 35 35
44 42 40 34 38 37 36 41 39 40 41 43 39 44 46 44 47 45 46 46 47 45 43 42 41 39 38 38 38 37 37 38 38 37 36 35 35 34 34 34 34 34 33 33
43 40 38 32 33 28 39 42 44 42 42 44 45 45 46 46 45 44 44 43 45 43 42 40 39 38 38 37 37 37 38 40 36 34 34 34 34 33 33 32 31 31 32 32
45 41 34 34 31 37 39 42 42 43 39 44 45 45 44 44 42 42 44 42 41 42 40 39 39 38 36 36 38 38 38 33 33 33 32 32 32 31 31 30 30 31 31 31
42 42 39 27 28 30 39 45 48 48 38 46 47 44 43 42 38 41 43 41 39 40 40 38 38 37 37 36 36 34 32 32 31 32 31 32 31 30 29 29 30 30 31 31
36 35 34 34 32 36 44 47 48 37 38 44 44 44 44 41 43 43 40 38 39 39 38 38 38 36 35 35 38 33 31 30 31 31 31 31 30 29 29 29 29 30 30 30
35 31 31 31 30 31 44 45 41 42 42 44 44 44 43 43 43 41 40 39 38 37 37 37 35 34 36 39 33 31 32 30 30 30 29 29 28 30 33 28 29 28 28 27
36 39 36 37 36 43 41 43 43 45 44 43 43 45 45 43 41 41 40 38 37 37 37 37 35 34 34 33 32 29 29 29 29 28 27 27 28 29 29 28 28 28 28 27
36 40 39 39 39 41 43 44 45 45 45 45 43 43 42 40 40 39 39 37 36 36 35 36 34 35 36 34 30 28 28 28 27 25 25 27 26 29 28 27 29 28 27 27
38 39 37 36 37 40 42 42 45 44 43 42 41 40 40 38 37 36 36 36 35 35 36 36 37 35 32 29 28 28 29 27 27 26 27 26 27 25 27 28 27 28 29 30
37 38 37 36 41 41 40 43 42 42 41 39 38 36 36 35 36 35 35 36 35 35 37 35 34 30 28 27 27 28 28 27 25 26 28 27 28 26 28 27 27 34 35 36

GFSCGP_sfc_temp_009.txt.gz
Temp
51 46 44 49 53 52 50 50 50 51 55 53 51 51 57 60 59 58 57 57 58 58 58 59 59 60 63 62 63 62 63 63 66 66 66 67 65 66 66 66 67 67 67 67
47 43 53 54 52 51 49 48 47 50 53 53 52 52 58 57 58 59 56 56 57 57 58 57 58 59 59 60 61 62 62 62 63 65 65 66 66 64 64 64 63 64 64 64
44 49 57 53 49 49 48 46 46 47 50 52 49 49 51 57 57 54 55 56 57 57 56 56 57 57 58 58 58 60 60 61 61 63 65 65 64 63 62 61 61 61 62 62
46 53 52 50 48 50 44 51 52 49 47 42 51 40 47 54 53 52 53 55 55 55 56 56 56 57 57 56 57 58 58 59 60 61 60 59 58 57 57 58 59 60 60 60
44 47 49 47 49 51 47 53 51 50 46 43 44 43 48 49 50 51 51 53 54 55 56 54 55 55 56 56 55 57 57 57 57 58 58 57 56 56 57 57 57 57 58 58
46 53 54 53 53 54 52 49 47 46 44 37 42 45 45 49 51 50 51 52 53 54 54 54 54 55 55 55 55 55 56 54 55 55 55 55 54 54 54 53 54 54 55 56
43 47 50 52 49 51 51 46 35 32 34 35 40 39 48 51 53 55 54 53 53 54 53 53 53 54 54 53 54 55 54 52 54 53 53 53 52 52 51 51 52 52 52 52
37 37 47 50 48 45 46 46 37 32 32 36 39 38 49 53 53 53 55 54 52 52 53 53 53 53 52 52 53 53 53 51 52 52 51 52 52 51 51 51 51 50 50 51
38 38 47 51 52 52 42 41 48 38 37 36 40 45 52 52 50 49 51 52 51 52 52 52 52 52 52 51 51 52 51 50 51 51 51 50 50 49 48 49 49 49 49 51
44 37 46 49 53 51 48 52 39 40 34 32 36 38 44 49 50 47 48 51 50 51 51 51 51 50 50 50 50 50 50 49 49 49 50 48 48 48 48 48 47 47 48 48
45 41 39 47 46 43 44 41 43 43 39 35 34 41 48 49 50 49 49 50 51 51 51 50 50 50 49 49 49 49 49 48 48 48 47 47 46 47 47 46 46 46 46 46
46 41 36 40 45 48 47 45 46 39 35 35 36 41 50 48 48 49 50 50 51 52 51 50 49 48 48 47 48 47 47 47 46 46 46 45 45 45 45 45 45 45 44 45
48 40 34 40 44 44 43 44 45 42 40 34 36 41 50 49 49 49 50 51 52 51 49 48 47 47 47 46 46 46 46 45 46 45 45 44 44 44 43 43 43 44 43 43
52 42 39 36 39 42 39 40 41 45 38 37 38 44 48 48 49 49 51 52 52 51 48 47 46 46 46 46 45 45 44 45 45 44 43 43 43 42 42 42 42 42 42 42
51 42 41 40 43 44 43 42 41 42 46 43 44 42 48 49 50 51 53 52 50 48 46 46 45 44 44 44 44 43 43 44 44 43 42 41 41 41 41 41 41 41 40 40
48 41 41 38 41 42 41 42 45 44 41 42 43 43 50 51 50 50 51 49 48 47 46 46 45 44 43 43 43 42 42 42 43 41 40 40 40 40 39 39 39 39 39 39
44 42 40 36 40 41 37 41 41 43 42 48 42 51 48 47 48 49 49 50 49 48 47 46 45 43 42 42 42 42 42 42 41 40 39 39 39 38 38 38 38 37 37 37
43 42 40 34 37 29 42 43 45 44 43 45 45 46 48 47 48 48 48 49 48 48 46 44 43 42 42 41 41 41 41 41 39 38 38 38 37 36 37 36 36 36 37 36
44 42 36 33 32 38 40 42 41 43 41 45 44 44 45 47 47 47 47 46 45 46 44 43 43 41 40 40 41 41 40 38 37 37 36 36 36 35 35 35 35 36 36 36
44 44 42 30 30 33 42 45 49 48 39 46 46 44 44 45 42 45 45 44 42 42 42 41 40 40 40 40 40 38 38 37 36 35 35 35 35 34 34 34 35 35 35 35
37 37 36 35 33 37 45 47 48 38 42 45 46 45 44 44 46 45 44 42 41 40 40 40 40 39 39 38 39 38 36 35 35 34 34 34 35 33 35 35 34 34 34 33
38 34 33 32 31 33 46 46 43 44 43 45 45 45 45 45 44 43 42 40 40 38 39 39 37 37 38 40 39 35 35 35 34 33 33 33 33 34 35 33 33 33 32 31
37 40 37 38 37 42 42 44 44 46 44 44 45 45 46 45 44 42 41 40 39 38 38 38 37 36 36 36 36 34 34 33 32 31 32 32 33 33 33 32 32 32 32 30
36 40 38 39 39 40 42 44 45 46 45 45 46 45 45 44 43 42 40 38 38 37 37 37 36 35 36 37 35 33 32 32 31 30 31 32 32 34 33 32 32 31 30 30
40 40 37 35 38 41 42 42 43 43 43 43 43 43 43 42 40 39 38 37 37 36 36 37 36 36 36 34 32 32 33 31 31 30 31 31 31 30 30 31 31 31 33 33
37 38 37 37 41 41 42 43 43 42 40 41 41 39 38 38 38 38 37 37 36 36 36 34 36 36 33 31 30 31 31 30 29 30 31 31 31 30 30 29 30 33 34 35

GFSCGP_sfc_temp_012.txt.gz
Temp
54 43 40 48 55 59 61 58 56 61 65 60 62 64 67 73 73 71 72 72 71 70 69 70 71 73 74 75 75 75 75 76 78 77 76 75 72 72 72 72 73 72 73 72
48 40 50 53 57 59 59 55 54 63 61 60 62 61 68 72 71 72 72 71 70 68 69 68 70 71 72 72 73 73 72 74 75 75 74 73 71 71 71 70 70 70 70 70
44 46 56 49 52 55 56 53 57 57 58 61 59 60 65 66 66 65 70 72 70 69 67 68 68 69 70 69 69 70 70 70 72 73 73 72 71 70 69 68 68 67 68 67
48 54 51 48 50 57 48 61 58 55 51 49 59 50 62 68 65 64 66 67 68 68 68 67 68 67 67 66 67 68 68 68 69 71 70 69 67 64 65 66 67 67 66 65
43 49 47 47 49 59 55 60 58 55 51 49 55 51 61 61 62 62 65 66 66 67 67 65 65 64 65 65 65 66 66 66 67 67 68 67 65 65 65 66 65 65 65 64
51 55 52 55 56 59 58 56 54 54 50 45 55 53 58 63 64 64 64 65 65 66 66 65 64 65 64 64 64 65 64 64 65 65 65 64 63 63 63 62 62 63 63 62
43 44 52 58 48 52 57 50 37 37 37 44 51 50 60 65 63 66 63 64 65 65 64 63 63 63 63 62 62 63 63 61 63 62 62 62 61 61 60 60 60 59 60 59
33 36 46 57 54 45 48 54 48 38 41 47 48 48 60 63 64 65 69 67 65 64 65 64 64 63 62 61 62 62 62 60 61 61 60 61 60 60 60 58 58 58 58 58
35 37 49 55 55 55 44 42 57 48 48 48 53 57 63 61 61 61 64 64 62 63 64 63 63 63 62 62 61 61 60 59 59 59 60 59 59 58 57 57 57 56 56 56
45 34 47 49 53 50 51 58 44 49 40 39 49 50 58 60 61 59 61 62 63 63 63 62 62 62 62 61 60 60 60 58 58 58 58 57 57 57 56 56 54 54 55 55
53 49 39 50 44 46 50 46 48 53 50 47 46 52 63 61 62 61 62 64 63 62 62 62 62 61 60 59 59 58 58 57 57 57 57 56 55 55 55 54 54 54 54 53
55 55 42 43 52 57 57 53 53 47 43 49 49 54 62 61 60 60 63 63 64 63 63 62 61 59 58 58 58 57 57 57 56 55 55 54 53 54 54 53 53 53 52 53
57 52 43 39 47 52 50 54 56 58 53 49 47 53 60 61 60 60 62 62 62 62 61 61 59 58 58 57 57 56 56 55 55 54 54 53 52 52 52 52 52 51 51 51
56 53 52 45 49 55 49 52 55 55 48 50 51 57 60 60 60 59 62 64 63 61 60 59 58 58 58 57 56 55 55 54 52 52 52 51 50 50 50 50 50 49 49 49
56 50 52 51 53 55 53 51 52 51 54 50 56 54 61 66 63 64 64 63 63 61 58 58 57 57 57 55 55 54 52 52 52 51 50 48 49 49 48 48 48 48 48 47
55 49 51 48 49 53 50 54 54 54 55 56 57 56 66 65 65 62 64 62 61 60 58 57 57 57 55 54 53 51 51 50 51 49 47 47 47 47 47 47 46 46 46 46
54 52 49 45 48 49 45 52 52 55 58 57 52 61 62 58 59 62 62 60 60 60 58 57 56 55 54 53 53 52 51 50 49 47 46 45 46 45 45 46 45 45 45 46
52 51 49 44 45 35 54 54 60 56 59 60 60 59 61 62 61 59 61 61 59 58 57 56 56 53 53 53 51 51 50 49 47 45 45 45 44 44 45 45 45 45 45 44
51 46 42 41 43 49 50 49 51 51 54 58 58 58 57 56 58 54 55 56 56 56 57 56 55 53 51 50 51 50 48 46 45 45 44 44 44 43 44 43 44 44 44 43
48 48 43 40 38 40 51 53 57 58 50 57 58 56 54 55 52 55 54 53 51 51 51 51 51 51 51 50 50 48 46 43 45 44 43 43 43 43 43 43 42 43 43 42
42 44 41 43 36 48 54 55 57 47 50 54 57 56 55 55 56 52 51 48 50 50 49 49 50 49 50 49 48 44 42 43 44 43 43 43 43 43 43 43 43 42 41 41
45 43 43 45 37 38 54 52 51 53 54 55 55 56 53 52 51 51 50 48 47 46 46 48 48 47 47 47 45 41 42 44 43 42 42 42 43 42 42 40 40 41 40 39
45 51 48 50 49 49 51 52 52 58 54 53 54 54 53 51 51 51 49 48 47 47 46 47 47 45 45 44 43 42 43 42 41 41 41 42 42 42 42 40 39 38 39 37
45 48 49 46 47 47 49 51 54 56 53 54 54 53 54 51 51 50 49 48 47 47 46 46 45 45 43 43 42 43 42 41 40 40 41 41 41 40 40 40 39 38 37 36
50 49 47 43 45 48 50 52 52 51 52 51 51 52 52 52 50 50 48 47 47 46 45 45 45 44 44 43 41 41 41 40 39 40 40 40 40 39 39 39 38 37 37 36
49 50 49 50 53 54 53 52 52 51 50 51 49 47 46 49 48 47 47 47 46 45 44 43 43 43 41 41 40 40 40 39 38 38 39 39 38 38 38 37 36 38 37 37

GFSCGP_sfc_temp_015.txt.gz
Temp
55 43 40 48 48 55 58 56 57 63 69 66 63 64 69 74 76 75 76 78 77 75 74 75 76 78 78 78 78 79 79 80 80 79 76 75 72 72 72 72 73 73 73 72
47 38 52 56 52 49 51 54 59 63 67 63 63 63 70 74 74 76 77 77 76 73 73 73 74 76 76 76 76 76 76 77 78 76 75 73 72 71 71 70 71 71 70 70
42 45 53 54 47 46 52 53 58 57 63 64 62 58 63 71 75 76 76 79 77 73 71 71 72 73 73 72 72 72 73 73 72 73 72 72 71 71 69 69 68 68 68 67
43 52 42 50 45 47 43 60 61 59 56 49 62 50 65 70 67 69 72 75 74 73 73 72 71 70 69 68 70 71 71 72 73 74 73 71 68 65 67 67 68 68 67 65
39 44 41 45 45 52 47 63 60 57 55 51 53 51 61 70 66 68 71 73 72 72 71 70 69 68 68 68 67 69 69 69 70 71 71 69 67 67 67 67 66 66 66 65
45 55 51 50 52 52 54 60 57 56 53 43 54 55 59 64 67 71 71 71 70 70 70 69 68 67 66 66 66 67 67 67 68 68 68 66 65 65 64 63 63 64 64 63
40 40 49 53 45 49 48 47 37 37 37 44 59 55 61 66 68 71 68 69 69 69 68 66 65 65 65 64 65 66 66 64 66 65 65 64 63 63 61 62 61 61 61 59
33 32 39 51 46 44 45 50 46 37 40 47 55 49 60 68 69 73 72 70 69 68 68 66 66 66 64 64 65 65 64 63 64 64 63 63 63 62 61 60 60 59 58 58
35 36 51 52 50 51 44 46 58 51 55 52 53 59 64 67 65 67 69 68 66 67 67 66 67 66 65 64 65 64 63 62 62 62 62 61 61 60 59 59 59 57 58 58
40 34 42 46 51 48 51 60 48 53 42 42 52 55 57 61 64 65 66 66 66 67 67 67 66 66 66 65 64 64 64 62 61 61 61 60 59 59 58 58 56 56 57 56
42 35 36 44 45 44 45 45 53 57 55 48 48 53 68 65 65 65 67 68 67 66 66 66 66 66 64 63 62 62 61 60 60 60 60 59 58 57 58 57 56 55 55 55
47 42 35 41 54 58 55 49 55 49 46 53 51 53 67 67 65 66 67 67 68 67 67 66 66 64 62 61 61 61 60 60 59 59 59 57 57 57 56 55 54 55 53 54
52 47 36 37 46 49 48 54 58 58 59 52 49 53 67 67 65 66 67 68 67 66 66 66 64 62 61 61 61 60 60 59 58 58 57 56 55 54 54 53 53 53 52 52
56 52 50 45 50 49 44 49 56 54 50 52 55 58 61 64 64 64 66 67 67 65 65 64 63 62 62 61 60 60 59 58 56 55 55 53 53 52 52 52 51 51 51 50
56 50 55 57 58 56 53 53 53 52 55 52 57 57 65 68 67 67 67 66 65 64 63 63 62 62 62 60 59 59 57 56 55 53 52 50 51 51 51 50 50 50 49 49
57 50 54 50 54 56 54 56 57 56 57 57 59 59 71 72 72 69 68 66 65 64 63 63 62 62 61 60 58 56 55 53 54 52 50 49 49 49 49 48 48 48 48 48
51 51 51 47 52 52 46 55 56 57 59 59 54 62 70 64 65 66 67 67 65 65 64 63 62 61 60 59 57 54 54 53 52 50 49 48 48 47 47 47 47 47 47 48
52 51 51 46 49 36 56 60 62 59 61 63 63 66 65 66 67 68 69 66 65 64 63 63 62 61 59 58 56 55 53 51 49 48 48 48 47 46 47 46 46 46 47 46
57 51 46 43 44 51 57 55 56 56 56 64 63 66 65 63 59 56 61 64 62 62 63 62 62 59 57 55 54 52 50 49 48 47 47 47 46 45 45 45 45 45 45 44
51 55 47 44 40 39 52 57 61 63 50 67 67 64 61 58 53 55 57 57 56 57 58 57 57 55 53 53 52 50 49 48 46 46 46 46 46 45 44 44 44 45 44 43
39 40 37 38 41 49 57 58 61 47 51 58 63 64 59 56 59 56 56 54 55 54 53 53 53 52 52 52 51 49 47 45 45 45 46 45 46 45 45 44 44 43 42 42
43 39 38 42 38 36 58 55 52 55 58 60 61 61 58 54 54 54 53 50 50 49 49 52 51 50 50 51 50 46 44 45 45 45 44 44 45 45 44 42 42 42 41 40
46 54 51 53 50 53 57 55 58 61 58 59 58 58 56 54 52 52 50 50 49 49 49 51 50 48 49 48 48 45 45 45 44 44 43 44 44 44 44 41 40 40 40 39
52 53 54 52 52 52 55 55 58 61 59 59 58 57 57 53 53 51 51 50 49 49 48 50 48 47 45 45 44 46 44 44 43 42 43 43 42 42 42 43 41 40 38 37
53 51 52 50 49 50 53 55 56 56 56 55 56 56 55 54 53 53 52 51 50 49 48 48 48 47 45 45 44 44 43 43 41 42 42 42 42 41 40 41 40 39 39 38
53 54 51 52 56 57 55 56 56 54 52 53 51 50 52 54 51 52 51 51 50 48 47 46 46 45 44 44 44 43 43 41 40 39 40 40 39 40 40 39 38 41 40 40

GFSCGP_sfc_temp_018.txt.gz
Temp
52 43 38 43 46 48 49 49 48 54 63 58 58 60 62 66 67 64 65 66 65 65 66 66 66 67 67 68 68 68 69 70 69 67 66 65 61 60 61 61 63 63 62 62
45 38 48 51 51 47 47 45 47 54 62 60 58 58 62 64 66 67 66 66 65 63 63 64 65 64 65 65 66 66 67 67 68 66 65 63 61 60 60 60 61 61 60 59
39 44 51 50 47 45 46 43 46 46 57 61 54 52 57 63 67 68 69 68 66 64 61 62 61 62 61 60 61 63 63 63 64 65 65 64 62 59 57 57 56 58 58 58
44 50 48 45 44 47 40 52 49 51 44 41 54 37 53 60 62 65 63 64 64 63 63 63 61 59 58 58 60 62 63 63 63 63 61 59 56 54 55 55 56 56 57 55
38 43 43 41 42 46 43 52 48 48 44 46 48 42 50 59 58 61 60 62 63 63 62 60 59 60 59 58 57 58 60 60 61 60 59 57 55 54 55 55 55 55 55 54
44 51 47 46 47 46 49 47 45 46 45 37 46 44 46 54 58 59 61 61 63 62 61 60 59 59 57 56 56 57 57 58 58 57 57 55 53 53 52 52 51 52 52 51
40 38 46 48 41 47 46 41 34 34 34 34 51 45 49 56 62 65 62 61 62 61 60 58 56 55 55 55 55 57 56 55 56 55 55 54 53 52 50 50 49 49 49 48
31 30 39 45 40 41 43 36 33 29 30 37 51 42 49 60 63 64 64 62 62 60 59 57 56 55 55 56 55 55 55 54 54 54 53 52 52 50 50 50 49 48 47 47
32 32 46 49 45 46 42 33 44 42 46 41 43 47 53 59 57 60 60 61 59 59 58 57 57 56 55 55 55 54 54 53 54 53 52 51 50 50 49 49 48 47 48 52
37 31 43 45 48 46 44 48 39 43 37 33 40 43 45 51 52 57 58 58 58 59 58 58 58 56 56 55 54 54 54 53 52 52 51 51 49 49 49 48 47 47 48 48
38 34 37 41 42 39 41 41 45 49 46 38 35 40 55 55 57 56 57 60 59 59 59 58 58 57 55 54 53 53 52 52 51 51 50 48 48 49 48 47 47 47 47 46
40 36 33 36 46 51 46 46 46 41 39 42 41 40 58 56 58 58 58 61 60 60 59 58 57 55 53 52 52 51 51 51 50 51 49 48 48 47 46 46 46 46 44 45
40 35 33 35 40 46 43 47 49 48 47 41 38 40 58 55 55 57 57 59 60 59 57 57 56 54 52 52 51 51 51 49 50 50 48 47 46 45 44 44 45 45 44 43
49 43 35 34 41 44 42 45 48 47 40 42 43 44 51 53 54 56 57 58 59 59 59 57 55 53 52 52 51 51 49 49 49 48 47 45 44 44 43 43 43 44 43 42
44 39 40 40 49 49 48 47 49 47 49 40 47 50 53 55 54 55 56 58 58 58 58 56 54 52 51 51 50 50 48 48 48 46 45 43 44 44 43 43 43 43 42 42
47 41 47 47 51 50 46 49 50 50 50 50 50 49 60 59 59 56 55 57 58 58 58 56 55 53 52 49 49 49 47 46 47 45 43 44 44 44 43 42 41 40 40 40
47 45 44 40 47 48 40 48 50 52 53 53 47 54 57 56 58 56 56 57 57 57 57 55 54 53 51 50 49 46 45 46 45 44 44 44 44 43 42 41 40 39 38 38
45 43 44 40 40 30 45 51 56 54 55 55 56 56 57 57 54 54 57 57 57 57 57 55 53 52 50 49 48 46 45 44 44 43 43 44 43 41 40 39 38 37 37 36
52 47 39 35 36 45 47 49 48 48 50 56 55 57 53 52 50 48 52 54 53 53 53 53 51 50 48 47 46 45 44 43 43 42 44 43 41 39 38 37 35 36 35 35
50 47 42 36 31 30 43 50 56 54 41 53 55 56 51 51 42 43 49 50 50 50 50 49 49 48 47 46 45 43 42 41 41 42 41 40 40 38 36 35 35 35 35 36
40 40 38 38 34 40 51 51 55 40 42 51 54 54 51 44 46 49 49 48 48 47 47 47 46 45 43 44 44 41 41 39 40 40 40 40 39 37 36 35 34 34 33 33
39 36 37 37 34 32 52 50 45 48 50 52 52 51 47 47 48 47 47 45 45 44 45 46 44 44 44 45 43 40 37 38 39 39 39 38 36 38 39 33 32 33 32 30
40 45 42 41 41 50 51 50 51 55 51 50 49 49 50 47 46 46 44 43 44 44 44 45 44 42 42 42 40 37 37 39 39 37 36 36 36 36 36 33 32 31 31 30
44 47 45 47 45 46 49 50 50 53 51 51 51 50 50 46 46 45 45 44 44 44 43 43 41 39 38 38 39 37 38 38 37 35 34 34 34 35 34 34 33 31 30 30
45 46 45 43 44 46 49 49 50 50 51 50 50 50 49 48 46 46 44 43 43 42 42 42 41 39 37 38 38 37 38 37 34 32 32 33 33 32 31 32 32 31 32 33
48 48 45 45 51 50 47 50 51 49 48 48 48 46 46 46 45 45 43 43 42 41 41 40 39 37 37 37 37 37 37 35 33 31 31 31 30 30 30 29 32 38 39 40

GFSCGP_sfc_temp_021.txt.gz
Temp
48 39 35 39 43 44 42 40 40 47 55 53 52 53 58 62 64 58 58 59 58 59 60 63 63 63 63 63 64 64 65 65 67 64 62 61 56 59 59 60 60 58 58 58
40 36 44 47 47 44 42 38 38 46 53 52 52 52 59 62 61 62 61 59 57 56 58 60 61 60 60 59 59 61 62 62 64 64 60 58 58 56 57 56 57 57 56 55
36 42 49 46 43 41 41 38 39 41 49 52 48 47 53 59 64 64 63 63 61 59 58 57 56 56 56 57 58 59 60 62 63 63 63 60 57 55 53 52 52 53 54 54
40 46 44 42 40 43 35 47 46 45 43 38 48 37 46 55 56 58 59 56 59 58 59 59 56 54 55 54 57 58 60 61 60 61 59 56 53 51 51 51 51 51 52 52
36 41 41 39 41 45 40 48 45 45 41 40 42 38 42 52 55 59 61 54 58 59 60 57 56 56 55 54 54 54 56 56 56 56 55 54 51 50 51 50 50 50 49 50
41 48 45 44 47 47 46 42 42 42 41 32 39 39 40 47 55 59 60 56 57 58 57 56 56 56 53 53 53 53 55 53 54 54 53 52 50 49 48 48 47 47 47 47
36 39 43 46 39 42 41 35 26 28 29 30 44 40 43 51 56 60 57 57 57 57 55 54 53 53 51 51 52 53 53 51 52 52 51 50 48 48 47 46 46 46 46 45
27 24 38 43 40 38 37 36 30 21 29 35 44 36 44 59 57 62 60 59 57 55 55 53 53 52 51 52 51 51 51 50 50 50 49 48 48 47 46 46 45 45 45 44
28 29 43 46 47 45 36 31 43 34 36 35 37 44 50 52 53 56 55 56 54 53 53 53 53 53 51 50 50 51 50 49 50 49 48 47 47 47 45 45 45 44 44 50
36 29 43 43 44 44 43 48 33 32 29 28 36 38 41 46 49 53 54 54 54 54 53 53 53 53 51 51 50 50 50 49 48 48 47 47 46 46 45 45 44 44 44 45
41 33 35 39 36 37 37 35 41 40 36 33 31 37 48 51 53 53 54 55 54 54 54 53 53 54 51 51 50 49 49 48 47 47 46 45 45 45 45 44 43 44 44 43
40 35 30 35 44 49 47 40 42 33 35 39 37 37 51 52 53 55 54 56 55 55 54 54 53 52 51 50 49 49 47 47 47 46 46 45 45 44 43 43 43 43 42 42
40 34 28 34 39 45 41 43 44 40 42 40 34 37 52 50 52 53 53 55 55 54 53 53 51 51 50 49 49 48 46 46 46 46 44 44 43 42 41 41 42 43 42 41
44 37 34 32 37 43 39 41 41 39 37 40 39 41 44 48 51 51 54 55 54 55 54 52 51 50 49 49 48 47 45 46 45 45 43 42 41 41 41 42 42 41 41 40
42 34 37 38 40 43 45 43 43 42 44 40 43 45 47 50 51 51 54 54 54 54 53 52 50 49 49 48 46 46 45 45 45 43 42 41 41 42 42 41 41 41 40 40
43 34 41 42 47 45 43 46 48 47 49 46 47 45 51 49 51 50 52 55 54 54 54 52 51 50 49 48 46 47 44 43 43 42 41 42 42 42 41 40 40 39 38 38
42 40 40 36 45 45 38 45 46 48 49 51 45 51 51 51 53 52 51 56 54 54 52 52 52 51 49 48 47 44 43 43 42 41 42 42 42 41 41 40 38 37 36 35
43 41 43 38 39 29 45 51 52 50 51 51 51 54 52 50 46 47 49 53 54 54 54 53 52 49 48 46 45 44 43 42 41 41 41 42 42 41 39 37 36 34 34 33
47 42 40 34 34 40 44 47 46 46 46 50 51 52 50 48 47 45 47 49 50 51 51 49 49 47 46 45 44 43 42 40 40 40 40 41 40 38 37 35 33 33 32 32
49 48 40 33 28 29 42 48 50 49 39 48 48 50 49 48 43 41 44 47 46 47 48 46 46 45 44 44 45 42 40 39 39 40 40 40 39 37 34 33 32 32 32 32
40 40 33 35 33 36 47 50 51 38 40 48 48 50 48 45 44 44 45 43 44 45 45 45 45 43 42 42 42 40 38 38 39 39 39 39 37 35 34 33 32 31 30 30
38 37 36 37 34 30 48 47 42 46 46 45 44 45 43 43 44 43 43 43 43 42 42 43 42 41 41 42 41 37 35 37 38 38 38 36 34 36 38 32 31 31 29 27
39 43 39 40 42 49 47 47 49 50 48 44 44 45 45 43 42 42 41 41 42 42 41 43 42 40 38 38 38 35 35 37 37 36 34 33 34 34 33 32 31 29 28 27
42 45 42 43 45 43 46 47 49 49 47 47 47 46 46 42 42 41 41 41 42 43 41 41 39 37 35 36 37 36 36 36 35 33 32 32 31 33 31 31 30 29 27 26
42 45 43 41 41 43 45 46 47 46 47 46 46 46 45 44 42 43 42 41 41 40 40 39 38 36 35 35 35 35 35 35 32 31 31 30 30 29 28 29 29 29 29 31
44 44 42 42 48 47 45 47 48 48 46 47 46 43 43 45 43 42 41 41 40 39 39 37 36 34 33 33 33 34 34 33 31 30 29 28 28 27 27 26 28 35 37 38

GFSCGP_sfc_temp_024.txt.gz
Temp
45 37 35 40 40 41 40 37 36 40 49 46 48 50 55 59 58 56 56 55 56 57 57 60 61 60 60 61 61 61 61 62 64 62 60 56 54 60 59 59 57 55 55 54
41 36 42 44 43 41 40 37 37 42 48 48 47 46 52 57 59 60 61 58 56 54 56 58 58 57 59 58 58 59 60 60 61 61 57 57 55 57 55 54 53 53 53 53
35 41 47 44 41 38 39 37 38 39 44 47 46 43 48 55 58 61 63 63 57 58 56 55 54 54 54 55 56 58 58 59 60 60 60 58 57 53 51 50 49 50 51 51
41 45 43 41 39 41 34 44 43 41 39 30 44 33 43 49 54 57 61 57 57 58 56 55 53 52 53 53 55 57 59 59 60 60 59 58 54 51 48 48 48 48 50 49
35 38 39 38 40 45 38 46 42 41 37 37 38 34 39 49 48 54 59 60 58 57 57 55 54 55 53 53 53 54 56 56 55 55 56 54 50 48 48 47 46 47 47 48
40 47 45 43 46 46 45 41 40 37 35 29 36 36 37 43 49 55 59 56 57 56 56 53 53 53 51 51 51 52 54 52 53 53 51 51 49 47 47 45 44 45 45 45
36 37 43 46 41 44 43 36 26 24 24 24 39 35 39 47 52 57 59 54 54 56 53 51 52 51 51 51 50 52 52 49 50 50 50 48 47 47 46 45 44 44 44 43
30 27 36 43 42 38 37 36 26 17 20 26 40 32 41 52 57 60 58 58 55 53 53 53 52 51 51 51 49 50 50 48 49 49 47 46 46 45 45 44 44 43 43 43
29 29 43 44 45 44 35 31 40 29 33 28 33 38 48 52 51 52 53 53 52 52 52 51 51 51 51 50 49 49 49 47 48 47 46 45 45 45 44 43 43 43 43 47
34 24 38 41 44 44 41 42 29 30 20 22 34 32 40 48 49 48 50 50 51 51 51 50 51 51 50 50 47 47 49 48 46 46 46 45 44 44 43 43 42 42 42 42
38 31 32 38 34 35 35 32 36 36 33 24 27 35 52 53 53 48 50 51 50 50 50 50 51 51 49 49 48 47 47 46 45 45 44 43 43 43 43 42 42 42 41 41
42 35 28 33 44 44 38 37 37 31 30 34 32 35 50 51 53 53 52 52 51 51 51 50 51 49 48 48 47 46 45 45 44 44 43 43 42 42 41 41 41 41 40 40
40 33 27 31 36 40 35 40 38 43 40 33 31 36 50 48 49 52 50 50 51 50 50 50 49 49 48 47 46 46 45 44 44 44 42 42 41 40 40 40 41 41 40 39
43 36 32 29 34 41 36 39 43 39 32 34 32 39 43 46 48 47 49 50 50 50 50 49 49 48 47 47 46 45 43 44 43 43 41 40 40 40 39 40 40 40 39 38
40 34 36 37 37 37 41 41 41 33 38 33 41 44 44 49 49 49 51 50 50 49 49 49 48 47 46 45 45 45 44 43 43 41 40 40 40 40 40 39 39 39 38 38
42 33 33 32 38 38 37 41 42 38 37 36 38 47 54 48 47 46 48 50 50 50 50 50 49 47 46 46 45 45 43 42 42 40 39 40 40 40 39 39 37 37 36 36
39 35 34 34 42 40 36 42 36 37 42 39 42 49 47 48 50 47 48 52 51 51 50 49 48 48 48 45 45 43 42 41 40 39 40 40 40 39 39 38 37 36 34 33
40 38 39 36 39 28 45 49 51 47 50 50 50 50 49 49 44 45 46 51 51 52 51 50 50 48 46 45 44 42 42 40 39 39 39 40 39 39 37 36 34 33 33 32
46 40 36 33 32 38 43 46 44 44 45 46 49 48 46 46 46 44 44 47 49 50 51 51 49 46 44 43 43 42 40 39 39 38 39 39 39 37 35 34 33 32 32 30
46 46 39 31 28 30 41 47 48 47 37 45 46 46 46 47 43 43 41 43 44 45 46 45 44 44 42 42 43 41 38 37 37 39 39 38 37 36 34 32 32 31 30 29
39 37 34 32 32 35 45 47 47 35 39 45 45 47 47 45 43 42 41 41 43 43 42 44 44 42 41 41 41 38 36 37 38 37 37 37 36 34 33 32 30 29 28 28
38 37 35 34 29 27 46 48 41 45 43 42 41 41 40 41 41 41 41 41 41 40 41 42 40 39 39 40 40 36 35 35 36 36 36 35 33 35 35 31 30 30 27 25
35 41 37 39 37 45 44 44 46 47 45 42 40 42 43 41 41 41 39 39 39 40 40 41 40 37 36 36 38 34 33 35 35 34 32 32 32 32 31 30 29 28 26 25
39 43 40 41 42 42 45 46 47 47 44 43 44 44 44 40 41 39 39 39 39 39 38 39 38 35 33 34 35 34 34 35 33 31 30 29 29 31 28 28 29 27 25 24
41 43 42 41 40 42 44 44 44 43 44 43 43 44 42 41 40 40 39 38 38 38 37 38 36 34 32 33 33 33 33 33 31 29 29 29 29 27 27 27 26 27 27 29
42 43 42 40 47 47 45 45 46 45 43 43 43 41 42 43 41 40 39 39 39 37 37 35 33 33 31 32 31 32 32 31 30 29 29 27 27 26 26 25 25 33 36 37

GFSCGP_sfc_temp_027.txt.gz
Temp
43 36 34 38 39 39 37 35 33 39 47 42 42 44 48 53 54 56 53 55 59 56 58 59 59 58 58 58 60 59 59 60 63 61 59 57 58 58 58 59 59 57 53 52
38 35 40 43 41 40 37 35 36 40 45 43 41 41 48 51 52 55 56 57 59 54 55 58 57 55 57 57 57 57 58 59 60 60 56 55 54 54 56 56 55 52 51 51
35 39 46 42 39 37 36 35 38 38 43 44 40 39 45 52 55 56 58 60 61 58 55 55 54 54 54 55 55 56 56 57 57 58 58 57 58 56 54 53 48 48 49 49
38 44 41 39 37 38 32 41 41 39 36 29 38 27 40 44 49 54 56 58 59 54 57 57 52 52 53 53 54 55 57 57 58 59 58 58 55 52 50 46 45 46 48 47
35 36 37 36 39 43 38 45 40 39 34 31 34 28 33 44 45 50 50 56 56 55 56 54 54 54 53 52 52 53 55 55 55 55 56 54 50 49 45 45 44 45 45 46
39 44 42 40 45 45 45 41 40 38 33 25 33 31 34 40 45 48 51 53 55 56 56 54 51 52 50 50 51 52 54 51 52 53 52 52 50 47 46 43 43 43 43 43
36 37 40 44 39 44 42 35 25 24 24 22 35 31 36 44 46 49 52 54 54 53 52 50 50 50 49 50 50 51 53 49 50 50 49 49 48 48 45 43 42 42 42 42
30 28 36 41 40 37 35 35 27 19 19 21 38 29 38 48 54 57 58 57 53 52 52 52 52 51 50 50 50 50 50 48 48 48 46 45 46 45 43 43 42 42 42 41
29 26 38 41 44 42 34 30 39 30 31 26 30 35 43 50 49 49 51 51 49 50 51 52 51 50 50 49 48 49 48 47 47 46 45 43 43 44 43 42 42 41 41 45
35 24 36 39 44 43 38 41 29 30 19 17 26 29 35 41 48 53 49 49 49 50 51 50 50 49 49 47 46 47 48 47 45 44 45 43 42 42 42 42 41 41 41 41
40 32 29 36 34 33 35 32 34 34 28 18 21 29 45 48 53 51 47 47 48 49 49 49 49 49 47 46 46 45 46 45 44 44 43 42 41 41 41 41 40 40 40 40
41 34 27 33 41 45 42 37 36 28 24 29 29 31 47 45 48 50 47 48 48 49 49 49 48 47 47 46 45 44 44 44 43 43 42 41 41 40 40 40 40 40 39 39
40 33 27 29 35 39 34 36 38 38 37 28 24 31 46 50 46 48 47 48 48 47 47 47 46 46 45 44 44 44 43 43 42 43 41 40 39 39 38 38 39 39 38 37
44 35 32 27 34 34 32 35 36 34 29 32 33 38 46 50 48 47 47 48 47 47 47 47 46 45 44 44 44 43 41 43 42 41 40 39 38 38 38 38 38 38 37 36
40 32 35 35 37 38 35 36 36 32 37 32 39 39 45 49 49 48 48 47 46 46 46 46 45 44 43 42 42 43 42 42 41 40 39 38 38 38 38 38 37 37 36 35
40 32 32 32 37 36 35 37 38 38 38 39 40 39 52 49 49 46 47 48 47 46 47 47 46 45 43 43 43 43 41 40 41 39 38 38 38 38 37 37 36 35 35 34
37 34 33 30 38 37 32 36 37 40 43 41 33 41 47 48 49 47 47 49 48 48 47 47 46 46 45 44 44 41 41 40 39 38 38 38 38 38 37 37 36 35 33 31
38 35 35 32 36 29 40 44 44 40 41 41 42 44 47 51 45 47 48 50 49 49 48 48 47 45 44 43 43 41 41 40 38 37 38 38 38 37 37 35 33 31 31 31
45 40 35 34 32 38 42 44 39 38 39 43 41 46 48 46 46 45 45 48 47 49 49 48 47 44 43 42 42 41 38 38 38 37 37 38 37 36 34 32 31 31 30 29
45 44 37 35 29 28 38 44 47 47 37 47 48 49 46 46 45 46 41 44 45 47 47 44 43 43 41 41 42 40 37 37 36 37 37 37 36 34 32 31 31 30 28 28
35 38 35 34 32 34 43 46 46 35 38 43 45 46 45 45 41 38 40 40 41 43 41 42 43 41 40 41 41 37 36 36 36 36 36 35 33 32 31 30 29 28 27 26
36 36 35 32 29 27 44 46 40 43 41 41 40 41 39 38 39 39 39 39 40 39 39 40 39 37 38 40 40 36 35 35 35 35 34 32 31 34 34 30 29 28 25 24
34 40 35 36 36 44 43 43 44 45 43 39 38 40 41 39 38 38 37 37 38 38 38 39 38 36 35 36 39 35 32 34 33 32 30 29 30 30 30 29 28 27 24 23
37 41 38 40 40 40 42 44 45 44 41 40 41 42 43 38 38 37 38 38 38 38 37 38 38 35 32 33 34 33 33 33 32 29 28 28 29 28 27 28 29 26 23 23
40 40 39 39 42 42 42 43 44 42 43 42 42 42 41 41 39 39 37 37 36 36 37 37 36 34 31 32 31 31 32 31 29 28 29 27 27 26 26 26 25 26 26 27
41 41 40 40 47 47 45 45 43 43 42 42 41 40 41 42 39 39 37 37 36 35 35 34 32 32 30 30 30 30 31 30 29 28 28 27 26 24 25 24 25 33 35 36

GFSCGP_sfc_temp_030.txt.gz
Temp
43 36 35 39 40 43 40 35 36 40 45 40 40 42 46 51 50 49 52 55 53 55 61 59 60 58 57 58 57 57 58 59 62 60 59 59 55 57 58 58 58 57 56 52
37 33 39 42 40 38 38 36 37 40 44 41 40 40 46 48 49 52 52 54 54 56 54 57 57 55 56 57 56 56 56 58 60 61 55 55 55 54 56 55 55 55 54 50
33 37 44 41 37 35 34 32 33 34 40 42 39 37 43 50 52 53 55 56 57 56 56 54 54 54 54 54 55 55 55 55 56 56 56 55 55 55 53 53 52 51 49 47
36 42 41 37 35 36 32 39 39 37 33 27 36 26 36 42 46 48 51 53 54 56 54 55 54 52 53 54 54 53 54 54 56 58 57 57 55 54 53 51 50 49 46 45
35 35 35 35 37 39 35 42 38 37 33 30 32 29 31 39 40 44 46 48 52 57 56 55 54 57 53 52 51 51 53 54 53 55 57 55 51 51 50 49 47 43 43 44
40 43 41 38 42 43 44 40 39 37 33 26 33 29 32 37 42 45 47 49 53 55 51 55 54 52 50 50 50 51 53 50 51 53 53 55 52 50 48 46 43 41 41 41
37 38 43 44 37 42 40 34 26 24 24 22 33 29 35 42 45 47 48 49 50 51 50 48 49 50 49 49 49 51 52 49 51 55 54 53 52 50 46 43 42 41 41 40
30 24 37 42 39 34 36 34 27 20 20 19 33 26 35 45 50 53 54 53 50 49 47 49 51 52 50 50 50 52 51 48 51 51 48 47 48 46 44 43 42 41 40 40
29 27 37 40 42 42 34 30 38 29 29 25 27 32 41 46 45 48 47 50 51 49 47 48 50 51 50 50 50 50 49 47 47 46 46 44 44 44 42 41 41 40 40 42
36 27 35 38 40 42 39 40 29 29 21 19 23 25 31 38 45 49 47 50 47 47 46 48 49 49 49 48 47 48 49 47 45 45 45 44 42 42 41 41 39 39 39 39
40 33 29 36 33 33 34 32 33 32 28 17 20 26 38 42 46 45 49 51 47 46 48 48 47 47 46 46 47 46 46 45 44 44 43 42 41 41 40 40 39 38 38 38
40 34 28 32 42 44 41 36 35 27 24 27 23 29 46 43 44 47 48 47 44 46 46 46 45 45 46 44 45 45 45 44 43 43 42 41 40 40 39 38 38 38 37 37
39 32 24 28 34 40 33 36 39 38 37 27 21 29 47 48 48 46 44 43 44 44 44 43 44 45 43 43 43 43 44 42 42 42 41 39 38 38 37 37 37 37 37 36
45 35 31 27 34 33 31 34 35 33 28 29 29 34 41 46 48 47 42 43 43 44 44 44 44 43 43 43 42 42 41 42 41 41 40 38 37 37 36 36 37 37 36 35
41 32 34 35 37 36 34 34 34 31 33 29 36 36 41 47 47 44 45 44 44 45 44 44 42 42 41 41 41 41 41 41 41 40 39 37 36 36 36 36 36 36 36 36
41 32 33 31 37 35 33 35 36 35 35 34 37 36 47 47 47 47 42 44 45 45 46 45 44 42 41 41 41 41 40 39 41 39 37 37 37 36 35 35 35 35 35 34
36 34 33 30 36 34 32 35 36 36 38 37 32 41 48 44 46 48 45 47 47 47 46 45 44 43 42 42 42 40 40 39 39 38 37 37 36 36 35 35 35 34 33 31
37 35 34 31 34 29 39 44 43 39 42 43 44 46 46 46 48 46 47 47 46 47 47 45 44 43 42 42 41 40 40 39 38 37 37 36 36 35 35 35 33 33 31 29
43 39 33 32 32 36 41 41 38 36 37 44 44 45 47 44 44 42 44 47 47 48 48 46 45 43 42 41 41 40 38 37 37 36 36 36 35 35 34 33 32 29 28 27
44 43 36 33 30 28 40 44 45 44 38 43 44 45 43 44 40 42 42 45 47 47 46 43 42 42 41 40 41 39 36 36 35 35 35 35 35 34 32 30 29 28 27 27
36 37 34 35 32 34 43 45 45 35 37 45 45 45 44 42 44 40 42 40 42 43 41 42 42 41 39 40 41 37 36 35 35 36 35 34 33 31 29 28 27 26 26 25
35 35 35 35 31 26 44 44 38 42 41 41 40 42 43 39 39 39 39 39 40 39 39 40 38 37 38 40 40 36 34 33 35 34 32 31 30 33 32 28 28 27 24 23
33 38 35 36 35 43 42 42 44 44 42 38 38 39 40 37 36 37 36 37 37 37 37 38 37 36 35 37 39 34 31 33 32 30 29 28 29 29 29 29 27 25 23 22
36 40 37 39 40 40 42 43 42 42 39 39 40 40 40 36 36 35 36 36 36 36 36 37 37 35 32 34 34 33 32 32 31 28 27 27 27 26 26 27 28 25 23 22
39 40 39 38 41 41 43 40 39 39 41 41 41 41 39 39 37 36 35 35 36 36 37 38 36 33 31 33 31 31 31 31 29 27 27 26 26 25 25 25 24 25 25 26
39 41 39 39 45 44 42 42 42 41 40 41 40 39 40 40 37 37 36 37 36 35 35 33 32 31 30 30 29 29 30 29 28 27 27 26 25 23 24 23 24 32 34 36

GFSCGP_sfc_temp_033.txt.gz
Temp
45 39 35 40 41 42 40 37 37 44 48 43 44 44 48 53 53 53 55 56 58 59 64 67 67 68 67 66 66 66 65 66 66 65 64 62 59 61 60 60 59 58 58 56
39 35 42 43 42 40 40 37 39 44 47 43 42 41 47 50 52 54 55 56 58 61 62 63 64 65 65 67 65 64 65 64 66 67 64 62 58 58 58 57 57 56 54 53
35 40 44 42 38 36 36 34 35 36 41 44 41 38 46 52 54 55 56 58 59 60 60 63 63 63 63 63 62 62 62 63 63 60 59 57 56 56 55 55 53 52 53 52
37 43 41 38 36 38 32 40 39 37 34 29 39 29 43 48 50 53 54 55 56 58 60 63 62 62 61 62 61 61 60 60 60 61 60 60 58 56 55 52 51 51 52 51
35 37 36 36 38 40 37 42 39 38 34 33 34 30 39 43 42 47 52 53 54 58 59 60 62 62 63 60 59 59 59 60 60 61 62 61 57 54 51 51 49 49 49 51
39 44 42 39 42 43 44 39 39 38 34 27 35 32 36 42 45 48 53 55 54 56 58 61 61 61 59 57 57 57 57 57 58 60 60 59 53 51 49 49 47 49 49 50
39 39 44 44 38 41 41 34 26 25 25 25 36 31 37 46 51 50 51 53 55 56 55 55 55 55 55 55 55 55 56 54 57 58 58 57 55 54 51 49 47 47 48 48
29 26 37 43 40 36 36 34 27 20 22 25 33 28 38 47 52 54 55 55 55 54 55 54 55 55 56 55 54 56 55 53 56 57 56 56 54 52 50 49 49 50 49 48
30 29 38 40 42 42 34 31 39 30 32 26 31 36 43 47 46 49 50 51 52 55 55 54 54 55 55 54 55 55 54 54 55 53 52 51 50 49 48 49 50 49 48 47
36 25 35 38 41 42 38 41 29 29 21 20 28 28 33 40 47 51 50 50 52 54 53 53 53 54 54 55 54 54 54 53 52 51 51 49 49 50 49 49 47 47 47 47
40 33 30 37 33 34 35 32 33 33 31 24 24 31 42 44 47 47 48 49 49 51 52 52 52 52 51 51 52 51 50 50 49 49 48 48 48 47 48 47 47 46 46 46
39 35 28 30 39 42 41 37 36 28 27 29 27 30 48 46 47 48 48 49 48 48 49 49 48 47 48 49 49 50 51 49 47 48 48 47 46 46 46 45 45 46 45 45
39 32 25 27 33 39 34 38 39 35 34 27 25 32 49 47 47 49 48 49 46 45 44 44 46 47 47 47 48 50 48 46 46 46 46 45 45 45 44 44 44 44 44 43
45 35 29 26 34 36 31 34 37 33 28 30 29 34 43 46 46 49 50 48 45 44 44 44 45 45 46 47 47 47 45 46 45 46 45 44 44 44 44 43 43 43 43 42
40 32 34 35 37 38 34 33 34 31 33 28 35 32 39 44 47 48 48 48 44 43 43 44 43 44 44 44 46 46 45 44 45 44 44 42 42 42 42 41 41 41 42 41
42 33 33 32 37 38 32 35 35 34 34 33 35 34 46 48 48 47 49 47 45 44 44 43 43 44 44 44 44 44 44 44 45 43 41 41 41 41 40 40 40 40 39 39
38 34 32 30 39 36 32 36 37 36 37 37 31 40 46 46 48 47 48 47 47 47 45 44 44 44 44 44 45 43 43 44 43 41 41 41 41 40 39 39 39 39 38 38
38 35 34 30 34 28 39 45 43 40 39 40 41 43 47 48 49 48 48 47 48 47 45 45 45 43 44 45 44 43 43 42 41 40 40 40 40 39 39 39 38 38 38 37
42 38 33 31 32 38 42 43 41 38 39 44 41 45 48 46 45 45 46 48 48 48 47 46 46 44 44 43 43 42 41 41 40 40 40 39 39 38 38 37 37 36 36 35
43 43 36 33 29 27 39 45 46 45 38 44 45 45 44 45 40 43 42 46 46 47 46 44 44 44 43 43 43 42 40 40 39 39 38 39 39 38 37 37 35 34 34 34
36 36 33 33 32 34 43 44 44 36 39 44 45 46 45 43 42 41 42 41 44 45 43 44 44 43 42 43 43 40 40 38 38 38 38 38 37 36 36 35 34 33 33 32
36 35 35 35 32 28 42 44 39 43 43 43 43 45 44 40 39 39 39 39 41 40 40 41 40 40 42 43 42 39 36 37 38 37 36 35 35 37 35 34 33 32 31 31
32 37 37 37 36 43 43 44 44 42 41 40 40 41 42 39 37 38 37 37 38 38 38 40 39 38 39 41 41 36 35 37 36 34 33 33 34 34 34 34 32 32 30 29
36 39 37 40 43 42 44 43 41 41 39 39 39 39 40 36 36 36 36 37 37 38 37 39 38 36 34 37 37 36 36 36 34 32 31 32 32 31 31 32 33 31 30 29
38 39 39 38 42 42 42 41 40 40 40 40 39 39 37 37 35 36 35 36 36 37 38 38 36 34 33 35 34 35 34 34 32 31 31 31 30 30 30 31 30 31 31 31
38 40 39 39 45 44 43 42 42 41 40 40 40 38 39 39 37 37 36 36 36 35 35 34 33 33 32 33 32 32 33 33 32 31 31 30 30 29 29 29 29 33 35 35

GFSCGP_sfc_temp_036.txt.gz
Temp
52 46 42 48 51 52 48 47 46 52 55 52 51 52 56 61 62 62 64 66 68 70 75 77 78 80 81 81 82 82 81 80 80 78 77 77 74 68 70 70 69 65 64 62
45 40 51 52 51 47 46 44 45 51 54 51 50 49 56 58 59 62 63 66 68 70 73 76 77 79 79 80 81 81 79 79 78 78 76 76 71 62 61 63 64 66 62 58
44 47 50 47 46 43 44 43 45 44 50 51 48 47 55 62 64 64 65 66 67 68 70 73 77 76 78 78 79 78 78 76 76 76 75 68 64 59 58 59 59 61 60 56
45 52 46 44 43 46 40 49 45 44 41 37 46 37 51 58 60 62 65 67 67 68 70 71 73 75 78 78 77 76 76 74 74 72 68 66 66 59 59 60 57 53 54 53
42 43 42 41 44 48 42 48 45 44 41 39 41 31 47 54 53 57 63 67 69 69 70 70 71 72 76 76 74 73 73 72 70 70 71 70 67 65 61 58 55 52 54 56
47 50 48 48 49 49 48 44 43 43 38 29 41 37 43 53 57 60 63 65 68 69 70 70 72 72 73 74 71 70 70 69 69 70 70 70 65 59 57 55 49 49 52 58
43 44 49 49 42 47 44 36 31 28 26 30 46 42 44 56 58 60 62 66 67 69 69 69 69 69 69 70 68 68 68 67 68 69 69 68 62 59 59 56 50 55 53 57
35 34 44 47 43 41 38 38 33 26 33 37 42 35 47 60 62 63 65 64 65 67 69 68 69 68 69 68 68 67 67 66 67 67 67 64 60 60 54 53 52 55 55 56
34 33 45 47 48 47 37 32 44 33 36 30 38 47 55 59 58 59 61 63 62 64 66 67 69 68 69 68 68 67 67 65 66 66 65 60 58 54 55 51 53 54 57 57
41 32 43 44 46 46 43 47 31 32 24 26 38 41 43 51 54 58 59 60 61 63 65 67 67 68 68 68 67 67 67 65 65 65 64 59 54 52 51 52 51 54 57 56
44 38 37 39 36 39 37 33 35 39 37 29 31 41 54 54 57 57 59 59 61 61 63 63 65 67 66 66 65 64 64 63 62 62 60 56 52 51 52 54 55 57 56 56
46 39 31 38 48 50 48 43 41 30 31 33 32 35 55 58 59 57 57 60 61 61 59 60 62 63 62 61 62 62 61 60 59 58 56 53 51 53 55 56 56 56 55 55
46 35 30 39 39 44 37 42 43 41 37 30 27 34 52 55 54 57 58 60 61 59 56 55 56 57 59 59 59 60 59 56 56 55 52 50 51 54 55 54 55 55 54 53
48 41 36 34 39 42 33 37 39 34 29 34 34 39 47 48 51 56 58 59 60 58 53 54 54 56 58 58 57 56 52 51 51 50 50 50 54 54 53 53 52 53 53 51
44 33 39 40 42 41 37 36 36 32 34 30 38 38 43 48 49 54 57 57 56 54 50 51 52 54 54 52 51 49 48 49 49 48 48 49 53 52 51 50 51 51 51 50
44 34 35 32 41 40 33 38 37 36 36 34 35 36 50 54 56 55 56 56 53 50 50 51 51 52 49 48 47 46 46 47 48 46 46 49 50 49 49 49 49 48 47 47
41 35 33 32 39 39 35 38 38 39 39 38 33 44 52 50 50 51 50 51 52 51 49 50 50 48 48 47 47 45 46 48 47 46 48 49 49 47 48 48 48 46 46 46
40 35 34 32 35 29 45 49 46 41 43 42 45 48 50 48 50 52 51 50 51 51 50 51 48 46 47 48 48 47 48 48 48 48 48 48 48 46 47 47 46 46 46 45
48 40 34 31 32 40 47 49 45 38 39 45 43 46 48 50 51 48 48 52 53 53 52 52 48 47 50 50 51 51 50 49 48 47 47 47 47 46 46 45 46 45 44 44
44 42 35 34 30 31 47 51 50 47 36 42 44 44 46 48 48 47 48 49 47 52 52 50 51 52 52 51 52 50 48 48 45 45 46 47 48 47 46 45 43 43 44 43
36 36 33 34 32 41 53 53 51 41 40 48 45 46 47 46 45 45 49 49 46 48 50 51 51 50 49 50 50 46 47 44 45 46 47 46 47 45 44 43 43 42 42 42
40 37 35 36 35 33 51 55 47 51 52 51 50 48 45 45 43 43 43 43 45 46 47 47 44 44 47 48 48 47 44 44 44 44 43 42 43 43 43 41 41 41 41 41
41 47 45 45 47 53 53 53 54 51 49 49 47 48 45 42 41 41 42 44 43 43 44 47 47 46 48 49 46 41 41 42 42 41 40 42 42 42 42 41 40 41 40 39
48 49 47 47 54 53 53 53 49 48 46 45 46 47 48 42 42 41 42 42 43 44 44 46 45 44 44 44 41 40 41 41 41 41 41 41 41 40 40 41 40 40 39 38
52 48 47 48 53 55 51 50 48 46 46 45 46 46 45 43 42 42 40 40 41 42 43 45 43 42 41 42 40 40 41 43 42 41 40 40 40 40 39 39 39 39 39 37
50 51 48 50 54 53 52 49 48 46 44 45 44 42 44 44 41 42 40 41 40 40 41 40 40 40 40 41 40 41 43 43 42 40 40 40 39 39 39 39 38 35 34 35

GFSCGP_sfc_temp_039.txt.gz
Temp
56 49 46 53 56 57 56 51 51 57 61 56 55 56 61 66 66 65 67 69 71 73 78 81 81 83 84 86 86 86 86 86 85 84 82 82 81 71 70 72 76 73 72 69
47 42 55 58 56 53 51 48 49 55 59 55 54 53 60 63 64 66 66 67 69 71 75 78 80 81 81 82 84 84 85 85 84 84 83 82 71 65 65 69 71 69 68 67
46 51 54 53 50 47 48 46 48 48 54 56 52 50 58 66 67 68 69 69 70 70 72 76 78 80 81 81 82 83 84 84 83 82 82 79 66 62 59 61 60 63 63 64
50 56 50 49 47 49 43 53 50 48 44 41 51 39 53 61 64 67 68 69 70 71 73 74 76 78 80 80 80 81 83 82 81 80 77 73 65 60 58 56 58 59 61 61
45 47 47 45 47 52 46 50 47 47 43 41 44 38 49 61 58 61 66 68 71 73 74 74 75 75 77 79 78 79 81 80 79 78 76 70 67 66 61 55 56 55 55 57
51 55 51 51 52 52 51 47 44 43 39 30 43 43 46 55 61 64 68 69 70 72 73 74 75 76 76 76 77 77 77 77 77 75 72 70 70 63 56 54 52 52 55 57
44 46 51 53 45 49 47 38 33 30 28 31 50 46 48 59 63 63 64 68 70 71 71 72 73 73 73 73 73 75 74 74 74 71 73 72 70 63 58 55 51 51 53 55
35 35 47 49 45 43 42 40 34 28 35 40 50 39 49 63 66 66 67 68 69 69 71 70 71 72 72 72 73 73 72 72 72 71 72 73 66 63 59 57 57 57 55 54
37 36 50 50 51 49 41 33 45 35 38 33 41 50 58 62 63 65 65 66 65 68 69 69 71 72 73 72 72 72 72 72 71 71 72 68 65 62 59 58 58 56 58 57
43 34 46 48 50 50 46 50 33 33 25 28 41 45 48 55 59 62 63 64 65 66 67 68 69 70 73 73 73 73 72 70 70 70 69 65 62 57 55 56 53 53 54 57
47 41 39 44 39 41 40 36 39 42 38 31 33 42 55 52 55 57 61 65 64 65 65 66 66 68 72 73 71 71 71 68 68 67 64 61 57 55 54 52 52 53 54 55
48 41 33 41 50 52 50 42 41 30 34 36 33 36 56 56 57 58 58 62 64 65 66 64 63 66 69 69 69 69 68 67 66 65 60 56 55 53 53 53 53 55 54 57
48 37 31 37 42 49 42 45 46 43 38 30 28 37 55 57 56 55 54 58 64 64 65 62 61 62 65 65 66 66 65 64 63 61 57 54 53 53 52 51 54 54 56 55
51 42 37 36 40 44 35 42 44 35 30 35 36 40 49 51 52 49 54 57 60 63 62 59 58 60 63 63 63 63 62 61 59 57 55 53 52 53 53 53 55 55 54 53
47 35 41 43 45 45 42 40 41 34 35 30 36 36 45 49 52 52 53 56 58 60 59 57 56 59 60 60 61 59 57 57 57 55 53 52 52 52 52 53 53 53 52 51
45 35 36 33 42 43 37 43 42 38 38 36 37 36 49 54 55 53 55 56 58 57 55 55 55 57 56 55 54 52 52 52 51 51 49 49 50 50 51 50 50 50 48 49
42 35 33 32 42 42 36 40 40 40 43 40 34 45 53 51 51 49 48 49 51 53 52 52 53 53 51 49 49 48 49 48 47 46 47 47 48 48 49 49 49 47 47 48
42 37 34 32 38 31 47 54 51 44 43 44 46 49 50 48 49 47 48 49 50 53 50 52 51 49 48 47 47 47 47 46 45 45 46 46 46 46 48 48 47 47 47 46
49 42 34 31 34 43 50 52 48 43 39 44 42 46 48 51 50 43 47 50 51 52 53 51 50 47 46 46 47 47 46 45 45 44 44 46 48 48 48 46 46 46 46 45
49 47 36 36 30 32 50 56 54 49 40 46 43 46 48 49 43 39 44 46 51 50 47 46 47 46 45 44 47 45 43 44 43 47 49 50 49 48 47 46 44 45 45 44
37 36 32 33 31 42 56 56 55 42 43 52 45 45 49 45 45 47 44 42 46 45 43 45 45 43 43 45 46 46 48 47 48 49 49 48 47 46 45 44 44 44 43 43
41 37 34 34 32 33 56 57 48 53 55 54 49 46 44 45 44 44 45 43 45 48 51 52 51 51 53 53 51 47 44 45 46 45 44 44 44 45 44 42 41 42 42 42
43 50 41 43 46 60 61 57 58 54 52 52 50 46 44 41 42 43 40 40 41 44 44 46 45 46 48 48 45 42 43 44 42 42 42 43 43 43 42 41 40 41 41 41
53 56 49 49 56 58 60 60 55 52 50 50 51 52 50 45 44 44 45 45 45 46 47 48 47 45 42 43 42 41 41 42 42 42 42 42 41 41 42 41 40 40 40 39
54 53 52 52 57 59 55 53 52 50 50 49 50 51 48 46 44 44 44 44 45 46 47 48 45 42 40 40 39 41 42 44 42 42 41 41 41 41 40 40 40 39 40 37
56 53 51 51 56 55 53 53 51 49 47 48 47 46 48 47 44 45 43 44 44 44 45 43 41 39 39 40 40 43 45 44 42 40 41 41 40 40 40 39 39 36 36 35

GFSCGP_sfc_temp_042.txt.gz
Temp
54 46 41 46 50 51 52 48 46 51 58 52 50 52 55 60 60 60 61 62 64 66 70 71 72 72 72 74 74 79 74 75 77 70 72 73 73 69 71 70 72 69 66 64
46 40 51 55 55 51 49 44 43 50 56 51 48 48 54 58 59 60 61 62 63 64 66 70 70 69 71 71 72 73 74 73 76 76 71 70 63 63 64 66 66 65 61 60
43 48 55 51 49 46 44 41 42 43 49 50 47 43 49 57 59 61 63 64 65 64 65 67 69 69 69 73 72 73 73 73 73 72 69 61 59 57 56 58 57 59 57 57
46 53 51 47 46 47 39 50 49 46 40 32 45 29 43 51 54 58 57 58 60 62 65 67 68 66 67 72 73 73 72 72 71 72 69 63 62 58 53 55 55 56 56 57
43 47 46 44 47 50 44 49 46 44 38 35 37 30 38 49 50 54 56 57 60 61 62 63 64 67 67 66 63 70 72 70 70 74 71 63 59 54 54 53 54 53 54 56
48 54 50 49 52 51 51 45 42 40 35 25 35 35 34 44 49 53 56 56 62 61 59 61 62 64 63 63 63 64 66 68 68 68 67 62 59 53 51 52 50 49 52 54
43 45 50 52 45 49 47 39 23 23 24 21 43 36 40 52 56 57 56 54 58 59 58 59 60 60 61 62 61 63 64 65 66 65 63 62 60 54 50 50 49 51 51 53
33 32 45 49 44 41 41 38 23 20 22 27 41 31 40 55 59 58 58 57 59 58 58 57 57 60 60 61 61 62 63 63 64 64 62 62 57 53 52 52 51 51 52 52
36 35 49 49 50 47 39 31 40 31 31 21 31 39 49 57 56 57 55 58 56 57 58 55 58 59 60 60 61 61 62 63 62 62 63 59 57 54 52 50 52 51 52 55
43 32 45 48 50 49 44 46 31 27 13 19 31 35 39 44 47 52 52 53 56 57 57 57 57 58 60 63 61 62 62 62 61 62 61 59 56 54 53 53 51 54 55 55
46 37 37 42 37 36 38 36 38 37 33 20 23 32 45 47 47 50 53 56 55 55 56 56 56 58 59 61 60 60 61 63 61 60 60 52 51 52 53 53 54 54 53 54
47 39 30 35 46 47 45 40 37 28 26 30 25 31 53 50 50 51 51 55 55 55 56 56 54 55 56 58 59 59 63 64 59 57 53 50 50 51 51 51 52 53 53 53
46 35 23 34 38 43 36 42 43 40 36 28 25 31 50 50 54 55 49 50 54 57 56 53 53 53 54 59 59 61 63 59 55 51 49 49 49 50 50 51 52 53 52 52
49 40 32 25 32 37 30 38 42 37 29 31 32 36 44 47 48 50 51 53 53 55 55 54 51 51 53 57 57 59 56 56 51 49 48 49 50 50 51 52 52 51 51 50
43 32 37 39 41 41 38 38 40 33 35 31 35 36 41 44 45 48 53 51 50 52 55 53 49 50 55 55 55 55 54 50 50 48 49 50 51 51 51 50 50 49 49 48
45 31 32 28 39 38 34 40 41 40 40 38 38 37 48 50 51 48 46 48 49 51 50 50 50 50 53 52 50 50 49 48 49 49 48 50 49 49 48 48 47 46 46 45
40 33 32 30 38 37 32 40 42 41 43 41 35 42 49 48 48 45 45 46 47 49 49 48 50 49 48 48 48 45 45 48 48 47 47 47 47 46 45 45 44 42 43 42
38 36 34 30 33 24 43 49 48 45 46 44 44 46 46 47 44 43 45 43 47 50 50 51 48 47 46 47 46 47 47 46 46 45 45 46 45 45 45 44 44 42 44 42
46 38 33 30 28 37 44 47 44 41 40 46 43 45 47 50 44 42 43 46 47 49 48 47 46 45 45 45 46 45 45 44 44 43 43 43 45 44 43 41 42 40 40 39
46 44 35 31 26 27 42 48 50 46 35 45 44 44 45 45 39 38 41 44 44 45 45 44 45 45 44 45 45 43 41 41 39 40 39 40 39 37 39 40 39 39 40 40
35 35 32 32 30 35 48 51 51 35 36 45 45 44 43 38 40 41 42 40 41 42 43 43 42 39 40 41 41 39 38 36 38 38 38 40 41 40 41 40 40 39 39 38
35 34 33 33 31 27 51 51 41 44 46 47 45 45 42 41 42 41 41 40 39 39 40 40 39 39 40 40 38 34 33 35 38 41 41 41 41 43 40 37 36 36 35 34
39 43 38 38 38 50 54 49 49 47 45 44 43 44 43 41 40 39 39 39 42 43 44 45 43 42 43 43 43 40 40 41 41 40 39 40 40 39 37 34 33 33 34 33
44 48 42 43 49 51 49 51 48 46 44 45 46 45 45 40 41 40 39 38 38 40 41 41 40 39 39 41 41 40 40 42 41 38 37 36 34 35 35 35 34 32 31 29
45 46 44 44 49 49 48 47 46 46 46 46 46 46 44 42 41 41 41 42 43 43 42 41 39 37 36 38 38 41 42 41 37 36 34 34 35 33 32 32 31 30 30 30
47 45 42 41 49 48 45 46 48 45 44 45 43 43 43 43 41 41 40 42 42 40 39 38 38 37 38 40 40 41 40 38 36 33 32 32 30 30 30 30 30 37 37 37

GFSCGP_sfc_temp_045.txt.gz
Temp
49 41 38 41 43 45 45 43 40 46 53 47 47 47 50 55 54 56 58 54 59 62 65 65 66 66 66 67 67 70 68 72 76 72 72 73 70 70 71 72 74 68 65 64
46 40 48 51 50 47 44 40 39 45 51 47 45 46 51 54 55 57 58 55 58 62 60 62 64 63 64 67 66 66 67 72 74 74 73 68 64 62 65 68 69 67 63 61
38 45 52 48 46 45 39 36 37 39 45 44 42 40 44 50 54 57 60 61 60 60 60 61 60 62 62 63 64 67 67 68 70 70 62 58 58 57 57 60 61 59 59 58
44 49 49 45 43 44 36 45 44 42 36 28 40 25 35 46 49 52 51 54 58 59 58 59 60 60 61 62 63 65 67 67 68 65 65 62 61 61 56 55 52 54 55 55
39 44 44 41 44 47 41 47 43 41 34 30 31 27 33 41 45 50 51 51 53 57 60 61 61 63 64 62 61 62 65 66 66 69 68 66 61 54 52 52 51 52 53 56
45 50 47 44 49 48 48 43 40 36 32 22 30 30 30 40 46 47 50 54 56 57 58 59 58 59 59 59 59 59 62 63 63 67 64 65 55 52 51 50 49 49 51 52
39 41 46 49 42 45 45 34 18 26 25 20 35 31 33 46 52 53 53 55 56 57 55 57 56 57 56 56 58 58 59 61 62 62 62 59 56 54 53 50 49 48 49 50
26 24 41 46 41 38 38 35 21 19 20 23 35 27 37 49 55 54 55 54 55 56 54 57 54 55 55 56 56 57 58 59 59 59 60 58 55 53 52 51 49 49 51 51
29 31 48 48 47 44 36 30 38 30 25 16 26 34 43 49 48 49 51 51 50 54 54 52 53 54 54 55 56 56 56 58 58 59 58 54 52 51 50 49 49 51 52 53
41 32 42 47 50 48 40 42 26 23 10 16 24 28 35 41 44 48 48 49 51 53 51 54 53 54 55 55 55 55 56 58 57 57 55 53 50 50 49 49 48 49 52 55
45 36 36 43 36 35 37 35 38 33 27 18 20 27 41 43 43 45 46 49 52 55 55 53 52 53 53 54 54 55 55 56 55 55 53 51 49 49 49 49 50 54 54 53
46 37 31 32 42 44 40 36 35 20 22 25 21 28 49 48 46 51 51 53 52 51 52 51 51 52 52 52 53 54 54 53 54 52 50 50 49 49 49 50 53 53 52 52
45 35 18 33 35 42 34 38 39 36 33 21 21 30 46 46 50 52 49 49 52 54 53 50 49 50 50 50 53 52 52 50 51 50 51 50 50 50 50 49 52 52 52 51
49 37 28 23 28 34 28 36 38 35 26 29 29 35 43 47 49 48 47 49 51 53 53 52 48 50 52 51 49 50 49 50 49 50 49 48 48 49 50 51 51 51 51 49
42 29 34 35 37 37 34 35 36 32 35 29 35 37 43 47 47 48 47 49 47 48 49 51 48 49 49 49 48 48 49 49 49 48 48 47 49 50 50 49 49 49 47 45
41 27 31 23 36 36 30 37 37 37 37 36 37 36 49 51 51 49 46 47 47 46 48 48 49 46 45 49 49 49 47 48 49 47 47 47 48 49 47 47 46 46 45 44
40 34 22 22 35 34 29 36 38 39 40 39 36 43 49 47 47 41 41 42 43 47 50 46 43 42 44 47 47 46 47 48 47 47 47 47 47 45 43 43 42 40 39 39
37 36 29 23 29 22 40 47 46 42 43 43 44 46 47 46 42 41 42 40 43 48 48 46 45 44 45 46 46 47 46 46 45 44 44 44 43 41 42 41 39 38 39 38
42 35 31 27 25 34 42 43 43 39 38 44 42 45 46 47 44 40 42 43 42 43 43 43 44 44 44 44 45 44 44 43 41 41 40 40 40 39 38 37 36 35 34 36
43 41 35 31 24 25 39 46 47 45 33 43 42 44 44 44 38 37 39 42 42 43 43 43 44 44 43 43 43 40 39 38 38 38 37 39 39 37 36 36 38 38 39 40
34 35 32 31 30 33 43 48 47 33 36 42 43 44 42 39 39 39 41 39 41 41 40 42 41 39 40 41 41 37 36 35 36 38 37 37 37 35 35 36 38 39 38 37
33 33 33 33 29 27 47 46 39 43 43 43 43 44 41 41 40 40 40 39 39 39 39 40 37 35 36 38 38 36 34 36 35 36 35 34 36 40 39 37 36 36 34 32
36 38 35 36 36 46 46 45 44 44 43 41 42 44 43 40 39 39 38 39 40 38 37 37 35 34 34 36 38 35 33 34 36 38 38 38 39 38 34 32 31 31 32 31
45 48 42 39 46 46 45 43 43 43 41 43 44 43 42 40 40 39 39 39 40 39 40 41 40 39 38 40 40 39 40 40 40 38 37 35 33 33 33 33 32 30 28 26
42 46 43 41 46 44 43 42 43 43 44 44 44 43 41 41 38 38 39 40 40 40 41 40 38 36 36 39 39 41 41 40 37 35 32 32 32 30 28 29 28 27 27 28
44 43 40 40 47 46 43 43 45 43 42 44 42 40 41 41 40 40 39 40 40 38 39 37 37 37 38 40 39 39 40 38 34 31 30 29 28 27 27 26 27 37 37 37

GFSCGP_sfc_temp_048.txt.gz
Temp
50 44 40 44 47 46 46 40 38 44 50 45 44 43 48 52 51 52 56 55 55 58 63 61 62 62 62 63 63 63 66 72 72 68 67 66 65 66 67 70 72 66 65 63
44 38 46 48 47 44 41 41 37 44 48 44 43 43 49 52 53 55 56 59 59 58 59 59 61 61 62 63 62 63 64 70 72 73 71 69 66 63 66 66 69 68 64 63
39 44 51 47 45 43 39 35 36 38 43 42 40 42 44 49 51 54 58 59 59 59 60 62 58 59 60 59 61 63 63 64 70 74 65 58 59 58 58 60 61 65 63 60
43 48 47 44 42 43 35 43 43 40 36 28 39 26 34 43 46 49 49 49 53 55 56 59 59 58 59 60 60 62 63 64 65 64 63 66 65 61 60 64 58 55 57 59
39 43 42 40 42 46 40 46 42 39 32 29 30 27 33 39 43 48 49 51 51 51 53 54 56 59 60 58 57 58 60 61 63 62 65 63 65 64 56 54 53 53 54 55
42 49 46 44 47 47 47 41 37 34 29 18 28 28 30 37 43 44 49 51 55 55 52 54 56 56 57 56 55 55 57 60 60 61 62 64 59 54 53 51 51 51 51 52
41 41 45 48 41 44 41 31 17 17 16 20 32 27 32 42 48 48 49 49 50 52 53 55 54 55 54 53 56 57 57 58 59 58 59 61 58 56 55 53 52 49 49 50
29 25 40 45 40 37 35 32 20 17 20 22 32 26 36 43 48 48 50 48 50 51 51 52 53 53 54 54 54 55 56 56 57 57 57 58 58 57 55 54 52 52 51 49
26 30 46 45 46 43 34 25 35 24 23 16 25 31 41 44 45 47 47 49 48 51 52 50 52 52 53 53 55 55 55 55 55 56 55 52 53 52 51 49 50 49 49 51
37 27 43 46 48 46 39 41 24 19 9 16 23 25 32 40 42 43 45 46 48 51 54 53 53 52 53 53 53 52 53 54 54 54 51 50 50 50 49 49 49 49 51 53
41 32 36 43 35 33 35 32 32 29 25 16 19 27 38 40 42 41 44 47 51 51 52 53 50 51 51 51 51 52 52 52 52 50 48 47 46 47 48 48 48 50 53 52
44 35 27 32 40 42 39 35 34 21 21 22 20 26 45 42 43 47 52 51 50 50 50 51 50 52 51 50 50 51 51 51 50 49 47 46 46 47 47 47 49 50 49 52
43 33 21 30 34 38 32 36 37 33 30 17 22 27 44 44 49 52 52 51 46 48 51 50 49 49 50 50 50 47 47 46 46 47 46 45 45 46 46 47 48 49 50 51
47 33 28 23 27 31 25 33 36 31 22 23 25 33 42 45 48 51 52 53 45 50 51 46 49 51 49 48 45 44 44 45 45 46 46 45 46 48 50 51 51 51 50 47
42 29 31 33 35 35 33 33 34 27 34 27 34 36 41 45 48 50 49 48 47 48 50 47 46 44 44 43 42 42 44 45 46 45 45 46 48 50 49 48 48 47 46 44
39 25 31 23 34 34 29 34 35 35 37 37 38 36 48 51 51 44 44 43 44 45 48 47 43 41 42 42 43 44 45 46 47 46 46 46 46 47 46 45 44 43 41 41
39 34 24 22 33 32 26 34 36 36 37 40 34 42 48 47 45 40 39 40 40 44 47 45 44 44 44 44 43 42 44 46 45 45 44 45 44 43 42 42 40 39 37 38
37 34 25 21 28 20 38 45 45 40 41 42 42 46 47 46 42 40 41 40 40 42 43 41 40 40 43 44 44 43 41 41 40 40 40 41 41 40 39 38 37 36 37 36
41 36 25 26 25 32 42 44 41 38 38 42 41 43 46 47 44 39 41 42 41 41 42 42 43 43 43 44 44 42 41 40 39 38 38 39 39 37 37 34 33 34 33 33
42 41 32 30 23 26 39 43 46 43 32 43 42 44 44 44 39 38 38 41 40 42 43 42 43 42 42 42 42 41 39 38 37 37 36 37 36 34 34 33 33 32 35 36
34 35 31 31 29 33 42 44 45 31 36 42 42 43 43 40 39 39 41 39 40 40 40 41 40 39 39 41 41 37 36 34 34 34 34 36 36 34 33 33 35 35 36 37
34 31 32 33 30 25 44 44 38 43 41 42 41 41 41 40 40 40 39 39 39 39 38 37 35 34 36 39 37 34 32 34 34 35 35 33 34 36 35 35 35 35 33 31
32 36 34 36 35 44 45 44 43 43 42 41 40 42 41 40 39 39 39 37 37 37 36 36 35 33 34 36 37 33 34 35 34 34 33 33 36 37 34 32 30 29 29 28
42 45 40 40 44 45 47 43 42 41 40 42 42 42 41 40 40 39 39 39 39 39 38 38 37 35 34 37 37 34 35 35 36 36 34 33 32 31 31 31 30 28 27 25
42 44 42 41 43 42 42 43 42 42 42 42 43 42 41 40 38 39 39 39 39 39 40 40 37 37 37 38 38 37 37 36 33 31 30 30 30 29 28 28 27 27 26 27
41 42 39 40 48 45 44 43 44 42 41 42 41 40 40 41 39 39 40 41 40 38 38 37 37 37 38 38 38 37 36 35 32 30 29 29 27 26 26 26 26 37 37 38

GFSCGP_sfc_temp_051.txt.gz
Temp
48 44 40 45 45 43 43 39 37 42 48 44 42 41 47 51 48 48 51 54 56 57 62 59 60 61 61 61 60 62 63 67 69 67 65 65 64 65 65 66 67 65 65 63
45 40 46 48 47 46 44 41 40 42 46 42 41 40 48 51 52 53 55 56 58 59 56 57 59 59 59 62 61 59 61 64 69 69 69 67 66 65 67 65 65 65 64 62
42 45 48 47 43 41 39 35 36 37 41 40 38 38 42 48 48 51 53 55 56 57 59 61 57 58 58 58 60 62 60 61 66 70 67 60 60 59 59 59 61 63 63 61
43 48 46 43 42 42 34 42 42 39 35 29 37 26 35 42 43 46 48 47 50 52 55 56 56 55 55 58 59 60 61 61 61 63 63 65 63 62 62 65 65 60 60 60
39 43 41 40 41 44 39 44 40 37 31 27 30 26 34 38 43 45 47 49 50 51 51 53 54 56 57 57 55 56 58 58 60 59 64 64 64 62 60 62 62 54 55 58
42 49 46 43 44 45 45 40 36 32 29 19 27 28 31 37 39 43 45 46 48 50 51 53 53 54 54 53 54 55 56 57 58 57 58 61 63 56 55 54 57 54 53 54
40 40 44 47 40 43 40 31 18 18 17 21 30 27 33 41 45 46 44 46 46 48 50 52 51 52 53 55 54 54 54 56 56 55 55 57 59 57 57 56 57 54 52 51
30 28 40 44 40 36 33 32 20 18 19 21 31 26 36 41 43 47 47 46 47 50 48 49 51 51 50 51 53 54 54 55 56 54 54 54 56 58 58 56 56 55 55 56
26 29 43 44 45 42 33 25 34 23 21 17 25 31 39 42 42 42 45 46 46 47 49 49 50 53 53 52 52 52 53 54 55 54 53 53 54 54 55 54 52 51 50 50
36 28 42 44 47 44 37 40 26 20 11 16 22 24 29 36 38 43 43 44 46 47 48 48 49 50 51 51 51 51 51 52 53 52 51 52 51 51 50 48 47 47 48 50
40 32 34 43 36 34 34 29 30 28 24 15 18 27 36 37 39 41 43 46 46 50 49 48 50 50 50 49 49 50 50 51 51 51 48 46 45 45 46 46 46 48 48 49
40 32 30 34 38 40 38 34 32 21 20 20 19 25 40 38 42 44 49 49 54 50 47 47 47 48 47 48 49 49 49 49 48 46 44 43 43 44 44 44 46 49 48 49
41 30 20 26 33 36 31 35 34 31 25 18 17 26 42 41 47 48 48 51 52 46 49 53 49 47 48 47 47 44 45 45 44 43 42 42 42 44 47 48 48 50 50 50
46 32 28 23 27 29 25 32 34 29 20 23 24 29 41 44 44 49 51 47 48 49 50 51 48 45 44 42 43 43 42 44 44 44 45 44 45 47 47 48 48 49 50 48
41 29 30 32 34 34 33 32 32 25 32 22 29 31 40 45 48 49 46 45 45 45 46 47 43 40 40 39 39 40 41 42 45 44 45 45 47 49 48 47 46 47 45 44
39 28 31 24 33 32 28 33 34 33 34 34 36 36 47 50 50 46 43 42 42 42 45 47 42 39 38 37 39 41 40 41 43 44 43 45 45 44 43 42 42 42 41 40
38 33 25 22 31 31 25 32 34 34 35 39 33 40 48 45 46 41 40 40 40 41 43 41 40 39 38 38 39 38 40 40 40 40 41 41 40 40 40 40 39 38 37 37
35 34 27 21 27 19 36 42 41 39 42 41 42 46 47 46 43 40 41 40 40 40 41 41 41 41 41 42 40 40 39 38 38 38 38 38 39 38 38 38 37 36 36 35
42 36 27 25 26 30 37 42 40 37 38 41 39 42 47 46 42 39 40 42 40 40 40 41 42 43 42 42 42 41 39 38 38 37 37 38 38 37 36 34 33 33 33 32
42 40 32 30 25 23 37 42 43 42 33 42 41 42 45 44 39 39 39 40 40 40 41 39 40 41 40 41 42 40 38 37 36 36 36 37 37 35 33 33 32 32 32 32
34 34 31 31 27 31 42 43 44 32 36 41 41 42 44 42 41 40 40 39 40 40 39 39 38 37 38 39 38 35 34 33 34 35 36 35 35 33 32 32 33 33 32 35
33 31 31 32 29 25 43 42 37 43 41 42 41 41 43 41 40 40 39 39 38 36 37 37 35 35 37 38 36 34 32 35 35 34 34 33 34 35 34 33 34 33 32 29
32 35 32 34 34 44 44 46 46 44 42 41 41 41 43 40 39 40 38 38 38 36 35 35 35 35 35 37 36 33 34 35 35 34 33 33 35 35 33 30 28 27 27 25
40 43 37 38 43 44 46 45 44 44 43 42 42 42 42 41 40 39 39 38 38 38 37 37 36 35 35 36 36 35 35 36 36 33 31 30 29 29 28 29 29 27 25 24
41 44 41 39 44 44 43 43 44 43 42 42 41 41 40 39 39 40 39 38 39 39 38 36 37 36 36 37 37 37 35 33 31 30 30 29 28 27 26 27 26 26 24 26
39 39 36 39 46 43 43 42 43 41 41 41 40 39 40 43 40 40 39 40 39 37 36 36 37 37 37 35 33 33 34 32 30 29 28 27 26 25 25 25 25 37 36 38

GFSCGP_sfc_temp_054.txt.gz
Temp
49 43 40 43 44 43 41 37 36 40 46 42 41 39 46 51 48 47 49 50 53 56 60 58 59 59 58 58 58 59 61 64 67 67 67 67 66 66 66 65 66 64 64 62
44 38 47 51 49 46 42 37 35 41 44 41 40 39 46 52 49 50 53 53 53 53 56 56 57 56 56 60 58 57 59 63 66 67 67 68 68 68 67 65 65 65 63 61
40 43 48 47 44 43 41 38 36 36 40 38 37 37 41 47 47 49 50 49 50 50 52 56 54 55 54 55 57 58 58 59 63 67 66 60 60 60 63 61 62 63 62 61
43 47 45 43 41 42 35 44 42 39 35 29 36 27 36 40 43 46 44 45 47 47 49 50 51 52 53 54 55 57 59 58 59 61 64 63 64 62 63 64 64 62 62 61
38 42 41 40 41 43 39 44 40 37 31 28 30 28 35 37 40 41 43 44 46 47 48 50 50 52 53 53 52 54 56 58 59 58 61 62 63 64 59 60 61 61 60 61
42 49 47 42 44 47 44 39 35 31 30 20 27 28 32 36 36 40 43 45 46 47 48 52 53 53 51 51 51 51 53 55 56 56 56 61 62 60 56 56 58 54 56 57
39 41 45 46 39 44 41 35 20 18 17 20 29 27 33 39 43 41 42 44 45 46 47 48 50 50 52 51 51 53 52 53 54 53 53 54 58 58 58 59 60 57 55 56
28 27 41 43 40 36 33 32 21 18 19 21 30 25 34 40 43 44 43 44 45 46 46 47 48 48 49 50 50 51 51 52 52 52 52 52 52 55 58 57 58 57 56 56
27 29 42 44 43 40 32 24 33 21 19 16 24 30 39 41 39 42 44 45 45 46 47 46 47 48 48 49 50 49 49 50 51 51 51 50 50 52 54 54 55 55 53 52
34 27 40 42 45 43 37 38 26 18 11 17 24 24 29 33 36 41 42 44 45 46 46 47 47 48 48 49 48 49 49 49 50 50 49 50 49 51 52 50 49 48 47 48
38 33 35 41 34 33 34 28 30 28 25 18 20 28 35 36 38 40 43 45 46 47 46 45 46 47 47 47 47 47 48 47 48 48 47 46 45 45 45 45 44 45 46 47
40 34 32 33 38 39 37 33 31 20 19 20 20 25 40 40 39 41 43 46 46 46 46 46 47 46 46 45 45 45 43 43 43 44 43 43 46 46 44 44 44 47 48 50
41 29 19 27 33 36 31 34 34 30 26 18 17 27 41 39 42 44 43 43 45 48 47 46 46 43 42 41 41 41 41 41 42 42 42 42 45 46 46 47 49 50 50 50
45 32 28 23 27 30 26 32 33 29 23 23 22 28 39 43 41 44 44 47 46 46 43 44 43 41 38 38 38 39 39 40 41 42 45 45 46 46 46 47 48 48 49 47
40 29 30 31 34 33 32 32 31 24 28 22 28 29 38 42 43 45 45 44 41 41 44 43 42 36 36 37 37 38 39 40 41 43 44 44 46 46 46 45 45 45 43 43
37 27 30 23 33 31 28 33 32 32 32 32 35 34 47 49 49 47 41 42 41 40 43 42 42 38 40 35 37 40 40 38 41 41 41 43 43 43 41 42 41 41 40 40
39 33 24 22 30 30 25 31 33 32 34 38 30 39 46 46 47 43 39 40 39 41 42 38 37 39 40 40 40 39 40 42 40 40 40 40 40 39 39 39 39 38 37 38
36 34 31 25 27 18 35 40 39 37 39 39 40 44 48 46 43 41 41 39 39 40 39 39 39 41 41 41 40 40 40 39 39 38 38 38 39 38 38 37 36 36 36 36
43 36 30 26 27 29 36 38 37 36 37 40 40 42 46 46 41 39 41 41 40 37 40 40 40 41 41 41 41 40 39 39 38 35 35 37 36 36 36 33 33 33 33 33
41 39 32 29 26 21 34 40 44 42 33 41 41 41 45 44 35 40 39 40 39 40 40 39 40 40 39 39 39 38 36 35 35 36 36 37 37 35 33 33 32 33 32 32
33 33 30 30 29 28 39 44 43 33 34 40 41 43 45 42 42 39 39 39 38 39 37 39 38 37 37 38 37 35 34 34 35 36 35 35 34 33 33 32 32 32 32 32
33 28 31 30 28 24 42 43 40 44 42 41 41 42 44 41 40 40 37 36 36 35 35 37 36 36 37 37 36 34 33 35 35 35 34 33 34 35 34 33 33 33 31 28
31 34 31 32 32 43 46 44 48 44 43 40 40 42 43 41 40 39 36 35 36 36 35 36 35 35 35 36 36 33 35 36 35 34 34 33 34 32 32 29 27 26 25 24
38 41 34 36 44 45 47 47 45 44 43 42 43 42 41 42 41 39 38 35 35 37 36 37 36 35 34 36 36 36 36 37 35 32 29 28 28 27 27 29 29 26 24 23
38 41 37 36 43 46 44 45 43 43 43 41 41 42 41 40 40 40 39 36 37 35 35 38 37 36 35 36 36 37 35 32 29 28 28 27 26 25 25 25 25 25 22 25
38 41 39 38 43 42 43 43 42 42 41 42 40 38 39 40 41 41 39 39 38 34 34 37 37 36 36 36 33 31 32 31 29 28 27 26 24 24 24 24 24 37 36 37

GFSCGP_sfc_temp_057.txt.gz
Temp
50 43 39 44 46 45 44 41 40 44 49 47 44 44 48 53 52 52 55 57 59 59 63 64 64 65 65 66 65 66 67 69 72 69 68 67 66 67 66 68 70 70 69 68
43 40 48 49 48 46 43 40 39 44 47 46 43 42 49 53 52 53 54 55 55 56 58 59 61 62 62 64 65 64 64 67 70 72 72 72 71 70 69 68 67 70 68 68
37 44 51 48 46 44 42 39 38 40 43 43 40 41 44 50 51 50 49 51 53 53 54 56 56 58 59 60 61 63 64 64 66 70 71 67 67 66 67 66 66 66 68 67
39 46 46 44 43 46 38 45 43 41 39 34 40 33 41 44 46 46 48 49 51 52 54 55 56 58 58 58 57 59 61 62 63 66 68 67 67 66 67 68 68 66 67 66
35 42 41 39 40 45 39 45 41 39 35 35 35 33 40 43 43 45 48 49 50 51 52 54 55 56 57 56 55 57 58 60 62 63 67 67 67 68 68 67 67 66 65 66
42 47 46 43 45 45 44 40 37 34 33 27 32 32 37 41 43 46 49 49 50 50 51 53 55 56 56 56 56 57 58 59 60 61 62 64 66 66 64 64 64 64 63 63
39 41 46 47 41 45 43 38 26 24 23 26 32 30 37 43 46 47 48 49 50 50 51 52 53 53 55 55 55 57 56 57 58 59 59 60 61 63 63 64 64 64 60 59
29 30 42 45 41 39 37 39 26 23 24 27 32 28 39 45 48 49 49 49 48 50 51 51 51 52 53 54 54 55 55 56 57 58 59 59 58 58 62 63 64 64 63 62
29 30 44 44 44 43 36 29 35 24 23 22 29 33 42 45 44 46 47 48 49 50 50 51 51 52 53 53 54 53 54 55 56 55 56 57 57 57 58 60 61 63 62 60
35 28 41 42 45 43 39 39 28 23 17 21 27 28 35 39 43 46 47 47 48 49 50 51 51 52 53 53 53 53 53 53 53 53 53 53 53 54 56 57 57 57 56 56
39 34 35 42 36 34 35 31 31 30 28 23 24 32 39 41 44 45 46 48 47 48 49 49 50 51 50 50 49 50 49 49 49 50 50 49 49 50 51 52 52 53 53 52
40 35 30 34 39 41 39 35 33 26 24 23 23 31 44 43 44 45 46 47 47 48 48 48 48 47 45 45 46 46 46 47 47 48 48 48 49 49 50 49 49 51 51 52
41 31 25 30 35 38 34 35 35 32 28 22 22 32 43 42 43 46 46 46 47 48 46 46 46 43 42 43 43 44 45 45 46 47 48 49 49 48 48 49 50 51 51 51
45 33 31 27 30 32 27 33 34 30 23 25 24 31 40 44 43 45 45 46 46 45 44 44 43 41 41 41 42 42 43 44 45 46 47 46 47 47 47 47 47 47 47 45
41 30 31 33 35 34 33 33 32 27 30 25 31 30 39 42 43 46 45 44 43 42 43 42 41 40 40 40 41 42 42 43 43 44 44 43 44 44 44 43 43 43 43 43
38 30 27 25 33 32 29 34 33 33 34 33 35 35 47 49 50 48 43 42 40 41 43 41 40 40 40 39 40 41 41 41 43 41 41 42 42 41 41 40 41 42 41 42
38 29 25 24 31 31 26 32 34 33 34 37 30 39 46 45 47 45 42 41 40 41 41 40 39 39 40 40 41 39 40 41 40 40 40 40 40 39 39 39 39 38 38 39
36 35 30 27 27 18 35 40 39 37 39 39 40 42 46 46 45 42 42 40 40 40 40 40 41 41 41 41 41 41 41 40 38 37 37 37 37 37 37 36 36 36 36 35
43 37 28 24 27 29 35 37 37 36 38 41 40 43 45 46 42 39 41 42 40 40 40 40 41 41 41 41 41 40 39 38 37 36 36 36 36 35 34 33 33 33 33 32
41 39 30 27 25 22 35 41 44 43 35 43 41 42 46 44 39 40 39 41 40 40 40 39 40 40 39 39 40 38 36 36 35 36 36 36 36 35 33 33 32 32 33 32
33 33 29 26 25 30 38 44 45 34 37 43 43 44 46 42 41 40 39 37 38 37 37 39 38 37 38 38 38 35 35 34 35 35 35 35 34 33 33 33 32 31 32 32
32 29 30 29 28 22 42 41 40 45 45 43 43 43 45 43 40 40 38 36 36 35 36 38 37 36 37 38 37 35 33 35 36 35 35 34 35 35 34 34 34 34 33 31
31 33 30 32 32 43 45 45 49 48 45 44 42 44 44 42 40 40 38 36 37 36 36 37 36 35 36 37 36 34 35 36 35 35 33 33 33 33 34 33 32 31 31 30
37 41 35 36 42 42 46 48 47 45 44 45 44 43 42 42 42 40 38 36 36 36 36 37 37 35 35 36 36 36 36 37 36 33 32 32 32 31 31 32 32 30 29 29
37 39 40 36 40 44 47 47 47 45 44 44 43 43 42 41 41 41 39 37 38 37 37 38 37 36 35 36 36 37 37 34 32 31 31 31 30 30 30 31 31 31 29 31
37 37 37 38 42 40 43 46 46 44 43 44 42 40 40 41 40 41 40 39 38 36 37 37 37 37 36 37 35 34 34 33 32 31 30 30 29 29 30 30 31 37 37 37

GFSCGP_sfc_temp_060.txt.gz
Temp
52 42 42 50 55 54 53 50 48 52 54 53 54 54 58 63 64 64 67 70 71 71 73 73 73 75 77 78 79 80 80 81 82 81 70 69 68 69 69 72 76 80 79 79
46 40 50 56 55 52 52 49 48 48 52 53 52 51 58 61 62 62 63 65 67 66 68 68 69 71 72 74 76 78 78 79 80 81 80 77 77 74 73 72 72 72 77 76
44 46 55 53 51 49 50 48 47 47 49 51 49 50 52 55 56 57 59 62 63 63 65 67 69 69 70 70 71 72 74 75 77 78 80 79 78 76 74 73 73 73 71 74
42 46 50 50 49 52 43 50 50 47 46 43 48 46 49 52 52 56 59 60 61 62 65 66 67 67 68 67 66 67 69 70 72 73 74 75 74 71 74 76 76 75 73 69
36 40 45 44 48 53 44 51 48 46 46 44 43 44 47 53 50 52 57 59 61 62 63 64 65 65 67 66 66 68 69 70 71 72 72 74 73 75 76 76 75 75 73 71
37 44 43 43 45 46 49 48 46 46 43 36 43 41 45 48 52 53 56 59 60 61 63 65 66 66 67 67 66 67 69 69 69 69 70 71 72 73 72 72 72 72 72 68
34 37 42 47 38 42 43 44 34 33 33 36 39 38 48 52 54 57 55 57 59 61 62 62 63 63 64 64 65 66 67 67 68 68 68 69 69 70 71 72 71 71 70 67
35 31 38 44 45 42 43 45 37 30 34 38 37 37 47 54 56 58 56 57 58 60 61 61 61 62 63 63 64 65 65 65 66 67 67 68 68 69 70 71 72 72 72 72
37 34 47 47 48 49 41 38 44 35 34 35 42 43 49 51 52 55 56 57 57 58 59 59 61 61 61 62 62 62 63 64 64 64 65 66 67 66 66 67 69 70 71 71
43 33 43 45 50 48 46 47 36 35 29 31 38 40 45 46 50 54 55 55 56 57 58 58 59 58 58 58 59 60 61 61 62 61 62 62 61 61 62 63 64 66 68 68
48 43 37 45 42 41 41 40 39 41 38 35 38 43 55 52 54 52 54 55 55 56 56 57 57 57 56 57 57 57 57 58 58 59 60 59 57 56 56 55 56 57 58 59
46 43 35 38 45 47 46 43 43 37 32 34 34 43 55 57 56 53 55 54 55 55 54 55 54 55 55 54 55 55 55 56 56 57 58 58 58 58 57 56 57 57 56 56
48 38 31 33 39 44 40 42 42 40 38 30 36 43 52 54 54 56 54 55 54 53 53 54 54 52 53 52 52 52 53 54 55 56 56 55 55 54 53 54 54 54 54 53
50 41 38 36 36 40 34 39 41 37 32 37 38 44 50 52 53 55 54 54 53 52 50 51 51 51 51 50 50 51 51 52 52 52 52 50 49 47 47 47 48 47 48 47
49 37 38 39 39 39 38 38 38 32 38 33 41 40 51 53 53 55 54 50 47 49 49 48 49 49 50 49 50 50 50 50 50 49 48 46 46 44 43 43 43 44 43 43
45 34 33 32 38 38 34 39 40 39 40 39 42 42 55 57 57 54 50 46 44 44 46 47 47 48 47 48 48 48 48 47 48 45 44 45 43 42 40 41 42 42 40 41
44 36 34 33 36 36 32 37 39 41 43 43 36 47 54 53 52 50 47 46 44 44 44 46 46 47 47 46 46 45 46 47 45 43 44 43 41 39 38 39 38 37 37 38
43 39 37 34 35 27 41 46 46 43 46 47 47 50 52 53 50 48 48 47 46 45 44 45 48 47 47 47 47 47 46 42 39 38 37 37 38 37 38 37 36 36 36 35
48 42 34 32 33 40 43 42 42 41 44 50 47 51 53 51 49 47 47 47 46 46 46 46 45 44 46 46 46 45 43 41 38 37 37 37 37 36 36 34 33 32 32 32
44 44 39 33 27 30 43 48 52 50 42 51 50 51 51 50 47 50 47 46 45 46 46 45 44 43 43 42 45 43 40 39 36 37 36 37 36 35 34 33 33 33 33 32
36 37 34 35 33 40 49 50 51 37 43 52 50 51 52 49 52 47 45 44 45 44 44 44 43 40 40 42 40 37 36 35 36 36 36 36 36 34 34 34 34 34 36 37
37 34 32 34 31 29 50 48 43 49 52 53 52 52 50 49 43 43 43 42 42 41 42 42 41 40 41 39 38 36 35 36 37 37 36 36 38 39 39 39 41 41 41 39
37 44 41 41 42 51 52 50 54 52 53 53 52 53 51 46 43 45 40 40 41 40 39 40 39 37 38 38 38 36 36 37 38 40 39 40 42 42 42 41 40 40 41 40
46 48 44 43 50 51 53 54 52 52 52 53 52 52 51 50 47 43 42 39 38 40 39 42 40 38 36 38 38 38 38 41 42 41 41 42 41 40 41 41 41 41 40 39
48 47 46 46 49 51 54 54 51 51 52 51 51 51 50 50 48 47 43 40 39 39 40 41 40 39 37 38 38 41 42 43 42 41 41 41 40 40 40 40 40 39 38 38
47 47 45 45 53 52 52 49 46 49 50 51 50 49 49 50 49 48 45 43 40 39 41 40 42 40 38 38 39 42 42 42 41 40 40 39 39 39 39 39 38 38 38 37

GFSCGP_sfc_temp_063.txt.gz
Temp
52 43 40 50 56 58 58 52 53 57 59 56 56 58 62 66 66 67 69 71 73 74 79 78 77 78 79 81 81 82 82 84 84 83 83 74 69 69 71 75 82 83 83 82
45 40 48 58 57 56 55 52 50 54 57 56 57 56 62 64 64 67 68 69 71 73 73 74 73 74 75 77 79 80 81 82 83 83 83 80 76 72 72 72 72 75 80 81
43 46 49 50 52 50 53 51 51 49 52 56 54 51 55 61 61 62 63 67 67 67 68 70 71 71 72 73 72 74 76 78 80 81 82 82 80 78 76 74 73 73 73 76
46 50 45 46 48 52 47 57 55 49 46 43 55 47 53 56 55 59 62 64 65 66 68 68 69 69 69 68 69 71 72 73 75 76 76 76 77 75 77 78 79 78 78 74
37 45 45 44 48 55 47 56 53 51 48 46 47 45 51 55 51 56 60 62 63 66 66 67 67 67 69 67 67 70 72 73 73 73 74 74 74 77 78 78 77 78 79 77
37 45 44 44 46 53 54 51 50 50 46 36 48 47 46 50 54 56 60 62 63 64 66 67 68 68 69 68 68 69 70 72 72 71 72 71 71 74 74 75 74 75 75 74
34 35 41 44 40 46 48 46 33 31 32 36 46 43 51 57 60 59 59 61 63 65 65 65 65 65 66 66 67 68 69 69 71 71 71 71 71 71 71 72 73 73 73 72
33 31 34 41 40 37 43 44 38 31 36 40 42 38 50 58 61 61 60 61 62 63 64 63 64 64 65 65 65 66 66 67 68 68 69 71 71 70 70 71 72 73 74 74
37 33 40 44 48 45 37 35 48 39 41 40 44 48 51 54 56 57 59 59 59 61 61 62 63 64 63 63 62 63 64 65 66 65 67 67 68 66 66 67 69 70 71 71
47 34 43 47 51 51 48 52 39 37 30 33 41 45 47 47 50 55 57 58 59 60 61 61 62 61 61 61 61 62 62 62 63 63 64 64 63 62 62 62 62 63 65 67
52 45 40 46 43 44 44 42 43 44 42 37 39 44 57 53 55 55 57 58 58 59 59 59 59 59 59 60 59 59 60 60 60 61 62 62 61 61 61 60 60 60 59 60
51 45 36 40 47 50 50 47 48 39 38 39 37 42 60 58 57 58 57 57 58 57 57 57 57 57 58 57 57 57 58 58 58 59 60 59 58 58 57 57 57 57 56 57
52 42 32 35 42 47 42 46 47 45 41 33 37 43 60 61 58 58 57 58 58 57 56 57 57 56 56 56 55 55 55 55 56 56 56 54 53 52 51 51 52 52 51 51
53 46 41 38 39 44 37 43 45 37 33 40 41 46 51 54 55 58 58 58 57 56 54 55 55 55 55 54 54 54 54 54 54 53 52 50 49 48 47 46 46 46 46 45
52 41 43 43 43 43 41 41 42 33 39 35 44 45 53 56 57 58 58 56 52 52 52 52 53 54 53 53 53 53 52 52 52 50 49 48 48 46 45 45 44 44 44 43
50 35 36 34 41 41 37 42 43 41 41 42 45 44 57 60 60 58 57 52 50 49 49 50 51 51 51 51 50 51 50 50 51 48 47 47 46 44 42 41 41 41 41 40
47 39 36 35 39 39 34 40 42 43 45 44 37 49 56 54 55 55 54 52 50 50 49 50 50 50 50 49 50 48 49 48 46 44 45 44 43 41 40 40 39 37 36 36
46 42 39 36 37 28 42 49 49 45 47 49 50 53 56 56 56 52 54 53 52 50 49 48 50 50 50 50 50 50 46 42 40 40 39 40 40 39 38 37 36 36 36 35
51 46 37 33 36 43 47 45 44 43 45 51 50 54 56 57 52 52 54 52 52 51 51 50 50 48 49 49 49 48 45 42 40 38 38 38 38 36 36 34 34 33 33 33
47 47 40 34 29 31 44 50 54 53 41 53 54 54 54 53 46 51 52 51 50 50 50 49 49 47 46 46 48 45 42 38 37 37 37 37 37 36 34 33 33 34 34 33
39 39 35 35 32 41 52 52 53 38 41 54 54 54 55 51 53 51 51 49 50 49 48 48 47 44 45 45 43 37 37 36 36 37 37 37 36 35 35 35 35 37 39 39
39 37 35 37 31 30 53 49 45 49 55 55 55 55 53 54 47 47 47 46 46 45 45 47 45 43 43 41 39 36 35 37 37 38 38 38 40 41 41 41 42 43 43 41
39 46 43 42 43 53 55 54 57 56 54 55 54 55 54 49 46 47 45 43 44 45 45 46 42 38 39 40 39 36 36 39 40 41 40 42 44 44 43 41 41 42 43 41
49 54 46 46 52 53 55 57 56 55 53 55 55 54 54 53 50 47 45 42 42 43 43 44 41 38 37 40 40 39 41 43 44 43 43 43 42 42 43 42 41 41 41 40
49 51 48 48 53 55 56 58 57 53 55 54 55 54 53 53 52 49 46 43 42 42 44 45 42 40 38 39 40 43 44 45 44 43 43 42 42 42 41 40 40 39 38 38
53 49 46 46 55 55 54 55 52 52 53 53 53 53 52 53 53 52 49 47 44 42 43 43 42 41 39 39 42 44 45 45 44 42 41 41 41 41 41 39 37 37 37 37

GFSCGP_sfc_temp_066.txt.gz
Temp
50 42 39 44 48 51 52 47 45 52 58 53 51 53 56 61 60 57 60 61 62 65 70 67 69 68 68 69 69 70 71 72 72 71 69 67 67 67 67 70 71 72 70 73
44 39 49 53 52 51 51 48 46 53 56 53 51 51 58 59 59 60 59 59 61 63 63 65 66 62 65 65 65 67 69 70 71 70 70 69 68 67 68 68 70 70 69 70
41 45 52 51 49 48 49 46 47 46 50 52 48 46 51 57 58 58 57 57 60 59 60 62 62 63 62 60 60 63 64 65 66 67 67 67 67 66 65 65 67 71 71 69
45 50 47 45 44 50 43 54 54 48 43 36 48 34 48 53 51 54 53 54 56 57 59 61 61 60 59 59 60 62 64 64 66 65 64 62 61 62 65 66 68 68 68 68
36 43 43 39 41 51 46 54 50 47 42 40 42 34 42 50 46 49 53 54 56 56 59 59 59 61 61 60 59 61 63 64 64 63 62 61 60 61 63 65 66 66 67 67
38 45 45 42 45 47 54 48 47 43 41 29 41 39 37 43 48 51 53 54 56 57 58 60 61 61 60 59 59 59 61 63 63 62 61 60 59 59 59 61 62 63 64 65
36 35 40 45 38 44 48 40 29 27 28 26 42 39 41 51 54 53 53 54 55 57 56 56 56 57 58 57 57 60 59 59 61 60 60 60 59 58 57 58 59 61 62 62
33 29 36 42 41 38 40 39 28 24 25 28 39 31 40 52 57 56 56 55 56 55 55 55 55 55 55 56 55 55 56 57 58 58 58 58 57 56 57 57 57 58 59 61
33 32 39 41 44 45 37 34 42 32 33 26 33 38 44 49 49 52 53 54 53 54 54 54 54 54 53 53 53 53 54 55 56 56 56 55 54 54 53 53 54 55 56 60
42 32 38 40 44 44 41 46 33 29 22 25 31 34 37 42 46 50 51 52 53 55 54 54 53 52 52 52 52 53 54 53 54 54 54 55 53 53 53 52 51 52 52 54
48 41 36 42 38 37 36 35 39 37 34 23 26 30 45 46 49 49 51 54 54 53 52 52 52 52 52 52 51 51 51 51 51 52 52 50 50 50 50 48 49 49 50 51
48 40 33 38 45 47 45 43 43 28 31 28 26 31 51 49 50 52 52 54 54 54 52 52 51 51 50 50 50 49 49 49 49 50 49 47 47 47 45 44 45 46 45 46
47 35 26 30 36 42 37 43 44 39 35 29 25 29 51 48 49 52 51 52 53 53 52 51 50 50 49 48 48 47 47 46 48 47 46 45 44 42 41 42 43 44 43 42
49 41 35 27 33 37 32 39 41 33 24 31 29 37 44 48 49 50 50 52 52 51 52 49 48 48 47 47 47 46 46 46 46 46 44 42 41 40 40 42 45 44 43 40
46 35 36 39 42 41 38 38 39 30 34 26 35 39 46 48 49 50 51 51 49 49 49 48 47 45 45 44 44 45 44 44 45 43 42 41 41 43 43 43 43 43 42 42
45 31 31 27 39 38 33 39 40 38 38 36 39 38 48 50 53 49 49 49 47 47 47 47 47 46 45 42 43 45 44 43 44 42 41 41 42 42 40 40 40 39 38 38
42 33 28 26 35 35 27 35 38 39 40 39 32 42 49 48 52 49 48 49 48 47 47 47 46 44 43 43 44 41 40 41 43 41 40 41 41 39 39 38 37 36 36 36
41 38 32 25 29 17 38 45 45 42 44 44 45 48 52 51 49 48 48 48 48 48 46 45 44 44 44 44 43 41 41 41 40 39 39 40 39 37 37 36 36 35 35 35
45 42 30 25 27 36 39 42 41 40 40 48 45 48 51 50 47 45 50 49 47 46 46 44 43 43 43 45 43 41 42 40 39 37 37 38 37 36 35 34 33 33 33 33
44 42 34 31 25 24 39 46 50 47 38 48 49 48 50 47 39 44 46 47 45 46 45 43 42 42 43 44 41 41 39 37 36 37 37 38 37 35 34 33 33 33 34 31
36 35 29 30 30 34 45 48 48 35 37 48 50 49 49 44 43 46 46 45 45 44 44 43 41 39 40 39 38 37 36 35 37 37 37 37 36 34 34 33 29 28 30 31
36 31 30 33 29 24 47 45 40 45 49 50 48 48 50 46 45 46 46 45 44 42 42 42 39 38 38 40 38 36 35 37 38 37 37 35 36 37 36 32 33 33 33 31
35 39 35 36 34 47 49 47 50 50 50 48 47 49 50 46 45 45 43 43 44 44 40 41 36 37 38 39 38 35 36 38 38 36 35 34 36 36 36 32 32 31 32 31
44 47 40 40 45 46 49 50 49 48 48 52 51 49 48 47 45 45 44 42 42 43 41 40 37 37 37 39 39 38 38 39 38 36 35 34 34 34 34 34 33 31 30 29
43 44 42 40 45 46 48 50 49 48 49 49 50 49 48 47 47 45 43 42 42 40 42 40 37 38 38 39 39 40 39 38 37 36 35 34 34 33 30 29 30 29 28 30
43 41 38 37 46 46 43 46 47 47 46 47 46 46 48 47 47 47 43 41 40 39 41 39 38 39 39 39 39 39 39 38 37 35 33 32 31 31 30 29 28 38 36 37

GFSCGP_sfc_temp_069.txt.gz
Temp
48 42 38 43 45 46 44 42 41 47 54 51 50 50 54 57 55 55 57 57 59 61 63 62 62 61 63 63 62 63 66 67 67 65 65 64 65 63 64 66 68 68 68 67
43 38 44 49 48 46 45 39 40 46 53 51 49 49 54 56 55 56 58 57 57 57 59 60 62 61 58 56 57 59 60 62 63 64 64 65 65 65 67 67 66 67 66 66
39 43 50 48 45 43 44 39 39 42 45 48 45 44 49 54 55 56 56 57 57 58 57 57 58 58 57 56 56 59 60 61 61 62 63 62 63 63 63 63 63 65 66 66
42 48 47 44 44 45 38 49 49 45 40 33 45 31 44 51 50 52 52 52 54 56 57 57 58 58 57 56 57 59 60 61 63 61 61 59 58 58 61 63 64 65 66 66
37 43 41 39 42 45 42 52 50 43 39 36 37 33 40 49 44 47 49 50 52 55 56 56 58 59 59 58 57 57 59 61 60 59 58 57 56 56 57 58 60 62 64 65
39 46 43 41 43 44 47 47 46 41 38 26 36 34 36 40 49 46 47 50 53 54 55 56 58 58 57 57 57 57 58 59 58 57 57 55 54 54 54 55 56 58 59 61
35 36 42 45 38 43 43 38 28 27 23 23 37 34 40 48 48 49 49 50 52 53 53 53 54 54 54 53 54 57 56 56 56 56 55 54 53 52 51 52 52 54 56 57
27 25 38 42 41 36 36 37 26 21 21 25 36 30 39 47 53 53 53 52 53 51 51 53 53 51 51 52 52 52 53 53 54 54 53 52 51 51 51 51 51 51 51 53
30 30 40 42 45 42 37 34 41 31 30 23 29 34 45 47 48 51 51 52 50 51 52 52 51 50 50 50 50 51 51 51 52 52 52 50 50 50 49 49 49 49 50 55
39 30 39 41 44 44 40 45 34 29 23 24 26 28 33 40 44 49 49 48 50 51 50 49 49 49 49 49 49 49 50 49 50 50 49 48 47 48 47 47 46 46 48 49
43 38 35 38 36 36 37 35 37 38 31 22 23 29 42 45 47 48 49 50 50 49 48 48 48 48 48 47 47 47 47 47 47 47 46 45 44 44 44 43 43 43 44 44
45 36 30 36 43 47 44 39 40 28 30 27 23 29 46 45 47 49 49 52 51 50 49 48 48 47 46 46 46 45 45 45 45 45 44 43 43 42 41 41 41 42 41 42
44 33 24 28 35 40 36 41 42 39 33 26 21 28 45 45 46 49 48 50 51 50 50 49 48 46 45 45 45 44 44 43 44 43 41 40 40 39 38 39 41 41 39 39
47 37 32 24 30 34 30 37 40 34 26 31 28 32 39 43 46 48 48 49 49 50 50 48 46 45 44 44 44 43 42 43 43 43 40 39 39 42 40 39 40 42 39 37
43 32 34 38 40 38 35 36 36 29 34 26 34 36 44 44 45 47 48 48 47 47 47 47 45 43 43 42 42 42 42 42 42 40 39 38 39 42 42 41 41 41 39 40
41 27 28 24 38 37 33 37 37 36 36 36 36 35 46 49 50 48 47 47 45 45 46 46 45 43 42 40 41 42 40 40 40 38 38 39 41 41 40 39 39 38 38 38
38 30 25 23 33 32 25 34 37 36 38 40 32 40 44 45 49 47 46 47 47 46 45 45 44 42 40 41 41 37 37 39 38 38 38 41 40 38 38 38 37 36 36 36
36 33 27 22 27 16 35 42 42 40 41 41 41 43 46 48 48 47 47 46 46 46 45 44 42 41 41 41 39 38 38 41 39 39 39 39 38 37 37 36 35 35 35 34
42 40 26 24 23 31 35 40 39 36 37 43 42 44 47 47 45 43 48 48 47 45 44 43 42 41 40 40 39 38 38 39 38 37 38 37 38 36 35 34 33 33 33 33
41 42 31 30 22 23 38 42 47 45 34 44 46 46 46 45 39 42 45 45 44 44 43 40 40 39 39 39 38 37 36 38 37 37 37 38 37 36 34 33 33 33 26 31
33 35 30 27 27 32 44 45 46 33 35 45 47 47 47 43 46 45 46 44 44 42 41 40 39 37 37 36 36 34 36 36 37 38 38 37 36 34 34 33 27 25 28 29
32 33 28 29 28 23 44 43 39 44 46 47 47 47 48 45 44 43 45 44 44 41 40 39 36 35 36 37 36 36 35 37 38 37 36 34 33 35 33 30 30 30 29 27
31 36 33 33 33 43 45 44 47 48 50 48 46 48 48 45 44 45 43 43 43 42 39 39 35 34 35 39 38 35 36 38 37 37 34 33 34 34 33 30 29 29 29 27
43 43 37 38 42 44 46 46 47 48 46 48 49 49 49 47 45 44 44 42 42 42 41 37 35 34 36 38 39 38 38 39 37 33 33 33 33 32 32 31 30 28 27 27
40 41 38 37 42 44 46 46 47 46 47 47 47 47 47 47 45 45 42 41 42 42 40 38 35 35 37 38 38 39 40 36 34 33 32 32 33 31 29 29 28 27 27 29
40 39 36 35 43 43 42 43 46 45 45 45 44 44 45 46 46 45 42 41 40 39 40 37 36 36 38 39 39 40 39 35 33 31 30 30 30 29 28 27 27 37 36 38

GFSCGP_sfc_temp_072.txt.gz
Temp
48 42 37 39 43 43 42 39 40 45 52 49 48 48 53 58 53 53 54 56 58 60 57 59 57 57 59 57 59 59 62 62 64 64 64 63 64 64 63 64 67 68 67 66
43 39 44 47 47 45 42 38 38 44 51 47 47 48 53 55 54 55 56 56 57 56 56 58 56 54 55 55 55 57 58 60 61 61 62 64 64 64 65 65 65 65 65 65
40 44 49 47 43 42 40 37 37 40 43 45 44 41 45 51 52 54 55 56 55 57 56 54 54 55 54 53 54 57 57 58 60 60 60 59 61 62 62 62 62 65 66 65
42 47 46 43 42 43 39 45 46 43 38 32 43 29 39 47 51 52 53 51 53 53 53 54 55 55 55 55 55 57 58 58 59 57 57 57 57 57 59 60 62 63 64 64
37 43 42 40 42 46 42 46 45 41 38 35 35 31 35 43 43 49 48 50 50 51 52 54 55 57 57 55 54 54 57 57 56 55 55 54 54 54 55 55 57 59 61 63
40 45 42 40 42 43 45 43 42 39 37 26 34 32 32 39 44 48 47 48 50 51 52 54 55 56 55 54 54 54 55 54 54 54 52 52 50 51 51 51 51 53 56 56
36 37 41 43 38 43 42 35 28 28 28 25 34 32 42 44 48 50 47 46 49 50 50 51 51 52 52 52 52 55 53 53 53 52 51 50 50 50 49 49 49 50 51 51
30 30 38 42 38 36 36 37 25 22 22 24 33 28 39 45 48 51 53 52 50 49 49 50 50 50 50 50 50 51 51 51 51 51 50 49 49 49 49 49 49 48 49 50
31 31 41 42 43 43 36 33 39 27 25 20 28 33 43 42 42 47 50 51 49 49 50 49 49 49 48 48 48 49 49 49 49 49 48 46 46 46 45 45 46 46 46 52
36 30 39 42 44 43 40 43 30 24 18 20 26 26 33 35 40 48 49 48 49 50 49 48 48 47 47 47 47 47 48 47 47 46 46 45 44 44 43 43 42 43 44 45
40 34 34 39 36 38 37 35 35 35 29 21 22 28 38 40 45 47 49 50 49 48 47 47 47 47 46 46 45 45 45 45 45 44 43 42 41 41 41 40 40 40 41 42
44 34 31 35 44 45 43 38 37 27 27 24 21 28 42 42 45 49 49 51 50 50 48 47 47 46 45 44 44 44 44 43 43 43 41 40 40 39 39 39 39 39 39 40
43 30 27 30 35 41 35 39 41 36 29 19 21 29 44 40 45 48 48 49 49 49 48 46 45 44 43 43 42 42 42 41 42 41 39 39 38 38 37 38 39 39 38 38
47 35 29 26 29 33 29 35 38 36 28 27 26 35 40 43 44 46 48 50 49 50 49 47 45 44 43 42 42 41 41 41 41 40 38 37 40 42 41 39 41 39 38 37
41 32 34 35 37 36 34 35 35 30 35 30 36 34 43 46 46 47 51 49 47 47 47 46 44 43 43 41 41 41 40 40 40 39 37 37 41 42 41 40 40 40 40 39
39 26 27 24 36 35 31 36 35 35 35 35 35 36 46 50 45 45 46 46 45 45 45 45 44 42 42 40 40 40 39 39 39 37 37 38 41 40 39 39 38 38 38 37
36 29 24 23 32 31 27 34 36 35 37 39 32 42 44 45 49 48 46 46 46 45 45 44 43 42 40 40 40 37 37 38 37 36 37 40 40 38 38 38 37 36 35 36
34 31 26 21 26 14 34 41 40 39 40 39 40 43 46 46 47 47 46 46 46 47 46 44 42 41 40 39 38 37 38 38 40 39 39 39 38 37 37 36 35 35 35 35
39 34 26 23 22 29 34 38 37 35 36 42 42 42 44 46 43 42 47 46 47 46 45 43 41 40 39 37 37 37 37 39 39 38 38 38 38 36 35 34 33 33 32 26
40 42 32 28 21 21 34 39 43 42 31 42 44 42 43 42 36 40 45 45 44 44 42 40 39 39 38 37 37 36 36 38 37 37 37 38 38 36 34 33 33 33 33 30
34 34 30 28 28 29 40 43 45 30 34 43 44 45 43 40 43 45 44 44 43 42 40 40 39 38 38 37 37 34 34 36 38 38 38 37 36 35 34 33 27 23 25 26
31 31 30 31 28 23 43 42 37 42 43 43 43 44 45 45 43 43 44 42 43 42 40 39 37 35 35 36 35 33 34 38 38 38 37 35 35 36 34 29 29 28 27 26
32 35 32 33 32 42 44 43 46 46 47 48 46 46 48 45 44 44 43 43 43 42 41 38 35 34 34 35 35 35 36 38 37 37 35 33 32 32 31 29 29 28 27 26
37 39 36 36 41 42 45 45 46 47 46 48 48 48 48 47 45 43 43 42 42 42 41 39 34 33 32 34 37 38 38 39 38 37 31 31 30 30 30 32 32 29 27 25
37 39 37 35 40 43 46 45 45 45 46 46 46 46 46 46 45 46 44 41 41 40 41 39 35 34 34 36 38 39 39 39 36 35 30 29 30 30 29 30 29 29 27 28
39 38 35 35 43 42 43 42 45 44 44 44 45 43 44 44 45 45 43 42 40 41 38 36 35 35 35 37 38 39 40 37 33 30 29 28 28 27 27 27 26 36 35 39

GFSCGP_sfc_temp_075.txt.gz
Temp
47 41 37 37 43 41 40 36 38 44 51 49 47 48 53 58 55 53 51 53 55 59 58 57 56 56 55 56 58 59 62 61 63 64 63 63 63 64 64 65 67 67 66 66
42 37 43 46 46 43 41 37 35 44 49 48 46 47 52 55 52 53 53 51 54 56 56 55 55 54 54 53 54 56 58 59 60 60 61 64 63 64 64 64 64 65 65 64
37 43 48 46 43 40 37 34 35 39 44 45 44 43 47 53 50 53 54 53 53 55 55 53 53 53 53 53 53 55 56 57 58 58 58 58 61 62 62 62 62 63 64 64
42 48 45 42 40 41 34 43 43 41 38 32 43 29 39 48 50 50 52 52 52 52 52 53 53 54 53 53 54 55 56 56 56 55 56 56 56 58 58 58 59 59 62 63
36 42 40 40 41 45 39 44 43 41 36 33 35 31 36 40 40 48 52 52 50 51 52 53 53 55 54 54 53 53 55 54 54 53 54 53 53 53 53 54 55 56 56 57
40 44 42 40 43 45 45 42 41 37 34 24 34 33 32 38 42 45 48 47 52 49 50 51 53 54 52 52 53 52 53 52 52 52 51 51 50 50 50 50 50 50 52 53
37 38 43 43 38 44 42 36 29 26 26 24 32 32 40 43 45 47 48 45 47 48 48 49 50 50 51 50 50 52 52 50 51 50 49 49 49 48 48 48 48 49 50 50
30 30 38 41 37 37 36 35 26 21 22 24 31 27 36 45 47 48 50 47 46 46 47 48 49 49 49 49 48 49 49 49 49 48 48 47 48 47 46 46 47 46 47 48
28 29 41 43 42 40 35 34 36 26 23 19 27 32 41 43 44 45 45 46 45 46 47 48 48 48 47 47 47 47 47 46 46 46 45 43 43 44 43 43 43 43 44 49
35 28 39 42 45 43 40 41 31 25 20 18 24 26 34 37 41 42 43 45 47 48 48 47 47 46 46 46 45 45 45 44 44 44 44 42 41 42 41 41 40 41 42 43
38 34 34 40 37 37 37 36 36 34 27 22 21 27 37 39 41 42 44 46 49 49 48 45 45 46 46 45 44 44 44 43 42 42 41 40 39 39 39 39 38 39 40 40
40 34 30 35 41 43 42 39 38 25 25 22 20 27 40 38 40 44 45 49 49 49 47 46 45 44 44 44 43 42 42 42 41 41 39 39 39 38 37 37 37 38 37 38
43 33 28 30 35 41 36 40 41 35 29 19 21 29 43 39 39 45 45 47 48 48 47 46 45 43 43 42 42 41 41 40 40 39 38 38 37 37 36 36 37 37 37 36
47 34 32 28 31 33 32 35 39 36 24 25 24 34 39 41 42 44 45 47 46 48 48 46 44 43 42 42 41 40 40 40 39 38 38 37 39 41 41 41 39 40 38 37
42 32 32 33 35 34 33 33 35 33 36 29 35 33 41 45 45 47 48 46 45 45 45 46 44 43 42 41 40 40 39 38 38 37 36 36 41 42 41 40 40 40 40 40
37 27 27 24 35 34 31 35 34 35 36 36 37 34 46 47 43 46 47 46 44 45 46 46 45 43 42 40 40 40 39 39 38 36 36 38 41 40 39 39 38 38 38 38
35 29 24 22 31 31 25 34 35 35 37 37 30 42 42 43 46 46 45 45 47 46 46 45 46 44 42 41 41 39 38 38 37 36 37 40 40 38 38 38 37 36 36 37
32 30 26 21 26 16 33 39 39 38 42 40 41 41 45 46 46 47 46 46 46 46 46 45 44 42 40 39 39 38 38 37 37 37 38 39 38 37 37 36 35 35 35 34
37 33 27 23 22 28 35 35 35 34 36 42 40 44 44 45 42 42 46 46 47 46 46 45 43 41 39 38 37 37 36 36 37 38 38 38 38 36 35 34 33 32 28 24
37 38 32 23 21 20 33 38 41 39 30 41 42 42 41 41 36 39 45 46 45 45 44 42 39 39 37 36 36 35 35 35 37 38 38 38 38 36 34 33 33 32 26 22
33 33 29 28 28 28 38 41 42 28 32 42 41 41 41 38 41 45 44 43 43 41 40 39 38 38 37 36 36 34 34 34 38 38 38 37 37 35 34 33 31 31 31 32
29 31 29 29 27 24 41 40 36 40 41 42 41 40 42 43 42 41 42 41 42 41 39 39 36 35 35 36 35 33 33 36 38 38 37 36 35 36 35 33 28 27 25 24
29 33 30 31 31 41 41 42 44 45 44 44 45 44 46 44 42 42 42 43 42 41 41 40 36 35 34 35 36 33 36 38 38 37 36 35 35 35 33 28 27 26 25 24
34 37 34 35 40 40 42 42 44 46 44 47 47 48 49 47 43 42 42 41 41 42 41 40 37 34 33 34 35 36 38 39 38 36 35 34 32 29 28 29 29 27 25 25
35 37 35 34 38 40 43 44 45 44 44 44 45 45 46 46 45 45 43 41 41 41 40 40 38 36 34 34 34 36 39 39 37 36 34 30 29 30 27 28 27 28 27 28
37 36 34 33 41 42 43 42 44 44 43 44 44 43 44 44 44 44 45 44 42 41 39 37 37 36 36 35 35 38 39 38 37 36 32 29 27 27 27 26 26 36 36 38

GFSCGP_sfc_temp_078.txt.gz
Temp
45 40 35 36 41 40 39 37 36 41 49 47 46 48 49 52 50 49 54 58 55 57 57 56 55 54 57 57 58 60 63 63 64 63 63 62 62 63 63 64 66 65 64 64
40 37 41 46 45 42 40 36 33 40 48 46 46 47 52 54 51 53 55 58 52 53 52 53 54 51 55 55 55 57 58 59 60 60 62 63 63 63 63 63 64 64 65 64
36 42 46 45 43 40 36 34 34 36 42 43 44 42 46 52 55 55 56 55 52 53 54 53 51 52 52 54 54 56 56 57 56 57 57 57 59 61 61 62 61 62 63 63
40 47 44 42 40 41 33 41 42 41 38 33 41 31 39 50 50 51 55 55 53 52 51 52 51 51 51 52 54 55 55 55 55 55 55 55 55 56 56 56 57 57 58 60
36 42 39 38 41 44 38 43 41 39 34 33 32 30 37 41 42 51 57 53 51 51 51 52 51 52 52 51 51 53 54 54 54 54 54 53 52 51 51 52 53 53 54 55
40 45 41 39 42 45 46 41 38 35 32 28 32 32 33 39 43 46 49 52 55 51 50 51 51 51 49 50 50 51 52 51 52 52 51 51 50 50 50 50 50 50 51 51
37 39 42 43 38 42 42 37 24 22 27 25 30 29 39 43 47 48 50 50 49 50 48 49 49 48 49 49 49 50 50 49 49 49 49 49 48 48 48 48 47 48 48 48
32 30 38 42 37 37 36 36 25 20 21 23 30 26 36 44 48 50 50 49 48 45 45 47 48 47 47 48 47 48 48 47 47 47 46 46 46 46 45 45 45 44 45 46
29 30 41 44 41 40 35 31 36 29 22 18 27 31 40 42 44 45 45 45 44 45 45 46 46 46 46 46 46 46 46 45 45 44 43 42 42 42 42 42 42 42 42 47
35 27 40 40 45 42 39 39 30 29 20 19 23 24 31 39 42 43 43 43 43 45 44 44 44 44 44 44 43 44 44 44 42 42 41 41 40 40 40 40 39 40 40 42
37 33 34 40 36 36 37 35 34 32 27 20 20 27 35 38 42 41 42 43 43 44 45 44 43 43 43 42 42 42 42 42 41 41 39 39 38 38 38 38 38 38 39 39
41 32 26 33 39 44 43 39 38 30 26 23 19 30 40 40 40 40 41 44 45 46 44 44 43 42 42 42 41 41 40 40 40 39 38 38 38 37 37 36 36 37 37 37
40 30 25 30 36 40 36 39 40 36 31 19 26 29 42 40 40 40 41 43 45 45 44 43 42 41 41 41 41 40 39 39 38 38 37 37 36 36 35 35 36 36 36 35
47 34 30 25 29 33 33 35 39 36 31 32 28 32 39 41 42 43 43 43 43 45 45 43 42 43 42 42 41 40 39 39 38 37 37 36 37 39 40 40 39 39 38 36
43 31 33 35 36 34 33 34 36 33 36 30 32 33 41 46 45 45 45 44 43 43 43 43 43 43 42 41 40 40 40 39 38 37 36 36 41 42 41 40 40 40 40 40
40 31 29 25 34 33 31 33 34 35 36 37 38 37 46 48 43 43 46 46 45 44 45 44 43 43 41 39 40 40 39 39 39 37 36 38 41 40 39 39 39 38 38 39
33 31 26 23 30 30 24 33 34 34 36 38 33 41 42 42 45 46 44 45 47 47 46 45 45 44 43 41 40 38 38 38 37 36 36 39 40 39 38 38 37 37 36 37
32 30 28 22 25 17 32 38 38 37 40 39 39 42 44 46 46 46 46 47 46 48 47 46 45 42 42 41 40 38 38 36 36 36 36 38 39 38 37 37 36 36 35 34
38 33 30 26 23 27 35 33 34 33 35 40 40 44 45 43 42 44 46 47 48 46 47 47 45 43 41 40 39 38 37 36 36 36 37 38 38 37 36 34 33 33 31 23
36 38 35 25 23 19 31 36 40 38 29 39 40 40 39 40 36 41 43 44 45 46 45 44 42 40 39 37 38 36 36 35 35 36 38 39 38 36 34 33 33 32 25 23
31 32 29 28 27 28 37 40 39 26 32 39 40 41 39 37 41 43 43 42 43 42 41 40 39 38 38 36 37 35 34 34 36 38 38 38 37 35 34 33 32 26 27 27
31 28 29 29 27 24 40 38 34 39 40 40 40 39 39 41 41 40 41 40 40 39 39 40 37 36 35 36 36 34 33 35 36 37 37 36 36 36 35 33 32 31 30 24
29 33 29 31 31 40 40 41 42 42 42 42 41 41 43 42 40 41 40 39 40 40 39 39 38 35 33 34 35 33 34 35 35 37 36 35 36 35 35 32 28 25 23 23
32 35 33 34 39 38 40 41 42 43 43 43 48 47 46 44 43 41 41 40 41 41 40 39 36 37 34 33 34 35 35 39 37 36 35 35 34 33 32 29 29 26 23 23
34 34 33 32 37 38 42 42 44 43 44 43 43 44 44 45 44 44 43 42 41 40 40 39 39 38 37 35 34 35 37 38 37 36 35 34 33 34 27 27 26 27 25 27
37 35 33 33 40 41 42 43 43 43 43 44 43 41 42 44 43 42 43 44 42 42 40 38 37 36 36 36 36 36 37 38 37 35 34 33 32 29 27 25 26 35 36 38

GFSCGP_sfc_temp_081.txt.gz
Temp
45 40 38 39 45 43 43 43 42 44 50 46 45 47 50 52 52 51 55 57 59 60 64 64 64 64 63 63 66 69 69 70 70 69 68 68 69 69 69 70 72 71 71 70
40 38 42 45 47 44 42 39 39 45 48 48 46 45 51 51 52 53 54 58 59 59 62 63 62 62 63 62 64 65 67 67 68 69 69 69 69 69 71 70 70 71 71 69
35 40 46 45 43 41 39 38 39 40 46 48 46 43 46 52 53 54 56 58 61 61 60 61 61 60 59 60 61 62 63 63 64 65 65 65 66 66 67 67 67 68 68 68
40 46 44 42 41 42 37 44 43 42 40 35 45 34 42 49 48 52 55 60 62 59 58 58 58 58 58 59 58 59 60 60 60 61 62 63 63 63 63 62 63 63 63 63
37 42 40 39 42 45 40 45 42 41 38 38 38 36 40 46 47 51 55 58 61 60 60 59 58 57 57 57 57 58 58 58 58 59 60 60 60 59 58 59 60 60 60 59
40 46 44 42 43 45 46 42 40 37 36 29 35 36 37 42 47 50 56 60 62 62 59 59 57 56 55 55 55 56 56 56 57 57 57 57 57 56 57 56 57 57 58 57
37 39 43 44 39 44 44 37 28 25 27 26 34 32 40 48 49 51 53 54 57 60 56 55 54 53 53 53 53 54 55 53 54 55 54 54 54 54 54 53 53 54 54 53
32 29 40 43 39 37 38 38 28 21 23 26 33 30 39 48 50 52 53 52 53 51 52 53 54 54 53 52 52 53 53 52 52 52 51 51 52 52 51 50 51 51 51 51
32 32 42 44 43 41 37 34 38 30 26 24 31 35 43 46 48 49 49 50 50 51 49 52 52 52 51 51 51 52 51 50 50 50 49 49 49 49 48 48 49 48 48 51
37 29 40 42 45 43 41 41 32 31 22 21 28 29 37 43 45 48 49 49 49 49 48 48 49 49 50 50 50 50 51 49 48 48 48 47 46 46 46 46 45 45 46 46
38 34 34 39 37 36 37 35 35 34 30 25 24 32 40 42 45 45 46 47 47 47 47 47 48 48 48 48 48 48 48 47 47 47 46 45 44 44 44 44 43 43 44 44
40 35 31 35 41 44 43 38 39 32 28 25 25 33 45 44 44 43 44 46 47 47 47 48 47 47 46 46 46 47 47 47 46 45 44 44 43 43 42 42 42 42 42 43
40 33 27 29 36 40 37 40 41 36 34 21 26 32 44 43 44 46 45 46 46 46 46 47 46 46 46 46 46 45 45 45 44 44 43 42 42 42 41 41 41 42 41 41
46 35 31 28 30 33 31 35 38 37 30 32 31 35 43 46 45 46 47 46 46 47 47 47 45 45 45 45 45 45 44 44 43 42 42 41 41 42 42 43 42 43 42 41
42 32 33 34 36 35 34 34 35 32 36 31 35 36 43 46 49 47 49 47 45 46 45 46 46 45 45 44 45 44 44 43 42 41 41 41 43 44 43 42 42 42 42 42
40 32 32 28 36 34 31 34 34 35 37 37 38 37 48 50 46 46 47 46 45 46 47 47 47 46 45 45 44 44 43 42 42 41 40 41 42 42 41 41 40 40 40 40
35 31 29 27 32 31 24 32 35 37 37 38 33 41 46 45 46 48 49 47 47 48 48 47 47 47 46 45 45 43 42 42 41 40 40 41 41 41 40 39 39 38 38 38
33 32 31 28 28 19 34 40 39 37 40 40 40 43 45 46 48 47 47 48 48 49 49 49 48 46 46 45 44 43 41 40 39 39 39 40 40 39 38 38 37 37 37 36
40 34 29 26 24 28 36 35 34 34 36 40 40 43 45 45 44 46 48 48 51 50 51 51 50 48 45 44 43 42 40 40 39 38 39 40 40 38 37 36 35 33 32 32
37 39 33 26 21 20 32 37 40 39 30 41 40 40 40 40 34 42 47 47 48 48 48 48 46 44 44 42 42 40 39 38 38 39 39 40 40 38 36 34 33 33 32 31
31 32 30 28 26 29 38 40 40 29 33 41 42 42 41 37 42 44 44 44 45 44 44 43 43 42 42 40 41 39 38 37 39 39 39 40 39 37 35 34 33 31 31 32
32 29 28 29 27 25 41 38 35 40 41 42 42 42 41 40 43 42 42 42 42 41 40 40 40 39 38 39 39 37 36 38 39 39 39 38 37 37 36 34 34 33 32 31
30 32 29 31 32 40 40 41 43 43 42 43 43 44 43 42 42 43 41 41 41 41 39 40 39 36 36 37 39 37 37 38 38 37 37 37 37 36 36 34 33 32 30 29
34 36 31 34 39 38 41 41 42 44 44 45 49 48 47 44 43 42 41 40 40 40 40 40 39 37 36 37 37 38 37 38 37 37 37 36 35 34 35 34 33 31 29 28
34 35 32 32 38 38 41 42 44 43 44 44 44 45 46 45 45 44 43 41 42 42 42 41 40 39 39 37 38 38 38 40 38 37 37 35 35 35 33 33 32 32 31 32
34 34 33 32 41 40 42 42 43 43 43 44 44 43 44 45 44 45 44 44 43 42 42 40 39 39 39 38 38 37 38 39 38 36 35 34 34 34 33 31 30 36 36 37

GFSCGP_sfc_temp_084.txt.gz
Temp
44 42 45 50 53 52 53 50 49 53 56 54 54 56 60 64 62 63 67 71 73 72 75 73 74 76 73 71 73 73 74 77 79 78 77 77 76 77 79 80 81 81 80 80
39 39 52 52 53 52 52 50 48 51 55 54 55 54 60 63 62 64 65 68 72 73 73 72 72 74 74 73 71 71 72 75 75 76 79 79 79 79 80 78 78 79 79 78
36 42 52 51 49 48 50 49 49 49 53 55 52 51 55 61 63 64 66 66 72 72 71 71 72 71 71 72 71 72 73 74 74 74 74 74 75 74 75 75 75 76 75 75
43 48 48 49 48 51 44 51 51 49 48 42 53 44 53 59 59 61 64 66 67 69 71 70 70 68 68 69 67 69 69 70 70 70 73 74 75 74 76 74 73 72 70 70
39 42 45 46 48 53 47 51 51 49 48 46 46 41 53 56 55 59 63 65 65 67 71 67 68 69 68 67 66 68 68 68 68 70 72 73 72 72 70 70 68 69 68 66
41 49 50 51 49 51 52 49 49 48 47 36 47 44 49 53 57 60 64 67 65 66 70 70 73 71 67 64 63 63 65 65 66 67 68 68 68 67 67 66 66 66 66 65
38 41 47 49 47 50 50 46 34 33 32 34 44 43 49 59 61 62 62 66 69 67 69 71 68 66 65 62 62 62 63 63 65 65 65 65 65 65 64 63 64 64 64 63
33 30 42 49 48 44 47 46 37 27 32 38 40 38 51 60 62 64 64 65 62 64 65 66 68 66 64 63 63 63 64 62 63 63 62 63 63 64 63 62 63 62 62 62
38 33 44 46 48 49 43 37 47 37 36 36 43 46 55 61 60 61 60 60 61 64 62 59 62 63 65 63 63 63 62 61 61 60 60 60 60 59 58 58 59 59 58 58
45 33 42 42 47 47 46 51 36 36 28 29 38 41 48 54 57 60 61 61 61 61 61 60 59 59 61 62 62 62 63 61 60 59 59 58 57 56 56 57 56 55 56 55
47 43 36 40 38 37 39 40 42 43 41 34 35 42 56 53 57 57 60 58 57 59 58 58 59 58 58 59 59 60 60 58 58 58 57 56 55 54 55 54 54 53 53 52
47 43 34 38 46 49 48 45 45 36 34 39 37 42 55 56 56 56 58 57 57 56 57 58 58 57 56 56 57 58 59 58 58 57 56 55 54 53 53 52 51 51 51 51
45 38 31 32 39 43 39 45 45 46 41 32 34 42 54 55 55 56 58 60 58 56 56 57 58 57 57 58 58 57 57 57 56 55 54 53 52 52 52 51 50 50 50 50
50 40 39 36 38 43 36 42 45 40 33 37 38 44 53 55 55 57 60 61 60 57 56 57 57 58 58 57 57 57 56 56 54 53 53 52 52 51 51 51 50 49 50 49
42 33 39 41 41 41 40 41 42 35 39 34 42 44 49 55 58 60 61 59 58 57 56 57 57 58 58 57 57 56 56 54 53 52 51 50 51 51 51 49 49 47 46 46
41 33 34 33 39 40 36 41 43 43 42 43 44 43 56 59 60 58 58 58 56 58 58 58 58 59 58 58 56 56 55 53 52 51 50 50 50 49 48 47 45 44 43 43
40 35 33 32 35 33 31 38 41 42 45 44 38 47 55 54 54 55 57 59 58 59 60 59 59 59 59 59 58 56 55 54 51 51 50 49 49 47 46 44 42 41 41 41
36 37 37 34 34 25 43 45 46 44 47 49 48 50 53 54 57 56 59 58 59 60 60 61 61 60 61 61 58 58 54 51 49 49 47 47 47 45 43 41 40 40 39 39
41 38 33 31 32 39 43 43 41 41 43 50 48 51 52 54 52 51 57 58 60 62 63 62 63 63 61 58 57 54 51 50 48 47 47 46 46 44 41 39 37 35 34 33
39 42 37 31 29 28 43 46 48 47 39 49 48 49 50 49 44 53 55 57 59 62 61 59 60 59 58 57 56 52 50 49 47 47 47 47 46 44 40 37 35 35 35 33
32 34 32 32 31 38 48 48 49 37 43 51 50 51 50 46 52 52 53 53 52 55 57 57 56 56 56 53 52 50 48 46 48 47 46 45 44 42 39 35 35 34 34 37
35 32 33 35 30 29 47 45 42 51 51 52 52 52 50 51 51 51 50 50 49 49 49 52 52 51 49 49 49 47 44 46 45 44 43 43 42 40 37 36 35 35 37 38
33 40 40 41 42 48 50 53 56 54 53 53 53 53 52 50 51 51 50 50 50 50 49 50 49 45 45 47 49 45 45 45 44 44 43 42 41 39 37 35 34 34 37 38
36 37 38 40 49 48 50 53 53 54 54 55 56 54 49 49 52 51 50 50 50 49 49 50 49 48 45 47 47 49 46 46 45 44 43 42 39 36 36 36 36 36 37 37
41 38 35 41 46 50 52 53 55 53 52 53 54 54 54 53 52 52 51 50 50 49 49 49 49 48 47 46 46 46 45 46 44 44 42 40 38 37 35 36 35 35 40 40
42 40 37 39 44 46 51 52 53 52 51 52 52 51 52 53 52 52 52 51 50 49 45 42 42 42 44 42 44 45 46 44 44 42 40 39 37 36 35 35 34 38 39 38

GFSCGP_sfc_temp_087.txt.gz
Temp
44 43 45 52 56 56 56 54 55 59 61 57 56 58 63 68 67 65 70 74 76 78 79 77 76 77 79 78 80 79 79 79 79 77 76 74 75 76 80 82 83 84 83 83
42 44 54 58 58 54 54 53 52 55 59 57 58 57 63 67 67 68 69 71 74 78 79 75 74 75 76 75 76 78 78 77 77 78 79 78 76 76 78 78 79 80 81 80
37 48 54 54 52 52 53 52 50 51 55 58 56 53 58 65 68 69 70 71 73 73 79 78 74 74 75 75 75 74 76 77 77 77 74 71 71 72 75 76 77 78 78 77
43 51 50 51 50 54 47 57 56 52 49 44 56 44 58 63 63 65 68 70 71 72 77 79 75 73 71 73 73 74 74 75 73 70 70 69 69 70 73 74 76 74 73 73
42 46 47 48 52 55 50 56 53 52 48 48 49 43 54 63 59 63 67 69 71 72 74 76 74 72 71 70 68 71 72 72 71 71 72 72 71 73 70 72 71 71 70 68
44 52 53 53 56 55 56 52 52 51 47 34 48 46 49 57 60 64 69 71 72 72 73 75 74 73 71 69 67 68 68 69 69 69 71 71 71 70 68 68 68 68 68 67
39 44 52 51 48 53 52 48 35 32 31 34 50 47 51 62 65 66 66 69 72 74 73 72 72 72 72 66 65 65 65 65 68 68 69 69 68 68 67 66 66 66 66 65
34 31 45 54 50 46 48 48 38 30 34 40 47 40 50 64 67 70 69 69 68 70 73 71 71 73 70 66 63 64 66 65 66 66 66 67 67 66 65 65 64 64 64 63
35 35 48 50 53 50 45 41 53 40 43 38 45 50 58 63 63 64 65 65 66 68 68 68 66 65 70 66 65 65 66 64 65 65 64 64 64 63 62 61 62 61 60 60
43 33 44 46 50 51 45 53 38 38 29 30 42 44 48 56 59 63 64 64 66 67 67 68 65 62 67 67 66 66 66 64 64 63 64 62 61 60 60 60 59 58 58 57
51 42 38 41 39 43 43 41 44 45 44 35 36 43 58 58 61 59 62 62 62 63 65 66 65 63 64 65 64 63 64 63 62 62 61 60 58 58 58 57 56 55 55 55
51 44 34 37 46 51 49 45 46 37 36 41 40 41 60 60 60 60 61 61 62 61 62 63 64 62 61 60 60 62 62 61 61 61 60 59 57 57 56 55 54 55 54 54
49 38 32 33 39 44 39 44 46 47 46 33 34 42 58 59 58 60 61 63 65 61 60 61 61 60 60 59 60 60 60 61 60 59 58 57 56 56 56 55 54 53 52 52
48 41 38 34 37 45 37 43 46 42 33 38 39 45 54 57 55 58 61 65 65 65 61 62 60 60 61 61 61 60 59 58 57 57 57 56 56 56 55 54 53 52 52 51
39 33 39 43 44 45 42 43 44 37 40 35 43 45 52 56 58 62 66 65 63 62 62 61 61 61 62 61 60 61 60 58 56 55 54 54 54 55 54 53 52 50 49 49
41 34 35 33 37 43 39 44 45 45 44 43 44 45 57 60 62 61 62 62 61 61 62 63 62 62 62 61 60 60 58 57 56 55 54 54 54 53 51 50 49 48 46 45
34 34 33 31 36 34 31 39 43 45 48 47 40 48 57 56 57 58 59 60 60 62 63 63 63 62 63 63 62 60 59 58 55 54 54 52 52 51 50 48 46 44 43 43
33 32 35 32 33 26 45 49 51 48 50 52 51 53 55 57 59 60 62 60 60 62 64 64 66 65 65 65 64 63 60 57 54 54 53 52 51 49 48 46 44 42 41 40
36 34 32 31 32 42 46 44 44 43 45 53 51 55 57 58 57 55 61 62 61 62 65 67 67 67 66 65 64 61 58 56 53 52 51 51 50 48 45 42 41 37 35 34
36 35 34 33 28 29 43 48 52 52 40 54 53 53 53 53 45 53 56 57 57 62 64 65 66 66 66 64 62 58 55 53 52 51 51 50 49 47 43 40 37 36 35 33
32 32 30 34 33 40 51 50 52 37 43 53 53 53 53 49 54 56 56 56 55 55 62 62 62 63 63 62 59 55 54 51 53 52 49 49 48 45 42 37 36 35 35 36
35 33 32 34 31 30 52 48 43 51 54 55 55 55 53 54 55 54 55 53 53 52 52 57 57 58 58 56 55 53 49 51 50 49 47 46 46 43 40 38 36 36 36 36
35 39 35 42 42 50 53 55 57 58 57 57 56 56 56 54 54 55 53 54 53 53 52 54 52 48 49 51 54 50 49 49 47 46 45 45 44 42 40 37 35 34 36 36
41 38 37 42 49 52 54 56 57 58 57 59 59 58 56 53 55 55 54 53 53 53 53 53 52 50 48 51 52 53 50 49 47 46 45 45 42 40 39 37 36 35 35 36
44 42 37 39 46 50 55 55 55 56 58 56 57 57 56 56 55 55 54 53 53 52 52 53 53 52 50 51 50 51 50 49 47 47 46 43 41 39 36 36 35 35 38 40
45 42 39 39 45 45 50 53 54 53 54 56 55 54 54 55 54 55 54 54 51 52 50 49 48 49 49 49 48 48 47 48 47 46 42 42 39 39 36 34 33 39 40 41

GFSCGP_sfc_temp_090.txt.gz
Temp
44 41 39 46 50 53 52 49 48 53 56 52 53 54 56 62 60 57 59 61 64 67 69 69 69 70 71 72 72 71 71 72 70 68 67 66 67 68 71 74 77 78 77 77
41 39 50 55 55 53 48 47 46 51 55 51 52 51 57 60 61 60 60 60 63 66 66 65 66 67 68 68 69 71 72 70 69 71 70 67 68 67 68 70 71 72 71 73
38 44 53 53 51 49 48 45 46 46 52 51 47 45 51 59 61 62 63 63 64 64 63 64 63 64 66 66 67 69 69 70 70 71 67 65 66 67 67 67 68 69 72 71
44 51 49 49 48 50 43 54 49 47 44 35 49 32 46 54 56 60 59 59 61 62 65 65 64 62 63 65 66 67 68 68 68 66 64 65 64 63 64 66 67 65 67 66
40 44 45 45 49 52 47 54 50 48 43 40 43 34 42 51 52 56 59 60 61 62 64 64 65 63 62 61 60 63 66 66 64 64 65 64 64 63 62 62 64 65 63 63
44 50 48 48 54 54 55 48 48 45 41 27 38 38 37 45 51 54 58 61 63 62 63 64 64 63 60 58 59 60 62 64 64 63 63 63 63 61 61 60 60 60 61 59
39 42 50 51 44 48 48 41 29 26 28 24 44 39 42 51 56 55 57 55 59 62 62 63 61 60 59 56 56 58 60 59 60 61 61 63 61 61 60 59 58 57 58 57
28 30 42 50 45 41 42 41 31 25 25 29 44 32 41 55 57 58 61 58 58 59 59 61 61 61 59 57 58 57 57 58 60 59 59 59 59 58 58 58 57 56 56 55
34 33 47 50 52 49 40 34 46 33 36 26 35 41 50 55 54 54 54 56 55 55 57 56 59 60 58 58 59 59 60 59 59 58 58 58 57 57 54 55 56 55 53 56
41 31 43 46 49 48 42 46 34 30 19 23 31 35 39 46 51 54 52 52 54 55 55 56 57 57 57 58 60 60 58 58 58 58 57 57 56 55 54 54 52 51 52 51
44 38 36 41 38 38 39 37 38 39 34 23 24 33 45 48 50 51 51 53 53 54 55 55 55 56 57 56 58 60 59 58 56 57 55 54 53 53 53 50 50 50 50 50
48 37 32 36 44 48 47 42 40 31 31 32 27 32 50 51 52 54 53 55 54 53 53 54 54 53 53 53 53 56 56 56 56 56 55 53 52 52 50 49 49 49 48 47
45 33 29 32 37 43 38 42 44 41 37 28 26 32 52 52 50 53 52 54 54 54 53 53 52 51 51 50 51 52 54 54 54 53 51 51 50 50 50 49 49 49 47 46
44 37 34 31 34 39 33 39 43 39 31 32 33 39 47 49 50 52 52 54 52 55 55 53 51 50 51 51 51 51 52 52 51 52 51 49 49 49 48 48 48 47 47 45
38 31 35 40 43 40 37 39 41 35 37 32 38 41 48 52 53 50 53 55 55 55 55 53 51 50 51 51 51 51 51 50 50 49 48 48 49 50 48 47 46 45 44 44
36 32 32 33 38 36 34 40 43 42 41 40 41 41 52 54 55 54 54 55 54 53 56 56 54 53 52 50 51 52 51 49 49 47 47 48 47 47 46 45 44 43 41 40
32 31 31 28 34 32 29 34 40 42 45 43 35 44 51 50 52 52 52 54 54 55 55 56 55 53 53 52 52 50 49 49 48 47 47 47 47 45 44 42 41 41 38 38
31 29 30 30 31 23 39 44 46 44 46 47 47 48 51 50 51 52 52 50 52 55 55 56 55 54 55 54 53 52 51 49 47 46 46 46 46 44 42 41 40 40 37 37
37 32 28 28 27 37 39 40 41 39 38 47 46 48 50 51 47 47 52 50 49 51 54 55 56 56 55 54 53 53 49 48 46 45 45 45 45 42 40 39 39 36 34 34
36 36 31 30 25 25 37 42 48 46 31 47 48 47 47 46 36 42 48 50 50 50 51 53 54 56 54 53 54 51 47 45 44 45 45 45 44 41 39 39 37 35 34 33
30 31 26 29 28 35 43 45 47 29 33 47 48 47 45 42 44 47 49 48 48 48 48 51 52 51 53 52 50 47 45 44 45 46 45 44 42 40 37 37 35 34 34 34
31 28 29 31 26 26 44 44 37 43 46 48 48 47 47 48 48 47 48 47 48 47 48 49 48 46 47 49 48 45 43 44 44 43 43 41 40 40 39 37 35 35 35 34
30 34 32 34 35 45 46 45 49 50 48 48 48 48 49 48 48 49 48 46 46 46 47 46 43 42 43 46 46 43 42 43 42 41 40 39 41 40 38 36 34 34 35 35
33 37 34 35 43 44 46 48 48 49 49 50 52 51 49 46 48 49 48 47 46 46 45 45 43 41 41 44 46 44 43 43 41 39 39 38 40 38 38 36 35 34 34 34
34 36 36 33 39 44 46 45 46 47 49 50 50 50 50 48 49 48 47 47 46 45 45 46 44 43 42 43 43 44 43 43 41 40 38 37 39 38 35 35 35 34 36 38
35 34 30 30 39 38 40 45 48 46 47 48 48 46 47 48 48 48 46 46 47 47 44 42 42 42 42 42 42 42 44 45 44 42 39 38 38 37 35 33 33 39 39 41

GFSCGP_sfc_temp_093.txt.gz
Temp
42 38 34 39 43 46 47 46 45 48 51 48 47 49 54 58 54 55 55 58 59 60 64 66 68 69 69 68 69 69 69 69 69 68 70 66 70 69 71 73 75 76 75 74
38 35 43 49 49 48 46 44 44 46 53 49 47 47 55 58 55 55 56 56 58 59 60 62 64 65 67 68 68 69 70 70 69 70 69 67 68 66 66 67 68 68 69 69
35 41 49 48 46 46 43 41 43 42 49 48 45 40 48 57 55 57 58 59 60 60 59 58 59 62 64 65 65 67 69 69 70 69 66 64 64 65 65 66 66 66 67 66
39 48 46 44 44 47 39 50 49 46 41 33 46 28 39 51 51 55 55 55 58 59 58 61 59 58 58 64 64 66 66 68 68 66 65 64 64 64 64 65 66 65 66 64
36 41 41 41 45 49 45 50 47 45 41 36 38 32 37 44 46 52 52 53 56 60 61 61 61 62 60 59 60 61 63 64 63 65 66 64 63 63 62 62 63 62 62 63
40 47 44 44 49 50 51 47 45 45 39 25 34 34 33 40 47 49 53 57 58 58 60 60 62 60 58 56 57 58 60 60 61 60 61 63 62 60 59 58 57 59 58 59
35 39 45 48 41 47 45 39 28 22 21 22 37 33 39 47 51 52 53 53 54 56 58 57 55 56 55 55 55 56 58 57 58 58 58 59 60 58 59 57 57 57 56 55
23 23 39 47 42 39 40 38 27 23 21 25 39 29 38 50 53 53 56 55 55 55 55 56 58 57 55 55 54 55 55 55 57 57 56 57 59 58 57 58 58 56 54 54
28 30 44 47 48 46 38 32 42 30 30 22 30 36 46 50 52 51 54 54 53 54 55 54 54 55 54 54 53 54 54 54 55 55 54 53 54 56 55 52 52 53 52 54
39 28 40 44 47 45 42 44 33 31 25 22 27 31 36 41 48 51 48 47 50 53 54 54 54 53 53 53 53 54 55 55 54 54 56 55 52 52 52 51 50 51 50 51
43 37 35 41 37 36 37 35 37 35 32 23 24 30 43 43 47 47 48 49 49 50 51 52 52 53 52 52 52 53 55 56 55 56 54 52 52 51 49 49 50 50 50 50
43 37 31 36 43 47 45 39 39 26 27 28 25 31 47 46 47 49 49 51 50 51 51 50 50 50 49 50 51 52 52 56 56 54 53 51 52 49 49 49 49 49 48 47
41 34 27 31 35 41 36 40 40 38 33 22 24 29 48 46 48 49 49 49 50 50 50 50 48 48 48 48 49 50 50 51 51 55 53 51 50 49 46 49 48 48 47 47
43 32 30 27 31 37 34 38 41 36 30 27 27 35 44 44 47 48 50 51 49 50 50 49 48 47 47 47 48 48 48 49 49 49 50 49 48 48 48 47 47 46 45 45
37 30 34 34 38 37 36 37 38 33 35 31 37 39 46 49 49 50 50 52 49 51 50 49 49 48 47 47 47 48 49 48 48 47 46 46 47 47 47 46 45 45 44 42
35 30 32 29 36 36 34 39 39 39 38 38 38 38 50 53 49 50 49 51 51 52 53 52 51 49 48 46 47 48 47 47 48 47 46 46 46 45 44 43 42 41 40 40
29 29 23 26 34 32 29 33 37 40 42 40 33 43 51 48 49 49 50 50 50 51 52 53 51 51 51 49 50 48 47 46 45 45 45 45 45 44 42 41 40 38 37 38
27 26 24 24 31 22 37 44 44 41 44 46 45 46 49 50 50 50 50 49 50 51 52 53 52 50 51 52 52 50 48 47 45 44 44 44 44 42 41 39 38 37 36 36
32 27 22 24 27 32 39 42 39 36 38 45 43 46 48 48 45 43 47 47 46 47 49 49 51 51 51 52 52 50 47 46 44 44 44 44 43 40 39 37 36 34 33 32
33 32 29 27 24 24 36 41 46 44 32 45 44 44 44 44 36 40 45 47 47 47 47 47 48 50 49 50 51 49 46 45 44 43 43 43 43 40 38 36 35 36 35 34
29 30 26 27 27 31 43 44 46 31 32 44 46 45 43 40 42 45 46 46 45 45 46 47 46 47 49 48 51 48 44 44 44 44 43 43 41 39 37 35 36 35 34 34
30 27 27 29 24 23 44 42 36 41 44 45 45 44 44 44 45 45 45 45 45 44 45 44 42 41 43 46 49 44 43 42 43 42 42 40 39 39 37 35 36 35 35 34
26 31 31 33 32 40 42 43 44 44 45 46 46 46 47 46 45 47 46 44 44 44 43 43 41 41 42 44 45 42 41 42 41 41 39 38 37 37 36 35 35 34 35 34
29 33 30 32 40 42 40 43 43 44 44 46 49 48 47 45 47 45 46 44 44 44 44 42 41 40 41 42 44 42 41 41 41 39 37 37 36 36 37 37 35 34 34 34
30 32 30 30 35 38 40 43 42 44 45 45 47 49 47 47 47 45 45 46 45 43 43 43 41 40 40 40 41 41 41 41 39 38 37 36 38 37 35 36 35 35 36 37
31 31 27 26 33 34 36 42 44 43 43 45 45 47 46 47 46 45 45 45 45 46 44 41 39 39 39 39 39 40 40 40 39 40 39 39 38 37 35 34 34 39 39 40

GFSCGP_sfc_temp_096.txt.gz
Temp
42 38 34 37 40 41 45 42 42 45 50 47 46 46 51 53 54 55 53 53 54 58 63 63 64 66 64 65 65 68 68 69 70 69 69 67 65 68 70 72 73 74 74 72
38 33 41 46 46 44 43 42 40 45 50 46 47 45 52 53 54 56 53 54 55 56 59 62 62 62 64 67 67 67 68 67 68 68 68 68 66 67 69 68 69 70 71 70
33 39 47 46 44 42 40 39 40 42 47 47 45 42 47 53 57 56 55 56 57 58 57 58 60 61 62 63 65 67 68 67 69 68 65 64 65 65 64 64 65 66 66 67
38 46 44 42 42 44 36 47 48 45 41 34 45 30 38 45 52 54 54 53 55 56 56 58 60 58 60 62 64 68 68 68 68 67 65 66 67 65 65 65 64 64 65 65
35 39 39 39 42 46 41 48 45 44 39 38 37 34 36 41 44 51 50 52 55 56 56 58 59 62 60 59 59 61 63 64 64 65 66 64 62 63 62 62 63 61 60 62
39 45 42 42 47 47 49 45 44 42 36 29 35 36 35 38 44 50 52 54 57 59 56 57 59 60 57 56 57 58 60 61 62 62 62 62 62 61 59 58 59 57 58 58
34 37 43 46 40 45 46 39 29 27 27 27 34 33 39 45 47 50 51 52 53 55 56 55 56 55 54 55 55 56 58 58 58 59 59 60 60 59 59 58 58 57 56 56
22 22 38 45 41 38 39 36 28 22 23 26 36 28 38 49 52 52 54 50 52 53 52 53 55 55 55 55 54 55 55 55 55 55 55 56 57 56 56 56 57 56 56 55
27 28 41 44 45 44 37 33 42 30 27 22 30 36 45 49 47 46 49 50 47 48 52 53 53 53 54 53 54 55 54 54 54 53 53 52 53 54 53 53 56 55 55 54
37 30 38 43 46 44 40 44 33 31 24 22 25 28 36 40 45 47 46 46 46 48 49 50 50 51 51 51 51 52 53 53 52 52 51 51 51 51 50 52 50 49 49 51
40 35 32 39 37 35 37 34 36 36 34 24 24 28 40 43 46 46 46 47 47 47 48 49 49 50 51 50 50 51 52 52 51 52 52 50 51 52 50 48 48 50 49 48
40 37 31 34 41 43 41 39 40 30 26 27 25 31 45 42 46 47 46 48 47 48 48 48 48 49 48 49 49 50 50 51 52 54 53 50 51 51 51 48 48 50 49 49
42 33 28 30 35 40 36 39 39 35 32 23 24 30 45 41 45 47 47 47 49 49 48 48 47 48 48 48 48 48 49 49 49 50 49 48 47 48 49 48 49 49 48 47
42 32 30 24 29 35 32 36 39 36 29 27 25 31 40 42 45 46 46 46 45 47 49 48 46 46 46 47 48 47 47 48 48 47 46 46 45 46 47 47 47 47 46 44
37 26 31 34 36 35 34 35 36 33 35 29 34 35 43 45 46 45 47 49 48 49 48 48 48 47 45 45 46 47 47 46 46 46 45 45 45 47 45 45 44 45 44 44
34 28 23 26 34 35 33 36 37 36 37 38 35 36 47 51 48 42 45 49 48 48 49 50 50 48 47 45 46 47 46 46 46 44 44 45 45 44 43 42 41 40 40 40
26 23 17 19 32 32 27 33 36 36 39 38 33 41 48 47 48 48 48 48 49 49 50 50 50 49 47 47 48 47 46 45 44 44 44 44 44 42 41 40 39 38 37 37
26 23 23 17 29 22 37 42 42 40 42 44 42 43 47 49 51 49 46 46 48 49 49 50 49 49 49 49 48 47 46 46 44 43 43 43 42 41 40 39 38 37 36 36
30 26 20 21 24 31 37 39 38 36 38 42 42 45 48 47 43 42 46 46 44 46 48 48 48 49 49 48 50 48 46 45 44 42 43 42 42 40 38 37 36 34 33 32
32 34 28 26 24 23 34 41 43 42 32 43 42 42 43 43 36 40 44 45 45 46 46 46 46 46 47 48 48 47 45 44 44 43 43 42 42 40 38 36 35 35 35 33
26 25 20 20 19 30 37 40 43 27 31 43 44 43 43 40 42 45 45 44 44 44 44 45 44 44 45 45 48 46 43 44 45 43 42 42 41 39 37 35 35 32 35 35
29 23 23 27 21 22 38 39 32 35 40 45 44 43 43 44 44 44 44 43 43 43 43 42 41 41 41 44 47 44 43 43 42 42 42 41 39 39 37 36 33 35 36 35
29 30 30 30 29 38 39 37 42 42 41 41 42 46 45 45 44 45 44 42 42 41 42 41 40 40 40 42 43 41 39 42 41 40 40 38 37 36 35 33 33 35 35 34
27 31 28 30 35 40 36 40 41 42 41 42 43 44 47 44 45 44 44 43 42 42 42 41 40 39 39 40 42 42 43 41 41 39 38 37 36 35 35 35 36 35 34 34
28 29 28 28 32 34 36 38 42 42 43 43 43 44 45 46 45 44 43 45 44 43 42 41 40 39 38 39 39 40 40 40 39 38 36 36 36 36 35 36 36 35 37 37
28 28 26 25 31 31 33 38 43 43 42 42 41 42 44 46 46 45 44 44 43 44 42 40 39 39 38 38 38 39 39 39 38 36 36 38 38 37 36 35 34 40 40 40

GFSCGP_sfc_temp_099.txt.gz
Temp
42 37 37 35 39 40 42 41 40 44 48 45 43 44 49 53 51 49 51 52 54 55 59 61 61 62 63 65 66 66 66 67 68 66 66 66 66 66 66 68 73 74 73 72
37 33 40 44 45 43 41 39 37 45 48 46 44 44 48 50 50 50 51 52 53 54 57 59 60 60 62 63 65 65 67 66 69 69 67 67 66 66 67 67 68 71 70 70
32 38 46 45 42 41 38 35 36 41 45 46 44 41 44 49 54 53 55 53 54 56 58 58 58 59 59 61 63 66 67 67 68 66 65 63 64 64 63 64 65 67 69 68
37 44 42 41 40 43 35 45 45 42 39 32 44 32 37 48 49 52 54 51 52 53 54 58 58 57 58 60 63 64 66 66 67 65 64 64 66 64 66 64 64 64 65 65
35 38 37 38 41 43 40 47 45 42 39 36 37 31 38 43 43 49 53 51 51 54 55 56 58 59 59 59 59 61 63 64 63 63 64 63 63 63 62 61 62 63 62 63
38 44 41 41 45 45 46 41 40 39 37 30 34 34 34 37 44 46 51 53 54 57 56 55 56 57 56 55 57 59 61 61 62 62 62 62 62 60 59 59 60 58 58 59
33 36 42 44 38 43 42 35 29 26 28 24 33 34 36 45 45 48 51 53 54 57 57 54 54 54 54 54 55 56 58 59 60 60 61 61 60 59 59 59 58 56 56 57
23 22 36 43 40 37 36 35 26 21 23 25 35 30 36 48 49 50 51 51 51 51 50 52 54 55 53 54 54 54 55 57 57 57 59 59 59 58 57 56 56 56 56 56
26 28 39 42 43 43 36 29 38 31 25 21 30 34 43 48 49 47 47 49 49 47 50 51 52 53 54 52 53 53 53 53 53 53 53 53 53 53 53 53 54 54 54 54
34 25 36 41 44 42 39 41 31 30 23 20 25 27 33 41 46 46 45 47 47 49 49 49 48 50 50 50 50 51 52 52 51 52 51 51 51 51 51 51 50 50 51 51
38 33 32 37 35 34 35 32 35 35 32 21 22 27 38 42 45 47 48 46 45 47 49 47 47 48 48 48 49 50 50 51 50 50 49 48 48 48 49 48 48 48 48 49
38 35 29 31 39 41 41 39 39 30 26 25 21 28 42 40 44 47 46 46 45 47 48 47 47 47 47 48 49 49 49 50 49 49 48 47 47 47 47 48 49 50 48 48
39 31 24 25 35 39 36 38 40 37 33 24 22 28 44 43 43 44 47 46 47 46 45 47 47 47 47 47 47 48 48 48 48 48 47 46 46 45 45 45 45 48 47 47
41 32 27 21 29 33 31 35 39 37 28 27 29 31 39 43 45 44 44 46 47 47 48 46 46 46 46 47 47 46 46 47 47 47 46 45 45 45 46 47 46 46 45 46
37 29 32 32 34 35 33 34 36 33 35 29 32 34 42 45 45 47 46 46 46 48 48 48 47 47 45 45 45 45 46 46 46 45 45 45 45 45 44 44 43 43 42 42
32 19 27 19 33 33 31 35 36 36 36 36 33 33 44 48 43 43 47 47 47 48 49 49 48 47 47 45 45 46 45 45 45 44 44 44 44 43 42 41 41 40 39 39
26 24 23 16 27 26 22 32 35 37 38 37 32 40 47 46 45 44 46 46 47 48 49 49 49 48 47 46 47 46 45 44 44 44 43 43 42 41 40 40 39 38 37 37
25 22 26 16 27 18 35 41 39 37 40 40 39 41 46 49 52 51 48 46 46 47 48 48 47 47 47 46 46 45 45 44 43 43 43 42 42 40 39 38 38 36 35 35
28 24 20 20 22 27 35 36 35 34 35 40 39 43 45 47 44 43 47 46 45 44 46 46 45 45 45 46 46 45 43 43 43 42 43 42 42 40 38 37 36 33 33 32
30 31 28 26 19 18 29 36 39 39 31 39 39 39 41 42 35 40 45 44 43 43 44 44 45 45 45 46 45 43 43 43 44 44 44 42 42 40 38 36 34 35 35 33
27 27 20 18 16 25 34 37 39 27 28 38 40 42 40 39 41 44 44 43 42 43 43 43 42 42 43 44 45 43 43 44 46 43 42 42 41 39 38 35 35 34 35 35
24 25 25 24 20 18 36 37 32 35 39 39 39 41 42 43 43 43 43 42 42 41 42 41 40 40 40 42 43 41 41 42 42 42 41 40 39 39 37 36 35 33 33 34
25 30 28 27 27 36 36 36 40 39 38 38 38 40 41 44 45 45 43 40 41 40 41 41 39 39 39 40 42 40 39 41 41 40 39 39 38 37 37 35 33 33 35 35
26 30 29 30 32 33 35 37 40 42 40 40 41 41 41 40 44 43 43 43 41 41 40 39 39 38 37 38 39 40 40 44 43 41 37 36 36 35 34 34 34 33 34 35
27 27 26 26 29 32 33 35 36 38 40 42 41 41 41 40 43 42 43 43 42 41 41 39 38 37 37 37 37 38 42 43 41 40 38 37 37 35 33 34 35 35 37 38
27 27 25 25 30 30 31 35 39 38 40 41 41 41 42 42 43 43 44 43 42 42 41 39 38 38 38 38 38 38 39 41 40 38 35 35 35 35 36 36 35 41 40 41

GFSCGP_sfc_temp_102.txt.gz
Temp
44 40 37 39 37 40 41 39 38 41 46 43 42 44 48 49 48 47 48 50 53 56 58 60 62 63 64 65 66 67 68 69 68 66 65 65 66 65 65 67 69 69 69 68
37 35 43 43 42 42 39 38 37 42 46 45 42 43 50 49 47 48 49 50 52 53 57 59 59 61 62 64 65 65 68 69 69 68 68 67 68 66 67 67 67 68 68 67
33 37 46 45 40 40 37 34 37 39 44 45 41 40 43 48 48 51 52 52 52 54 55 57 58 59 60 62 63 64 66 66 67 67 66 64 64 64 64 65 65 66 68 69
35 41 41 39 39 40 33 42 43 41 38 32 43 32 39 45 47 50 51 49 52 52 53 55 58 58 58 60 63 65 65 65 66 65 65 63 64 64 64 63 64 65 66 65
34 36 36 37 39 42 38 43 42 41 36 33 35 32 37 44 44 49 52 52 50 52 53 54 55 59 60 60 59 62 63 63 64 63 64 63 63 63 62 62 62 62 62 63
36 41 39 38 43 43 45 40 39 37 36 27 33 34 34 38 44 50 55 52 52 53 53 55 56 56 57 55 57 59 61 62 62 62 63 63 63 61 59 59 60 60 60 60
32 34 40 42 36 41 40 35 28 26 27 24 32 31 38 44 45 48 49 49 51 52 53 52 53 53 55 54 54 56 59 60 60 61 62 63 62 61 60 59 59 58 57 57
22 22 35 41 38 35 34 34 24 21 21 22 32 28 35 46 49 50 50 50 48 49 50 51 54 55 54 54 53 53 55 58 58 60 60 61 62 61 60 58 57 58 57 56
26 27 38 40 41 41 35 28 37 26 24 19 27 32 42 47 48 48 47 48 46 47 49 48 51 52 54 53 53 53 53 54 55 56 58 58 57 57 57 55 55 54 54 54
33 23 34 40 42 40 40 40 30 32 24 21 23 25 31 40 44 45 47 45 46 47 48 48 48 49 48 48 50 51 52 53 52 52 52 52 52 52 52 51 51 51 50 50
37 34 30 36 32 32 36 35 34 34 30 21 20 27 36 40 44 46 47 45 46 46 47 48 48 47 46 47 48 49 50 50 50 50 49 49 49 49 49 49 49 49 50 50
37 34 26 31 38 41 41 36 35 29 25 24 21 27 40 39 41 44 45 47 47 45 46 46 46 46 46 47 47 48 48 49 49 48 47 47 46 46 45 45 46 47 46 47
36 27 22 22 34 37 35 37 38 35 31 21 21 27 42 38 41 43 44 43 45 47 45 45 46 45 45 46 46 47 47 47 47 47 46 45 45 44 44 44 44 44 44 44
40 29 22 17 23 31 26 34 35 35 29 25 28 28 37 41 43 43 45 44 44 46 48 48 47 46 45 46 46 46 46 46 46 46 45 44 44 43 43 43 43 43 43 43
32 17 26 32 32 33 32 32 33 32 34 27 29 33 41 43 42 43 42 46 46 45 47 47 48 48 46 45 45 45 45 45 45 45 44 44 44 44 43 43 43 43 42 42
31 15 24 19 29 29 29 33 35 35 33 34 33 32 41 46 40 43 44 44 44 45 48 49 48 47 47 46 45 45 45 44 45 44 44 44 43 43 42 41 40 40 39 39
25 25 17 17 27 29 20 30 34 35 37 38 32 39 45 43 43 43 45 45 45 48 49 49 49 48 47 46 46 46 45 44 43 43 43 43 42 41 40 40 39 38 37 37
23 21 26 18 25 13 31 39 38 36 38 41 39 40 44 44 47 50 47 46 47 47 47 47 46 46 46 46 45 45 44 43 43 42 42 42 41 40 39 38 37 36 35 36
26 23 17 20 21 25 33 34 33 34 32 38 35 39 42 45 42 42 45 45 44 43 45 45 43 44 44 44 44 43 42 42 42 42 42 42 41 39 38 37 36 33 33 33
30 28 21 18 18 16 26 36 37 35 27 38 37 37 38 40 34 41 45 44 45 44 43 43 43 43 42 43 43 42 41 41 41 42 42 41 41 40 38 37 34 36 35 34
23 23 19 17 15 23 33 37 38 28 28 37 38 38 37 36 41 44 46 45 45 42 42 42 40 40 42 42 42 41 40 41 43 42 41 41 40 39 38 35 36 35 35 35
23 22 25 23 20 16 35 35 31 34 36 37 37 39 38 40 42 44 43 42 42 42 42 41 39 39 40 41 42 41 40 41 42 42 41 41 39 39 37 36 36 35 35 33
22 27 24 25 26 34 38 34 36 37 36 37 37 39 39 40 41 43 43 40 41 40 40 40 38 38 38 38 41 40 40 41 40 40 39 38 38 37 36 36 34 33 33 33
24 28 27 29 30 31 34 35 38 37 36 38 40 38 40 38 39 40 43 42 41 40 39 39 38 37 37 37 38 39 39 40 40 40 40 37 36 35 35 34 35 34 32 32
26 27 26 25 28 30 32 32 33 36 37 38 39 40 41 39 40 40 41 41 41 41 40 39 38 37 36 37 37 38 39 40 40 41 39 38 37 36 36 35 35 34 35 38
26 26 25 25 29 29 30 33 35 34 35 37 37 38 42 41 39 40 41 41 41 40 39 40 38 37 37 36 36 37 40 42 41 39 38 38 38 36 36 35 35 41 41 42

GFSCGP_sfc_temp_105.txt.gz
Temp
46 42 38 40 41 42 42 40 37 40 44 42 41 44 49 53 53 53 53 54 55 56 59 61 64 68 66 67 68 68 68 68 67 66 65 65 68 68 70 72 73 72 72 72
40 37 43 44 43 43 42 39 38 42 45 44 41 42 50 51 52 54 54 54 55 57 58 59 61 64 66 68 68 68 69 68 68 67 66 67 66 67 68 70 71 71 72 71
36 40 45 45 42 41 40 39 38 40 44 45 42 40 45 50 51 54 55 55 56 58 60 60 59 60 64 65 67 67 68 68 67 68 66 65 66 65 65 67 66 66 70 70
38 43 42 41 40 42 38 45 45 42 39 33 43 33 42 47 49 53 58 56 57 57 58 59 59 62 62 63 65 66 67 68 67 68 67 64 63 64 66 66 66 67 66 67
36 38 37 38 40 43 40 45 43 42 38 37 38 34 39 44 44 50 54 57 57 57 58 60 60 62 63 62 63 65 65 68 67 68 66 66 65 68 68 67 66 64 66 67
38 43 41 40 43 44 45 41 40 39 38 30 36 35 37 40 44 50 54 57 56 57 58 59 61 61 61 61 61 63 64 64 65 65 65 65 65 64 63 63 62 63 63 63
33 35 41 43 39 43 42 37 27 28 28 26 34 33 39 46 49 51 53 56 56 58 59 58 59 59 60 59 58 60 63 63 64 63 64 65 64 63 63 62 62 61 60 59
24 22 36 41 40 38 37 36 27 21 23 26 34 30 39 48 52 52 54 54 54 54 56 57 58 59 60 60 59 59 61 62 63 63 63 65 65 65 64 63 61 61 61 60
27 27 39 40 42 42 36 32 39 28 27 25 31 35 44 48 47 49 51 51 52 53 53 54 54 57 59 60 60 59 58 60 61 61 62 62 62 62 63 62 61 60 61 59
34 24 35 39 42 41 39 41 32 33 23 21 27 29 36 42 46 49 50 51 50 52 52 52 52 53 55 56 58 57 58 58 59 59 61 61 60 60 59 59 58 58 57 57
37 33 31 36 33 33 36 34 35 34 33 25 24 31 40 42 44 45 48 49 51 51 50 49 50 50 52 53 54 55 56 56 56 56 56 56 56 56 55 56 56 55 55 55
37 34 26 30 37 40 40 35 34 30 27 27 27 32 43 43 43 44 46 49 50 50 50 49 49 50 50 51 52 54 54 55 55 55 54 53 53 53 53 53 53 54 52 52
37 26 15 22 31 39 34 34 33 33 31 22 26 31 45 44 43 44 47 47 48 50 49 50 50 49 50 50 51 51 52 53 53 53 52 51 51 51 51 51 52 52 51 51
39 27 22 18 21 30 27 32 36 31 29 27 28 33 40 43 44 45 46 48 49 49 50 51 51 50 49 50 51 51 51 52 51 51 50 50 49 50 49 49 50 50 50 50
31 17 25 29 30 31 31 31 32 26 31 29 31 33 40 43 46 47 48 48 48 50 51 51 51 51 50 50 49 49 50 50 50 49 49 49 49 49 48 48 48 48 48 48
29 17 19 16 30 29 27 31 32 32 34 33 33 34 42 46 46 46 46 48 48 49 50 51 51 51 51 51 50 49 49 48 49 48 48 48 48 47 47 47 46 46 45 45
25 22 16 16 26 27 20 32 32 34 36 36 29 40 45 43 44 43 45 46 47 49 50 51 51 50 50 51 51 51 50 48 47 48 47 47 47 46 46 45 44 43 43 43
23 21 26 20 20 12 31 37 38 35 35 36 38 40 41 42 46 47 47 47 48 48 49 49 49 49 50 50 50 49 48 47 46 46 46 46 45 45 44 43 43 41 41 41
26 24 18 19 21 24 31 33 32 32 33 36 35 38 39 41 42 43 48 47 47 47 47 47 47 47 47 47 48 48 47 46 45 45 45 46 45 44 42 41 40 37 35 34
29 27 19 18 15 17 29 35 37 35 28 37 37 36 37 39 35 41 44 46 47 46 46 45 45 45 45 45 45 45 45 44 45 46 45 45 45 44 42 40 38 37 37 35
24 24 18 18 16 23 32 36 37 28 29 37 38 38 38 36 39 43 45 46 46 45 45 44 43 42 43 43 43 43 43 43 46 45 45 44 44 42 41 37 38 37 37 37
21 18 19 23 20 17 35 35 31 35 37 38 38 39 38 39 41 42 43 45 44 43 43 43 42 41 41 41 42 42 42 43 44 44 43 42 42 41 39 38 37 38 37 37
22 26 24 26 26 34 36 35 37 37 36 36 37 39 40 40 40 41 40 43 43 42 42 41 40 40 40 39 40 41 43 42 42 42 42 42 41 40 39 37 36 36 37 37
24 28 27 29 30 32 34 36 40 36 35 37 38 38 38 39 41 40 41 41 42 41 40 40 40 39 38 38 39 39 41 42 42 42 41 40 40 38 38 38 37 37 37 37
26 28 26 26 29 30 32 34 34 35 35 36 37 38 38 39 41 40 40 41 42 42 41 40 39 38 37 38 38 39 41 42 41 41 40 40 40 37 37 38 38 38 40 40
25 26 25 26 30 30 31 32 34 33 34 35 35 35 38 39 40 42 42 42 43 43 41 40 39 38 38 37 38 40 42 43 42 40 39 39 39 38 38 37 36 40 41 42

GFSCGP_sfc_temp_108.txt.gz
Temp
51 47 41 45 50 49 49 47 50 46 48 44 41 42 49 59 60 60 58 58 58 63 62 63 64 64 65 66 67 67 71 74 71 70 68 69 72 74 75 78 79 80 79 80
48 45 50 49 50 48 49 47 45 47 48 44 44 42 51 57 61 62 58 58 59 60 60 63 63 63 64 65 68 69 72 72 71 71 69 71 71 72 74 76 77 78 78 78
44 48 50 49 49 47 47 47 45 45 47 46 46 46 49 55 61 62 62 61 61 60 63 65 67 65 63 64 69 70 71 71 71 71 69 67 66 68 69 71 73 73 75 74
47 50 47 47 47 49 44 50 49 46 44 37 48 44 46 52 57 61 65 63 61 61 62 65 64 65 64 64 69 68 67 70 69 67 66 66 63 62 68 69 72 72 71 70
43 45 44 44 47 49 46 50 49 48 44 43 41 41 52 55 50 58 64 66 66 65 63 63 65 66 66 70 65 69 68 67 66 68 67 65 64 64 64 66 67 69 68 67
45 49 47 47 49 49 50 48 48 48 44 35 44 41 50 52 57 60 63 65 68 68 66 66 66 65 66 64 67 68 69 68 66 66 68 68 64 63 62 64 63 65 66 66
41 43 47 48 45 50 48 45 34 31 31 34 41 39 50 55 58 59 60 65 67 67 68 67 67 66 66 65 66 67 70 68 70 68 68 68 66 64 64 65 64 66 65 62
34 32 43 48 45 42 45 42 37 28 32 37 39 36 50 56 59 62 61 64 64 65 68 68 68 69 68 68 68 70 71 71 70 68 67 69 69 67 67 67 67 66 64 63
36 35 46 46 48 46 37 35 45 35 37 36 42 45 53 57 57 59 59 60 61 63 65 65 66 68 69 70 70 70 71 72 72 68 66 66 67 68 67 66 67 65 65 64
42 31 42 45 47 47 43 44 33 35 27 28 37 38 44 50 52 56 58 59 59 59 61 62 62 64 67 68 70 70 70 70 71 69 68 66 67 68 67 68 66 64 63 62
45 38 39 43 41 40 41 37 37 34 35 33 34 40 50 49 51 52 55 58 59 60 60 60 59 60 61 64 65 67 67 67 68 67 65 65 65 65 65 65 62 60 60 59
44 40 31 37 43 46 44 36 34 31 30 31 35 41 52 52 52 52 54 56 58 58 58 59 59 59 59 61 63 64 65 66 67 66 65 65 64 63 64 62 59 59 58 59
43 34 29 33 37 42 38 39 38 35 34 32 34 40 53 56 54 54 54 56 57 58 58 60 61 61 60 60 61 62 63 64 63 63 63 62 61 61 61 60 59 59 57 55
44 33 31 29 30 35 32 37 39 35 29 30 36 41 48 50 52 54 54 57 58 59 59 60 60 60 61 61 61 62 61 63 61 61 61 61 60 61 60 59 58 56 55 54
40 30 32 35 36 36 34 34 36 31 35 29 35 34 46 50 51 53 56 56 57 58 59 60 60 61 62 62 62 60 60 60 61 60 59 59 59 59 58 57 57 57 58 57
37 29 27 26 35 35 31 36 37 37 37 37 38 37 49 54 54 54 54 53 54 56 59 60 59 60 59 60 60 59 59 59 59 59 58 57 56 56 55 56 56 56 55 55
33 30 28 28 33 29 28 36 38 38 40 38 32 43 48 47 49 51 53 55 55 56 57 58 59 59 60 59 59 60 60 59 58 58 57 56 56 55 54 54 53 52 52 52
32 29 30 29 30 24 37 43 42 38 36 37 38 39 41 45 48 50 54 54 56 57 57 57 57 57 57 58 59 58 57 58 56 57 57 56 55 54 54 53 52 52 52 51
36 34 29 28 30 33 37 39 39 37 35 36 35 39 42 46 48 48 52 53 54 55 56 55 56 55 55 56 56 56 57 57 56 55 56 56 55 54 53 51 50 48 43 42
35 36 32 29 24 26 38 41 43 42 35 39 38 39 40 45 41 44 48 50 52 54 54 54 54 54 55 55 54 54 56 56 55 56 55 55 55 54 52 50 47 47 42 38
29 30 28 30 29 35 43 43 44 32 36 42 42 40 39 38 40 44 47 48 48 49 50 52 53 52 52 52 52 52 53 53 55 54 53 53 52 51 50 43 44 41 40 41
32 30 29 29 26 28 44 42 38 42 44 44 43 43 42 42 44 47 47 47 49 47 47 48 48 49 49 48 48 50 50 52 52 52 52 51 51 49 47 46 43 43 43 43
32 38 37 37 40 43 45 44 45 45 43 43 43 44 44 44 45 44 46 48 48 48 48 48 46 45 46 46 46 46 49 50 50 51 51 51 51 50 49 44 41 41 43 42
36 39 37 36 42 42 44 45 46 45 43 43 44 44 45 44 45 46 44 47 48 48 47 47 47 47 46 46 45 46 48 50 50 51 50 50 49 48 47 44 41 42 41 45
40 38 38 38 41 40 42 44 44 42 42 42 44 44 43 44 45 46 46 46 48 48 47 46 46 44 44 46 46 47 47 49 49 49 48 48 47 44 42 43 42 42 44 47
38 40 38 42 43 44 42 43 41 40 40 42 41 42 44 44 44 46 47 45 45 45 44 44 43 42 44 45 45 44 44 47 49 45 44 43 42 40 40 39 38 41 41 42

GFSCGP_sfc_temp_111.txt.gz
Temp
52 44 43 48 52 52 50 51 50 54 52 48 51 49 50 56 63 64 67 65 67 66 66 66 66 65 66 65 65 68 69 72 71 70 70 72 74 74 77 78 79 78 80 80
50 43 53 52 54 52 52 51 51 52 52 49 52 50 55 57 63 65 65 64 66 61 63 63 63 64 64 64 63 64 66 70 70 70 71 72 71 73 75 76 78 79 79 79
46 49 54 51 50 49 51 50 50 49 51 52 48 48 51 57 64 66 66 66 65 62 60 60 61 62 62 62 65 65 63 68 69 70 70 69 70 70 70 72 74 75 77 76
50 56 50 50 48 52 45 54 52 50 47 43 52 39 50 53 59 62 64 62 62 63 63 61 62 62 61 61 62 64 65 66 70 70 67 66 67 66 70 70 71 71 74 74
46 48 47 46 50 52 47 53 52 51 49 48 48 44 50 56 54 60 64 64 62 61 61 63 64 65 64 63 63 64 64 65 68 69 68 68 66 68 69 68 68 68 67 71
49 54 50 49 51 52 54 51 51 52 46 37 47 45 48 52 55 60 67 67 65 62 61 63 66 66 65 66 66 65 64 64 65 66 67 66 66 65 65 63 63 64 65 65
45 46 51 51 47 53 51 45 34 31 33 36 46 43 50 58 61 62 64 68 69 66 64 63 62 62 63 62 65 67 66 65 66 65 66 66 66 64 64 62 61 62 63 64
36 34 46 51 47 43 45 44 35 27 32 39 45 39 47 60 63 65 65 66 68 68 68 66 66 64 63 63 64 68 69 67 67 65 66 66 66 65 63 63 63 63 65 65
38 38 50 50 51 49 40 37 47 37 43 38 44 48 56 60 60 61 62 63 63 66 67 69 70 69 69 67 66 66 69 69 71 67 68 67 66 65 64 64 65 66 68 66
46 34 46 49 51 50 45 45 35 37 27 29 40 41 42 50 53 59 60 61 63 63 65 68 66 68 69 71 70 72 72 73 73 71 68 68 69 70 69 67 67 67 65 63
48 42 41 47 42 40 42 37 38 33 34 29 32 35 51 50 53 54 58 60 61 61 62 63 63 64 65 66 69 70 72 72 72 72 69 67 67 67 67 65 65 63 61 61
48 43 34 40 47 49 46 39 37 33 29 37 35 34 56 55 55 57 57 59 60 60 61 62 62 62 64 64 65 67 69 70 71 71 69 67 66 65 64 64 61 61 60 59
46 37 30 35 39 44 39 42 43 36 34 33 31 34 56 57 56 57 57 59 60 61 62 63 63 62 62 63 65 66 66 67 68 67 67 67 65 65 65 62 61 60 60 58
46 35 32 29 31 37 33 38 42 36 30 32 37 37 49 51 52 56 57 60 61 61 62 62 63 62 62 63 63 64 65 65 64 65 63 63 63 64 63 61 60 59 58 56
44 31 35 37 39 38 36 36 39 32 35 30 38 37 46 50 53 55 58 59 59 59 61 61 62 63 64 63 62 63 62 63 63 62 62 61 62 62 61 59 58 57 56 56
42 31 30 29 38 37 34 39 40 39 40 39 41 40 52 53 55 55 56 56 56 58 60 61 62 63 62 63 61 61 61 60 63 61 60 59 59 58 58 57 57 56 54 54
37 32 30 30 37 32 29 38 39 41 42 39 34 44 48 47 49 51 52 55 56 58 59 59 60 60 61 60 61 62 61 61 61 60 59 58 57 56 56 56 55 54 53 54
37 32 33 32 32 27 39 46 44 41 40 40 41 40 42 47 51 52 54 54 55 56 57 58 58 59 59 60 61 61 60 60 58 59 58 57 57 55 55 54 53 52 52 52
40 37 33 31 35 37 40 42 42 40 38 38 37 42 46 49 51 48 50 52 53 55 56 57 58 58 58 58 58 59 60 60 59 57 58 57 56 54 53 51 50 50 44 43
39 40 34 33 28 29 42 45 47 46 35 43 39 41 42 48 42 41 48 51 52 54 54 54 56 58 58 57 57 56 57 58 58 59 58 58 56 55 52 51 49 48 43 40
32 33 31 35 32 39 47 47 48 33 36 45 45 43 43 41 42 45 49 50 51 50 51 52 54 55 55 54 54 54 55 55 58 58 58 57 56 53 52 46 48 45 42 44
36 33 33 35 30 30 49 45 39 45 48 48 46 45 44 46 48 47 48 49 50 49 48 49 49 51 51 51 51 51 51 54 54 55 54 54 54 52 50 48 45 45 46 44
35 43 41 41 42 48 51 49 50 49 48 47 46 47 47 46 47 49 49 49 51 51 51 51 50 48 48 49 49 47 50 52 52 53 53 53 53 51 49 47 44 44 46 46
42 46 40 40 48 47 48 49 50 49 47 47 47 47 47 45 47 48 49 50 49 51 50 50 50 49 49 49 49 49 49 51 51 52 53 53 52 50 50 47 44 45 46 46
46 43 42 43 47 45 47 49 49 46 45 45 47 46 45 45 45 48 48 50 48 50 50 49 48 46 46 48 48 48 48 50 50 51 51 51 51 49 48 46 44 45 47 48
45 45 41 45 51 49 47 49 47 44 44 45 44 44 46 46 45 47 48 50 48 46 47 46 45 45 46 47 47 46 47 47 49 48 48 48 45 43 42 41 39 42 43 44

GFSCGP_sfc_temp_114.txt.gz
Temp
50 43 38 41 48 49 47 45 44 51 50 47 45 47 49 55 56 56 60 62 58 58 62 61 61 60 61 62 61 62 62 67 68 66 66 68 68 69 70 69 72 73 74 73
47 40 51 52 52 49 48 45 46 49 51 45 46 45 50 55 54 58 59 58 60 58 58 60 60 61 61 63 63 64 65 68 69 69 67 66 66 68 70 71 72 72 73 73
43 48 56 51 49 47 47 43 46 46 50 48 45 42 45 54 56 61 60 60 60 59 59 59 59 60 61 61 61 62 63 67 69 69 68 66 66 66 65 66 66 69 72 70
46 53 50 47 46 48 39 49 49 49 45 35 46 30 46 51 51 55 55 56 57 58 59 59 60 59 60 60 61 62 62 63 65 68 67 66 66 64 65 66 66 67 70 70
41 45 43 42 46 49 43 50 47 47 45 42 43 33 40 51 49 52 55 54 54 58 59 57 60 61 60 60 61 61 62 62 63 63 64 63 62 62 65 65 64 64 64 67
46 53 47 46 49 49 51 46 46 45 43 27 41 37 34 45 50 54 56 57 56 56 57 59 60 61 60 60 60 60 61 62 62 62 63 63 62 62 62 62 62 62 62 63
42 43 48 50 43 48 46 38 25 22 21 23 40 37 39 51 56 54 53 55 58 55 55 56 60 60 59 59 61 62 62 61 63 62 63 63 63 62 61 61 61 60 60 60
28 25 42 49 44 40 39 36 29 24 26 29 41 32 39 52 56 57 55 57 60 56 56 56 57 57 60 61 62 62 62 63 63 63 63 62 63 62 62 61 61 61 60 61
31 32 47 49 49 45 37 31 42 32 36 28 36 39 46 52 52 55 55 58 57 59 58 58 59 59 58 58 61 64 63 64 63 63 63 63 63 63 62 61 61 61 61 62
41 28 44 48 49 47 42 44 31 32 18 22 31 31 34 41 45 51 52 51 54 58 59 58 58 59 60 61 60 60 65 65 65 65 63 64 64 64 63 62 62 61 62 62
44 38 35 43 37 35 37 32 36 32 30 26 25 28 43 43 46 48 49 51 51 53 55 55 56 57 58 59 61 62 62 62 63 65 65 63 63 65 62 62 63 62 63 62
43 36 24 34 44 47 42 38 32 25 24 29 30 29 49 46 48 50 50 52 52 53 54 54 54 55 56 58 60 61 62 63 63 61 62 61 61 61 61 61 62 61 60 59
41 30 18 25 36 40 38 40 40 32 31 24 26 29 49 47 48 50 50 50 52 54 54 54 54 54 55 56 57 59 60 61 61 61 60 61 60 60 59 57 57 58 57 56
44 29 24 17 24 32 27 35 38 31 24 21 31 34 36 44 46 48 50 51 51 52 54 54 53 53 53 54 56 56 56 58 59 59 58 58 58 58 58 57 57 56 55 54
38 20 29 33 36 36 33 33 36 23 30 20 31 32 41 44 45 47 49 51 53 53 53 53 52 53 54 53 54 54 55 55 56 56 56 56 57 56 55 53 55 54 54 53
36 22 23 19 35 34 30 37 37 37 37 35 36 36 44 48 50 45 48 50 50 51 54 54 53 53 53 52 54 55 54 54 55 54 54 55 54 54 52 51 51 52 51 51
31 24 21 21 30 27 20 35 37 39 42 38 33 36 40 41 46 47 45 48 49 50 51 51 52 51 50 51 53 52 53 55 54 53 53 53 52 51 50 50 50 50 50 50
30 25 26 21 23 15 34 43 42 39 39 38 38 39 43 46 47 46 45 45 46 48 49 50 49 49 51 52 52 52 53 53 53 53 52 52 51 50 49 48 47 46 47 48
35 28 23 20 20 30 36 39 38 36 35 38 36 38 41 45 46 42 45 46 45 46 47 48 50 52 51 50 50 51 52 53 52 52 51 51 51 49 48 46 45 44 41 40
36 34 23 23 20 21 34 41 44 42 27 39 38 38 38 40 37 39 45 46 46 46 47 46 47 49 49 49 49 49 49 50 50 51 51 51 50 49 46 45 44 42 41 39
22 23 21 23 21 31 41 43 44 25 30 41 41 40 39 37 42 41 47 45 46 46 47 47 46 45 45 46 46 45 46 46 48 49 50 51 50 48 46 43 42 39 39 40
28 22 21 26 22 19 42 40 33 38 41 44 42 41 41 41 42 43 44 45 47 45 45 46 43 43 45 44 44 43 43 45 47 47 48 48 48 47 44 42 40 39 39 38
26 34 30 32 31 42 44 42 43 44 42 42 40 42 42 41 42 43 43 42 46 49 45 45 43 43 43 44 43 41 42 44 45 45 45 46 47 44 43 41 39 38 39 39
34 39 32 34 39 40 43 43 44 44 41 42 42 41 41 40 41 41 42 43 43 47 44 46 45 42 41 42 43 42 44 45 45 44 44 46 48 46 44 43 40 40 40 40
36 36 33 34 39 37 41 43 43 42 42 41 41 41 40 40 40 41 41 42 43 43 47 46 43 40 40 42 42 42 42 43 43 45 47 48 48 46 44 43 42 39 42 44
36 34 32 31 41 39 38 42 44 41 40 41 39 38 41 41 40 43 41 42 42 41 43 44 44 42 42 42 40 40 40 41 41 41 43 44 43 41 42 41 39 42 44 45

GFSCGP_sfc_temp_117.txt.gz
Temp
45 39 35 40 44 42 41 41 39 45 48 45 43 43 46 51 52 52 51 53 54 58 58 59 60 60 60 60 60 61 62 63 65 66 65 65 67 67 68 69 69 70 71 71
43 34 43 49 47 43 45 42 39 44 49 46 43 43 48 51 51 52 54 54 57 55 57 58 59 59 60 59 61 61 62 64 64 67 68 69 68 68 69 70 69 70 70 70
36 43 53 49 44 42 42 39 40 42 49 46 42 40 42 49 54 57 58 57 58 57 56 58 58 59 60 61 61 62 63 64 65 65 65 64 67 67 66 67 67 69 71 69
40 48 46 42 41 44 35 46 45 43 38 31 44 30 44 46 51 56 55 53 56 57 58 58 58 59 60 60 62 61 63 64 66 65 64 65 65 64 66 67 67 68 70 68
36 41 40 39 42 45 39 46 43 42 37 35 38 34 36 48 46 50 51 52 54 58 58 58 58 60 60 60 60 61 62 64 64 64 65 64 64 64 65 66 65 65 65 67
41 48 44 42 46 45 47 42 41 39 37 23 35 35 36 42 45 48 51 54 54 56 57 58 59 59 59 59 59 60 60 61 62 63 63 67 65 64 64 62 61 62 62 64
37 40 45 48 39 45 44 34 19 21 18 21 37 35 37 46 49 48 48 50 54 54 57 56 57 58 57 58 58 60 60 59 61 62 63 61 62 62 62 62 63 61 60 60
22 23 40 46 40 36 36 35 28 22 25 25 37 28 36 47 52 49 50 51 56 54 54 55 57 59 59 58 58 60 59 59 61 61 61 62 61 61 61 60 61 60 61 61
26 28 44 46 46 42 35 28 40 31 33 28 29 35 40 48 47 49 48 48 52 55 54 54 56 56 58 59 59 60 60 61 60 61 61 61 61 61 60 61 61 61 60 60
36 24 40 44 45 43 39 41 28 27 20 23 28 26 32 38 41 46 47 48 51 54 54 55 56 56 57 58 59 61 61 62 62 62 62 62 62 62 62 62 61 60 61 61
38 32 31 38 34 32 34 30 32 27 28 25 22 28 43 39 42 42 45 49 50 51 52 52 53 56 57 57 58 58 60 61 62 63 62 62 61 62 61 61 62 61 61 61
37 32 19 31 40 43 39 33 29 20 21 29 25 29 44 42 43 45 45 49 50 49 50 53 52 53 54 55 57 59 59 59 62 62 63 62 62 62 62 62 63 62 61 61
37 25 10 22 29 35 33 35 35 29 28 20 25 29 45 41 45 46 44 46 49 51 50 51 52 51 51 53 55 56 57 58 59 60 60 59 59 60 60 61 61 60 58 57
41 26 20 14 21 28 25 32 35 27 15 25 26 29 36 39 42 43 45 46 46 48 51 50 50 51 52 52 53 54 54 56 56 57 58 57 57 58 57 57 57 56 55 55
34 17 25 29 33 33 31 31 33 20 27 19 28 31 35 39 40 44 42 47 48 48 49 49 48 48 50 50 52 53 53 53 55 55 55 55 56 54 54 55 54 54 54 54
33 18 19 17 32 31 30 35 34 35 35 32 33 34 39 43 42 39 41 45 44 46 47 48 48 47 48 48 50 51 52 52 53 52 53 53 53 54 52 51 51 51 51 51
27 20 18 18 29 23 18 33 34 35 37 35 26 33 37 40 42 39 39 41 43 45 45 46 45 46 47 47 49 49 51 51 51 51 51 52 52 51 50 50 49 48 47 47
27 21 23 16 19 11 32 40 40 37 37 37 36 36 42 44 44 41 41 40 41 43 44 45 44 45 46 46 47 48 50 50 50 50 50 50 50 49 49 48 47 46 46 46
32 26 20 17 15 28 32 36 36 33 33 37 35 37 39 41 43 38 42 42 41 42 43 43 43 45 45 44 45 46 47 48 49 49 49 49 49 47 47 46 45 44 41 41
33 31 21 19 18 20 33 38 42 39 27 37 37 36 36 38 32 38 40 43 43 43 43 43 43 44 42 42 43 44 44 45 45 47 48 49 48 47 45 44 43 43 41 40
18 18 18 18 17 27 38 40 41 24 30 38 38 38 37 34 39 40 43 43 43 43 44 43 42 41 42 42 42 41 42 41 44 46 47 47 48 46 45 43 41 40 40 40
26 19 19 21 18 19 39 37 33 37 38 40 39 39 39 39 39 40 41 42 44 44 43 43 41 41 42 42 41 40 39 42 43 44 44 44 45 46 44 42 40 39 39 38
26 31 28 28 28 38 40 39 41 41 40 40 39 40 41 40 38 40 40 40 42 43 45 43 41 40 40 40 40 38 39 41 42 42 42 43 44 43 42 40 38 37 37 37
30 35 31 33 35 38 40 41 42 42 40 40 40 40 39 37 38 37 39 39 40 42 43 44 44 39 39 39 40 38 39 41 41 41 42 42 43 45 44 43 40 37 37 37
33 34 31 30 35 37 40 40 41 40 40 40 41 40 39 37 37 38 38 39 40 41 42 44 44 39 39 39 38 38 39 39 39 40 41 45 46 45 43 43 42 42 41 41
33 33 31 31 37 37 37 39 40 38 38 39 39 38 38 39 38 40 41 39 39 39 40 40 43 42 43 41 39 38 39 38 38 39 39 42 42 41 42 41 40 43 43 45